[[{"header":{"parameterUnit":"m.s-1","parameterCategory":1,"la1":30.6,"la2":29.2853,"lo1":-89.7004,"lo2":-87.6739,"dy":0.0162,"dx":0.0183,"nx":112,"ny":82,"refTime":"2023-04-25T18:00:00:Z","depth":0,"parameterNumber":2,"parameterNumberName":"U-component_of_WINDS"},"data":[0.0,0.0,0.0,0.0,0.0,0.0,0.0,0.0,0.0,0.0,0.0,0.0,0.0,0.0,0.0,0.0,0.0,0.0,0.0,0.0,0.0,0.0,0.0,0.0,0.0,0.0,0.0,0.0,0.0,0.0,0.0,0.0,0.0,0.0,0.0,0.0,0.0,0.0,0.0,0.0,0.0,0.0,0.0,0.0,0.0,0.0,0.0,0.0,0.0,0.0,0.0,0.0,0.0,0.0,0.0,0.0,0.0,0.0,0.0,0.0,0.0,0.0,0.0,0.0,0.0,0.0,0.0,0.0,0.0,0.0,0.0,0.0,0.0,0.0,0.0,0.0,0.0,0.0,0.0,0.0,0.0,0.0,0.0,0.0,0.0,0.0,0.0,0.0,0.0,0.0,-4.2839,-4.2842,-4.2797,-4.2998,-4.3687,-4.2877,-4.4211,-4.8568,0.0,0.0,0.0,0.0,0.0,0.0,0.0,0.0,0.0,0.0,0.0,0.0,0.0,0.0,0.0,0.0,0.0,0.0,0.0,0.0,0.0,0.0,0.0,0.0,0.0,0.0,0.0,0.0,0.0,0.0,0.0,0.0,0.0,0.0,0.0,0.0,0.0,0.0,0.0,0.0,0.0,0.0,0.0,0.0,0.0,0.0,0.0,0.0,0.0,0.0,0.0,0.0,0.0,0.0,0.0,0.0,0.0,0.0,0.0,0.0,0.0,0.0,0.0,0.0,0.0,0.0,0.0,0.0,0.0,0.0,0.0,0.0,0.0,0.0,0.0,0.0,0.0,0.0,0.0,0.0,0.0,0.0,0.0,0.0,0.0,0.0,0.0,0.0,0.0,0.0,0.0,0.0,0.0,0.0,0.0,0.0,0.0,0.0,0.0,0.0,0.0,0.0,0.0,0.0,-4.4184,-4.3684,-4.3489,-4.3385,-4.3561,-4.2789,-4.4098,-4.832,0.0,0.0,0.0,0.0,0.0,0.0,0.0,0.0,0.0,0.0,0.0,0.0,0.0,0.0,0.0,0.0,0.0,0.0,0.0,0.0,0.0,0.0,0.0,0.0,0.0,0.0,0.0,0.0,0.0,0.0,0.0,0.0,0.0,0.0,0.0,0.0,0.0,0.0,0.0,0.0,0.0,0.0,0.0,0.0,0.0,0.0,0.0,0.0,0.0,0.0,0.0,0.0,0.0,0.0,0.0,0.0,0.0,0.0,0.0,0.0,0.0,0.0,0.0,0.0,0.0,0.0,0.0,0.0,0.0,0.0,0.0,0.0,0.0,0.0,0.0,0.0,0.0,0.0,0.0,0.0,0.0,0.0,0.0,0.0,0.0,0.0,0.0,0.0,0.0,0.0,0.0,0.0,0.0,0.0,0.0,0.0,0.0,0.0,0.0,0.0,0.0,0.0,0.0,-4.4579,-4.4062,-4.3811,-4.3652,-4.3497,-4.3497,-4.2789,-4.4152,-4.8485,-4.905,0.0,0.0,0.0,0.0,0.0,0.0,0.0,0.0,0.0,0.0,0.0,0.0,0.0,0.0,0.0,0.0,0.0,0.0,0.0,0.0,0.0,0.0,0.0,0.0,0.0,0.0,0.0,0.0,0.0,0.0,0.0,0.0,0.0,0.0,0.0,0.0,0.0,0.0,0.0,0.0,0.0,0.0,0.0,0.0,0.0,0.0,0.0,0.0,0.0,0.0,0.0,0.0,0.0,0.0,0.0,0.0,0.0,0.0,0.0,0.0,0.0,0.0,0.0,0.0,0.0,0.0,0.0,0.0,0.0,0.0,0.0,0.0,0.0,0.0,0.0,0.0,0.0,0.0,0.0,0.0,0.0,0.0,0.0,0.0,0.0,0.0,0.0,0.0,0.0,0.0,0.0,0.0,0.0,0.0,0.0,0.0,0.0,0.0,0.0,0.0,0.0,0.0,-4.4001,-4.351,-4.3658,-4.3448,-4.3273,-4.3273,-4.2616,-4.4152,-4.8754,-4.9088,0.0,0.0,0.0,0.0,0.0,0.0,0.0,0.0,0.0,0.0,0.0,0.0,0.0,0.0,0.0,0.0,0.0,0.0,0.0,0.0,0.0,0.0,0.0,0.0,0.0,0.0,0.0,0.0,0.0,0.0,0.0,0.0,0.0,0.0,0.0,0.0,0.0,0.0,0.0,0.0,0.0,0.0,0.0,0.0,0.0,0.0,0.0,0.0,0.0,0.0,0.0,0.0,0.0,0.0,0.0,0.0,0.0,0.0,0.0,0.0,0.0,0.0,0.0,0.0,0.0,0.0,0.0,0.0,0.0,0.0,0.0,0.0,0.0,0.0,0.0,0.0,0.0,0.0,0.0,0.0,0.0,0.0,0.0,0.0,0.0,0.0,0.0,0.0,0.0,0.0,0.0,0.0,0.0,0.0,0.0,0.0,0.0,0.0,0.0,0.0,0.0,0.0,-4.3979,-4.3065,-4.3505,-4.2992,-4.2654,-4.2654,-4.2273,-4.4039,-4.8647,-4.8946,0.0,0.0,0.0,0.0,0.0,0.0,0.0,0.0,0.0,0.0,0.0,0.0,0.0,0.0,0.0,0.0,0.0,0.0,0.0,0.0,0.0,0.0,0.0,0.0,0.0,0.0,0.0,0.0,0.0,0.0,0.0,0.0,0.0,0.0,0.0,0.0,0.0,0.0,0.0,0.0,0.0,0.0,0.0,0.0,0.0,0.0,0.0,0.0,0.0,0.0,0.0,0.0,0.0,0.0,0.0,0.0,0.0,0.0,0.0,0.0,0.0,0.0,0.0,0.0,0.0,0.0,0.0,0.0,0.0,0.0,0.0,0.0,0.0,0.0,0.0,0.0,0.0,0.0,0.0,0.0,0.0,0.0,0.0,0.0,0.0,0.0,0.0,0.0,0.0,0.0,0.0,0.0,0.0,0.0,0.0,0.0,0.0,0.0,0.0,0.0,0.0,0.0,-4.4001,-4.2647,-4.2941,-4.2345,-4.198,-4.198,-4.1766,-4.3664,-4.8458,0.0,0.0,0.0,0.0,0.0,0.0,0.0,0.0,0.0,0.0,0.0,0.0,0.0,0.0,0.0,0.0,0.0,0.0,0.0,0.0,0.0,0.0,0.0,0.0,0.0,0.0,0.0,0.0,0.0,0.0,0.0,0.0,0.0,0.0,0.0,0.0,0.0,0.0,0.0,0.0,0.0,0.0,0.0,0.0,0.0,0.0,0.0,0.0,0.0,0.0,0.0,0.0,0.0,0.0,0.0,0.0,0.0,0.0,0.0,0.0,0.0,0.0,0.0,0.0,0.0,0.0,0.0,0.0,0.0,0.0,0.0,0.0,0.0,0.0,0.0,0.0,0.0,0.0,0.0,0.0,0.0,0.0,0.0,0.0,0.0,0.0,0.0,0.0,0.0,0.0,0.0,0.0,0.0,0.0,0.0,0.0,0.0,0.0,0.0,0.0,0.0,0.0,-4.6245,-4.3906,-4.2221,-4.2322,-4.1699,-4.1306,-4.1306,-4.1284,-4.3358,-4.8323,0.0,0.0,0.0,0.0,0.0,0.0,0.0,0.0,0.0,0.0,0.0,0.0,0.0,0.0,0.0,0.0,0.0,0.0,0.0,0.0,0.0,0.0,0.0,0.0,0.0,0.0,0.0,0.0,0.0,0.0,0.0,0.0,0.0,0.0,0.0,0.0,0.0,0.0,0.0,0.0,0.0,0.0,0.0,0.0,0.0,0.0,0.0,0.0,0.0,0.0,0.0,0.0,0.0,0.0,0.0,0.0,0.0,0.0,0.0,0.0,0.0,0.0,0.0,0.0,0.0,0.0,0.0,0.0,0.0,0.0,0.0,0.0,0.0,0.0,0.0,0.0,0.0,0.0,0.0,0.0,0.0,0.0,0.0,0.0,0.0,0.0,0.0,0.0,0.0,0.0,0.0,0.0,0.0,0.0,0.0,0.0,0.0,0.0,0.0,0.0,0.0,0.0,-4.6281,-4.3803,-4.1877,-4.1615,-4.1053,-4.0688,-4.0688,-4.0944,-4.3167,0.0,0.0,0.0,0.0,0.0,0.0,0.0,0.0,0.0,0.0,0.0,0.0,0.0,0.0,0.0,0.0,0.0,0.0,0.0,0.0,0.0,0.0,0.0,0.0,0.0,0.0,0.0,0.0,0.0,0.0,0.0,0.0,0.0,0.0,0.0,0.0,0.0,0.0,0.0,0.0,0.0,0.0,0.0,0.0,0.0,0.0,0.0,0.0,0.0,0.0,0.0,0.0,0.0,0.0,0.0,0.0,0.0,0.0,0.0,0.0,0.0,0.0,0.0,0.0,0.0,0.0,0.0,0.0,0.0,0.0,0.0,0.0,0.0,0.0,0.0,0.0,0.0,0.0,0.0,0.0,0.0,0.0,0.0,0.0,0.0,0.0,0.0,0.0,0.0,0.0,0.0,0.0,0.0,0.0,0.0,0.0,0.0,0.0,0.0,0.0,0.0,0.0,0.0,-4.6603,-4.3549,-4.1284,-4.1198,-4.0886,-4.0688,-4.0688,-4.1738,-4.4107,-4.7991,0.0,0.0,0.0,0.0,0.0,0.0,0.0,0.0,0.0,0.0,0.0,0.0,0.0,0.0,0.0,0.0,0.0,0.0,0.0,0.0,0.0,0.0,0.0,0.0,0.0,0.0,0.0,0.0,0.0,0.0,0.0,0.0,0.0,0.0,0.0,0.0,0.0,0.0,0.0,0.0,0.0,0.0,0.0,0.0,0.0,0.0,0.0,0.0,0.0,0.0,0.0,0.0,0.0,0.0,0.0,0.0,0.0,0.0,0.0,0.0,0.0,0.0,0.0,0.0,0.0,0.0,0.0,0.0,0.0,0.0,0.0,0.0,0.0,0.0,0.0,0.0,0.0,0.0,0.0,0.0,0.0,0.0,0.0,0.0,0.0,0.0,0.0,0.0,0.0,0.0,0.0,0.0,0.0,0.0,0.0,0.0,0.0,0.0,0.0,0.0,0.0,0.0,-4.6656,-4.3501,-4.117,-4.1001,-4.0916,-4.0773,-4.0688,-4.1995,-4.4132,-4.7202,0.0,0.0,0.0,0.0,0.0,0.0,0.0,0.0,0.0,0.0,0.0,0.0,0.0,0.0,0.0,0.0,0.0,0.0,0.0,0.0,0.0,0.0,0.0,0.0,0.0,0.0,0.0,0.0,0.0,0.0,0.0,0.0,0.0,0.0,0.0,0.0,0.0,0.0,0.0,0.0,0.0,0.0,0.0,0.0,0.0,0.0,0.0,0.0,0.0,0.0,0.0,0.0,0.0,0.0,0.0,0.0,0.0,0.0,0.0,0.0,0.0,0.0,0.0,0.0,0.0,0.0,0.0,0.0,0.0,0.0,0.0,0.0,0.0,0.0,0.0,0.0,0.0,0.0,0.0,0.0,0.0,0.0,0.0,0.0,0.0,0.0,0.0,0.0,0.0,0.0,0.0,0.0,0.0,0.0,0.0,0.0,0.0,0.0,0.0,0.0,0.0,0.0,-4.6687,-4.3775,-4.1506,-4.1085,-4.1001,-4.0944,-4.0858,-4.211,-4.3867,-4.6234,0.0,0.0,0.0,0.0,0.0,0.0,0.0,0.0,0.0,0.0,0.0,0.0,0.0,0.0,0.0,0.0,0.0,0.0,0.0,0.0,0.0,0.0,0.0,0.0,0.0,0.0,0.0,0.0,0.0,0.0,0.0,0.0,0.0,0.0,0.0,0.0,0.0,0.0,0.0,0.0,0.0,0.0,0.0,0.0,0.0,0.0,0.0,0.0,0.0,0.0,0.0,0.0,0.0,0.0,0.0,0.0,0.0,0.0,0.0,0.0,-0.5272,-0.5484,0.0,0.0,0.0,0.0,0.0,0.0,0.0,0.0,0.0,0.0,0.0,0.0,0.0,0.0,0.0,0.0,0.0,0.0,0.0,0.0,0.0,0.0,0.0,0.0,0.0,0.0,0.0,0.0,0.0,0.0,0.0,0.0,0.0,0.0,0.0,0.0,0.0,0.0,0.0,0.0,-4.7808,-4.4248,-4.1702,-4.1535,-4.1254,-4.1369,-4.2223,-4.334,-4.4911,-4.7065,-4.8874,0.0,0.0,0.0,0.0,0.0,0.0,0.0,0.0,0.0,0.0,0.0,0.0,0.0,0.0,0.0,0.0,0.0,0.0,0.0,0.0,0.0,0.0,0.0,0.0,0.0,0.0,0.0,0.0,0.0,0.0,0.0,0.0,0.0,0.0,0.0,0.0,0.0,0.0,0.0,0.0,0.0,0.0,0.0,0.0,0.0,0.0,0.0,0.0,0.0,0.0,0.0,0.0,0.0,0.0,0.0,0.0,0.0,0.0,0.0,-0.8844,-0.5618,0.0,0.0,0.0,0.0,0.0,0.0,0.0,0.0,0.0,0.0,0.0,0.0,0.0,0.0,0.0,0.0,0.0,0.0,0.0,0.0,0.0,0.0,0.0,0.0,0.0,0.0,0.0,0.0,0.0,0.0,0.0,0.0,0.0,0.0,0.0,0.0,0.0,0.0,0.0,0.0,-4.7303,-4.4148,-4.193,-4.1965,-4.1739,-4.191,-4.2623,-4.3835,-4.5079,-4.6082,-4.8314,0.0,0.0,0.0,0.0,0.0,0.0,0.0,0.0,0.0,0.0,0.0,0.0,0.0,0.0,0.0,0.0,0.0,0.0,0.0,0.0,0.0,0.0,0.0,0.0,0.0,0.0,0.0,0.0,0.0,0.0,0.0,0.0,0.0,0.0,0.0,0.0,0.0,0.0,0.0,0.0,0.0,0.0,0.0,0.0,0.0,0.0,0.0,0.0,0.0,0.0,0.0,0.0,0.0,-1.3884,-1.5295,-2.1094,-2.1128,-2.1088,-2.0778,-1.5399,-1.0021,-0.5274,-0.8653,0.0,0.0,0.0,0.0,0.0,0.0,0.0,0.0,0.0,0.0,0.0,0.0,0.0,0.0,0.0,0.0,0.0,0.0,0.0,0.0,0.0,0.0,-3.1753,-3.86,-4.0898,-4.1582,-4.1874,0.0,0.0,0.0,0.0,0.0,0.0,0.0,0.0,0.0,0.0,0.0,-4.6107,-4.3783,-4.2189,-4.2281,-4.2338,-4.2564,-4.3041,-4.4148,-4.5025,-4.5318,-4.7509,-4.8942,0.0,0.0,0.0,0.0,0.0,0.0,0.0,0.0,0.0,0.0,0.0,0.0,0.0,0.0,0.0,0.0,0.0,0.0,0.0,0.0,0.0,0.0,0.0,0.0,0.0,0.0,0.0,0.0,0.0,0.0,0.0,0.0,0.1149,-0.0688,0.0,0.0,0.0,0.0,0.0,0.0,0.0,0.0,0.0,0.0,0.0,0.0,0.0,-1.124,-1.5695,-1.6603,-1.7563,-1.8808,-1.8634,-1.9418,-2.1059,-2.1075,-2.1133,-2.1036,-2.0133,0.0,-1.778,-0.7785,0.0,0.0,0.0,0.0,0.0,0.0,0.0,0.0,0.0,0.0,0.0,0.0,0.0,0.0,0.0,0.0,0.0,0.0,0.0,0.0,0.0,0.0,-2.8341,-3.6447,-3.8434,-3.8662,-3.9316,-4.1856,-4.401,-4.3669,-4.3314,-4.3567,0.0,0.0,0.0,0.0,0.0,0.0,-4.5135,-4.3567,-4.2481,-4.231,-4.2621,-4.3367,-4.4821,-4.4938,-4.5493,-4.687,-4.7306,-4.8072,-4.9072,-4.9726,0.0,0.0,0.0,0.0,0.0,0.0,0.0,0.0,0.0,0.0,0.0,0.0,0.0,0.0,0.0,0.0,0.0,0.0,0.0,0.0,0.0,0.0,0.0,0.0,0.0,0.0,0.0,0.0,0.0,-0.0768,-0.077,-0.3263,-0.371,-0.4393,0.0,0.0,0.0,0.0,0.0,0.0,0.0,0.0,0.0,-1.434,-1.397,-1.4756,-1.7022,-1.6959,-1.7563,-1.8727,-1.9199,-1.9821,-2.0578,-2.0902,-2.0982,-2.0856,-2.1614,-2.186,-2.1199,-1.5126,-1.4965,-1.8726,0.0,0.0,0.0,0.0,-1.8954,-1.8881,-1.707,-1.6626,-1.6908,-1.7536,0.0,0.0,0.0,0.0,0.0,0.0,0.0,-2.3393,-2.6878,-2.9325,-3.2122,-3.7262,-3.8743,-3.9019,-3.927,-4.0511,-4.1595,-4.1585,-4.1808,-4.2777,-4.503,-4.5933,0.0,0.0,0.0,-4.5414,-4.4241,-4.3137,-4.2567,-4.3105,-4.3357,-4.3844,-4.5104,-4.5341,-4.5903,-4.6989,-4.7638,-4.8339,-4.9044,-5.0316,-5.1738,0.0,0.0,0.0,0.0,0.0,0.0,0.0,0.0,0.0,0.0,0.0,0.0,0.0,0.0,0.0,0.0,0.0,0.0,0.0,0.0,0.0,0.0,0.0,0.0,0.0,0.0,0.0,0.0,-0.2901,-0.3908,-0.5335,-0.398,-0.3694,0.0,0.0,0.0,0.0,0.0,0.0,-0.8467,-0.8873,-1.1061,-1.5295,-1.6462,-1.6982,-1.6981,-1.7022,-1.74,-1.8314,-1.8828,-1.9456,-2.0081,-2.0843,-2.1109,-2.1348,-2.223,-2.2856,-2.3024,-2.1118,-2.0327,-2.0231,-2.0979,-2.202,-2.3089,-2.2975,-2.2659,-2.1961,-2.0364,-1.957,-1.9326,-2.0117,-2.0931,-2.1426,-2.0173,0.0,0.0,0.0,0.0,-2.6596,-2.8419,-3.1896,-3.5571,-3.8567,-3.9597,-3.9873,-3.9722,-3.9854,-3.993,-3.9825,-4.0403,-4.1626,-4.3976,-4.5026,0.0,-4.6184,-4.5537,-4.4655,-4.3574,-4.2967,-4.2991,-4.363,-4.3885,-4.4407,-4.5493,-4.5888,-4.6517,-4.7495,-4.8413,-4.8947,-4.9209,-5.0669,-5.1757,-5.2426,0.0,0.0,0.0,0.0,0.0,0.0,0.0,0.0,0.0,0.0,0.0,0.0,0.0,0.0,0.0,0.0,0.0,0.0,0.0,0.0,0.0,0.0,0.0,0.0,0.0,0.0,0.0,0.0,0.0,-0.3656,-0.5034,0.0,0.0,0.0,0.0,-0.8219,-0.7907,-0.7299,-0.6321,-0.9743,-1.1511,-1.1059,-1.4933,-1.7022,-1.6989,-1.6958,-1.7389,-1.8033,-1.8688,-1.9456,-2.0081,-2.0843,-2.1853,-2.2952,-2.2731,-2.3946,-2.589,-2.1459,-2.0413,-2.1399,-1.976,-1.9783,-2.0658,-2.0332,-2.0171,-1.9907,-1.8391,-1.8136,-1.8612,-1.8993,-2.1024,-2.3495,-2.4046,-2.6074,0.0,0.0,-2.7705,-2.9249,-3.235,-3.3945,-3.568,-3.9521,-4.045,-4.0325,-3.9798,-4.0702,-4.1099,-3.9187,-3.9043,-3.9616,-4.1053,0.0,-4.2396,-4.3603,-4.3748,-4.3487,-4.2988,-4.3381,-4.3658,-4.3497,-4.4003,-4.4967,-4.6587,-4.6737,-4.7548,-4.9373,-4.9553,-4.9642,-4.9907,-5.0201,-5.1141,-5.2807,-5.3486,0.0,0.0,0.0,0.0,0.0,0.0,0.0,0.0,0.0,0.0,0.0,0.0,0.0,0.0,0.0,0.0,0.0,0.0,0.0,0.0,0.0,0.0,0.0,0.0,0.0,0.0,0.0,0.0,-0.7322,-0.7421,0.0,-0.8106,-0.8788,-0.8901,-0.8418,-0.8883,-0.9553,-1.028,-1.1832,-1.2925,-1.3474,-1.5829,-1.7001,-1.7001,-1.7163,-1.7554,-1.8033,-1.8453,-1.9184,-2.009,-2.0219,-2.1341,-2.3164,-2.3947,-2.5218,-2.6877,-2.6084,-2.6076,-2.6353,-2.5949,-2.6154,-2.6736,-2.6573,-2.6518,-2.6464,-2.5919,-2.5865,-2.61,-2.6208,-2.6899,-2.763,-2.6898,-2.7302,-2.7743,-2.6411,-2.8382,-3.1196,-3.2264,-3.4977,-3.784,-3.9785,-4.029,-4.034,-4.0621,-4.1076,-4.1261,-4.0694,-4.0769,-4.1329,-4.2657,-4.2516,-4.2683,-4.3824,-4.3853,-4.3726,-4.3878,-4.4224,-4.4769,-4.5468,-4.5941,-4.6547,-4.759,-4.7712,-4.8351,-4.9791,-5.0304,-5.0725,-5.108,-5.1567,-5.2171,-5.2797,-5.2941,-5.3987,0.0,0.0,0.0,0.0,0.0,0.0,0.0,0.0,0.0,0.0,0.0,0.0,0.0,0.0,0.0,0.0,0.0,0.0,0.0,0.0,0.0,0.0,0.0,0.0,0.0,-0.8381,-0.7634,-0.8943,-0.9161,-0.9086,-0.8755,-0.9244,-0.9581,-0.9191,-1.019,-1.1314,-1.2532,-1.3544,-1.4472,-1.5297,-1.6563,-1.7249,-1.7249,-1.741,-1.7675,-1.7904,-1.8324,-1.9196,-2.0366,-2.0758,-2.2271,-2.4545,-2.556,-2.6726,-2.8134,-2.9047,-2.9368,-2.9491,-2.9592,-2.9824,-3.0062,-3.0204,-3.0296,-3.0424,-3.0552,-3.0733,-3.0946,-3.1294,-3.1484,-3.1556,-3.1042,-3.0815,-3.069,-2.9809,-3.1946,-3.4552,-3.4552,-3.6895,-3.9431,-3.9841,-3.9972,-4.0127,-4.0913,-4.1616,-4.2138,-4.2717,-4.2587,-4.272,-4.3515,-4.3509,-4.3622,-4.4613,-4.4549,-4.4684,-4.5242,-4.5515,-4.5827,-4.665,-4.7024,-4.7491,-4.826,-4.882,-4.9582,-5.0577,-5.133,-5.1843,-5.2052,-5.2776,-5.3258,-5.3258,-5.3521,-5.4569,-5.6237,0.0,0.0,0.0,0.0,0.0,0.0,0.0,0.0,0.0,0.0,0.0,0.0,0.0,0.0,0.0,0.0,0.0,0.0,0.0,0.0,0.0,0.0,0.0,-0.6759,-0.9385,-1.0384,-0.8224,-1.0134,-1.1065,-0.9462,-1.025,-1.0834,-1.0717,-1.1694,-1.2244,-1.2532,-1.4638,-1.5829,-1.5819,-1.7015,-1.7723,-1.7723,-1.7723,-1.7723,-1.7723,-1.8396,-1.9468,-2.0908,-2.2331,-2.4545,-2.7173,-2.7554,-2.8438,-2.9707,-2.9707,-2.9959,-3.0266,-2.9851,-2.9707,-2.985,-3.0116,-3.0479,-3.0864,-3.1249,-3.1891,-3.26,-3.3406,-3.4106,-3.4909,-3.6431,-3.6924,-3.7054,-3.7846,-3.8645,-3.9272,-3.9272,-3.9854,-4.0316,-3.9849,-3.9726,-3.9873,-4.0695,-4.2092,-4.3687,-4.5009,-4.4233,-4.3355,-4.3341,-4.4209,-4.5024,-4.5647,-4.5732,0.0,-4.6995,-4.7148,-4.7081,-4.6889,-4.7243,-4.7854,-4.8748,-5.0152,-5.1273,-5.1941,-5.2815,-5.3082,-5.2698,-5.375,-5.4285,-5.4285,-5.5198,-5.6001,-5.692,0.0,0.0,0.0,0.0,0.0,0.0,0.0,0.0,0.0,0.0,0.0,0.0,0.0,0.0,0.0,0.0,0.0,0.0,0.0,0.0,0.0,-0.8711,-1.0545,-1.0842,-1.0637,-1.0591,-1.1077,-1.1715,-1.1886,-1.1523,-1.1653,-1.1708,-1.1669,-1.2436,-1.3176,-1.4104,-1.528,-1.6176,-1.713,-1.7474,-1.7723,-1.7723,-1.7906,-1.7906,-1.7723,-1.8042,-1.9197,-2.0797,-2.12,-2.3434,-2.6867,-2.7376,-2.8567,-3.0152,-3.0665,-3.0993,-3.1048,-3.0646,-3.0664,-3.092,-3.1047,-3.1121,-3.1231,-3.1341,-3.2128,-3.3126,-3.3368,-3.4202,-3.5453,-3.6626,-3.6916,-3.7174,-3.819,-3.8722,-3.884,-3.884,-3.9046,-3.9324,-3.9762,-3.9834,-4.0207,-4.143,-4.2017,-4.2944,-4.5018,-4.5393,-4.5603,-4.6186,-4.6109,-4.6175,-4.6681,-4.67,-4.6899,-4.7429,-4.7612,-4.824,-4.9479,-4.9887,-5.0445,-5.1486,-5.1849,-5.2152,-5.2215,-5.2487,-5.2577,-5.2698,-5.2935,-5.3434,-5.4062,-5.5117,-5.6126,0.0,0.0,0.0,0.0,0.0,0.0,0.0,0.0,0.0,0.0,0.0,0.0,0.0,0.0,0.0,0.0,0.0,0.0,0.0,0.0,0.0,0.0,-0.9381,-1.1696,-1.2503,-1.1646,-1.1252,-1.2318,-1.2284,-1.2196,-1.2196,-1.2115,-1.2088,-1.2155,-1.3273,-1.4276,-1.5119,-1.6272,-1.7174,-1.8024,-1.8024,-1.8024,-1.8024,-1.8164,-1.8164,-1.8024,-1.8843,-2.0,-2.1629,-2.2565,-2.4535,-2.7302,-2.8081,-2.8888,-2.9952,-3.0343,-3.0473,-3.0584,0.0,0.0,0.0,0.0,-3.1377,-3.1506,-3.2001,-3.2873,-3.3717,-3.4636,-3.5554,-3.6458,-3.7394,-3.7723,-3.7793,-3.8451,-3.8718,-3.8718,-3.8718,-3.8718,-3.8854,-3.957,-3.9792,-4.016,-4.1821,-4.237,-4.3231,-4.5607,-4.6602,0.0,-4.8182,-4.799,-4.7808,-4.796,-4.7921,-4.7966,-4.8309,-4.8366,-4.8775,-4.965,-5.0258,-5.0733,-5.1419,-5.2154,0.0,0.0,0.0,-5.2993,-5.3346,-5.375,0.0,0.0,0.0,-5.7039,-5.7634,-5.828,0.0,0.0,-5.829,-5.829,0.0,0.0,0.0,0.0,0.0,0.0,0.0,0.0,0.0,0.0,0.0,0.0,0.0,0.0,0.0,0.0,-0.9181,-1.0935,-1.2542,-1.2522,-1.2366,-1.2366,-1.223,-1.2135,-1.2135,-1.2271,-1.2463,-1.2602,-1.4399,-1.574,-1.5919,-1.7602,0.0,0.0,0.0,-1.8476,-1.8476,-1.8584,-1.8724,-1.8746,-2.0098,-2.1584,-2.3092,-2.5128,-2.6753,-2.8263,-2.8922,-2.9185,-2.9185,-2.9316,-2.9316,-2.9447,-3.0732,-3.1377,-3.1377,-3.1377,-3.1469,-3.1689,-3.298,0.0,0.0,-3.6427,-3.7288,-3.7807,-3.857,-3.877,-3.877,-3.877,-3.877,-3.877,-3.877,-3.877,-3.8877,-3.9479,-3.9658,-4.0184,-4.1834,-4.2851,-4.4157,-4.6498,-4.7509,-4.8362,-4.9484,-4.9502,-4.9305,-4.9305,-4.9108,-4.9108,-4.9207,-4.9009,-4.8881,-4.8781,-4.9346,0.0,-5.0316,-5.1789,-5.2547,-5.2397,-5.317,-5.375,-5.4115,-5.487,-5.5683,-5.6658,-5.748,-5.7881,-5.7881,-5.7881,-5.7881,-5.7881,-5.8597,-5.8806,0.0,0.0,0.0,0.0,0.0,0.0,0.0,0.0,0.0,0.0,0.0,0.0,0.0,0.0,0.0,-0.7641,-1.0251,-1.2246,-1.2691,-1.2786,-1.2834,-1.2834,-1.2698,-1.2603,-1.2603,-1.3707,-1.4397,-1.4436,-1.6796,-1.8178,-1.8218,-1.9289,-1.9768,-1.9282,-1.9282,-1.8998,-1.8713,-1.9632,-2.032,-2.0521,-2.1836,0.0,-2.4602,-2.5008,-2.5965,-2.7467,-2.813,-2.8527,-2.8527,-2.9053,-2.9316,-2.9447,-3.023,-3.0861,-3.1377,-3.1377,-3.1795,-3.2431,-3.3136,-3.4636,-3.6187,-3.6948,-3.8037,-3.9007,-3.9173,-3.9127,0.0,-3.9127,-3.9127,-3.9127,-3.9127,-3.9127,-3.922,-3.9337,-3.9789,-4.0317,-4.116,-4.2554,-4.4219,-4.6098,-4.7149,-4.8166,-4.9484,-4.9669,-4.9571,-4.9571,-4.9571,-4.9375,-4.9009,-4.8909,-4.9248,-5.0162,-5.0228,-5.0798,-5.2305,-5.2516,-5.2637,-5.2608,-5.2788,-5.2966,-5.3024,-5.3201,-5.4008,-5.5555,-5.5763,-5.6503,-5.7881,-5.7881,-5.7881,-5.7881,-5.8027,-5.8099,0.0,0.0,0.0,0.0,0.0,0.0,0.0,0.0,0.0,0.0,0.0,-0.0387,-0.0967,0.0,-0.8133,-0.7681,-1.0474,-1.2695,-1.2847,-1.2915,-1.2963,-1.2963,-1.2895,-1.2847,-1.2847,-1.3555,-1.4251,-1.4935,-1.6742,-1.8101,-1.8895,-1.9848,-2.0093,-1.9825,-1.9825,-1.9681,-1.9249,-2.0544,-2.1035,-2.1016,-2.2953,-2.4317,-2.5008,-2.5697,-2.6517,-2.72,-2.76,-2.7733,-2.7733,-2.813,-2.8527,-2.879,-2.9185,-2.9691,-3.0473,-3.1469,-3.2086,-3.2691,-3.4634,-3.5897,-3.6816,-3.7896,-3.863,-3.8987,-3.9239,-3.9308,-3.9308,-3.9308,-3.9308,-3.9308,-3.9308,-3.9308,-3.9334,-3.9291,-4.0009,-4.0854,-4.1377,-4.291,-4.4529,-4.5972,-4.7023,-4.804,-4.9484,-4.96,-4.96,-4.9669,-4.96,-4.9404,-4.9108,-4.9009,-4.9178,-4.9708,-4.9805,-5.0383,-5.1789,-5.2366,-5.2667,-5.2698,-5.2698,-5.2698,-5.2698,-5.3113,-5.375,-5.4653,-5.5555,-5.6348,-5.7256,-5.7662,-5.7881,-5.7881,-5.7881,-5.7881,0.0,0.0,0.0,0.0,0.0,0.0,0.0,0.3,0.055,-0.0861,-0.1229,-0.1564,-0.2391,-0.5277,-0.7204,-0.6493,-1.0056,-1.295,-1.2929,-1.3091,-1.3091,-1.3091,-1.3017,-1.2963,-1.2963,-1.3568,-1.4434,-1.554,-1.6888,-1.822,-1.9564,-2.0264,-2.0566,-2.052,-2.052,-2.0229,-1.9938,-2.1375,-2.1973,-2.174,-2.4369,-2.5606,-2.5606,-2.6853,-2.7407,-2.7541,-2.7541,-2.7675,-2.7675,-2.7675,-2.7943,-2.8477,-2.8477,-2.8908,-2.9543,-3.1359,-3.2226,-3.2969,-3.5982,-3.6872,-3.6942,-3.8748,-3.9033,-3.8803,-3.9193,-3.9308,-3.9308,-3.9308,-3.9308,-3.9308,-3.9308,-3.9308,-3.9359,-3.9443,-4.0306,-4.116,-4.1879,-4.3417,-4.4914,-4.6139,-4.7023,-4.804,-4.9484,-4.9502,-4.9404,-4.9669,-4.9502,-4.9404,-4.9305,-4.9108,-4.9009,-4.9009,-4.9108,-4.9669,-5.0728,-5.1849,-5.2608,-5.2698,-5.2698,-5.2698,-5.2698,-5.3346,-5.3836,-5.3976,-5.5393,-5.6192,-5.6381,-5.7256,-5.7662,-5.7662,-5.7808,-5.7881,1.0904,0.9649,0.9269,0.7733,0.7522,0.7182,0.0,0.3102,0.1501,0.0799,-0.0,-0.0558,-0.0804,-0.1674,-0.2381,-0.2396,-0.8319,-1.3062,-1.3036,-1.3211,-1.3378,-1.3378,-1.32,-1.2963,-1.2963,-1.5499,-1.7098,-1.739,-1.9951,-2.1786,-2.1912,-2.2037,-2.1757,-2.1226,-2.1214,-2.092,-2.0626,-2.2806,-2.4079,-2.435,-2.6718,-2.783,-2.783,-2.7968,-2.826,-2.8688,-2.8946,-2.9083,-2.9083,-2.9083,-2.922,-2.922,-2.922,-2.9479,-2.9752,-3.0574,-3.1834,-3.3443,-3.5206,-3.6273,-3.7081,-3.8752,-3.9262,-3.9239,-3.9285,-3.9308,-3.9308,-3.9308,-3.9308,-3.9308,-3.9308,-3.9308,-3.9522,-4.0159,-4.0489,-4.0821,-4.175,-4.3417,-4.4914,-4.6139,-4.7023,-4.804,-4.9484,-4.9502,-4.9404,-4.9669,-4.9669,-4.9571,-4.9305,-4.9305,-4.9207,-4.9207,-4.9108,-4.9473,-5.0698,-5.1602,-5.2276,-5.2698,-5.2698,-5.2698,-5.2698,-5.2788,-5.3201,-5.3976,-5.4232,-5.4653,-5.5474,-5.627,-5.6768,-5.6768,-5.7554,-5.7881,1.288,1.0882,0.9566,0.9424,0.88,0.7654,0.5464,0.3663,0.221,0.1623,-0.074,-0.2797,-0.3421,-0.3713,-0.3827,-0.3999,-0.9521,-1.3606,-1.3492,-1.3465,-1.3593,-1.3338,-1.3329,-1.3214,-1.3214,-1.5152,-1.6739,-1.7723,-1.9695,-2.1348,-2.2271,-2.2259,-2.2211,-2.1941,-2.1941,-2.2078,-2.2633,-2.4115,-2.5327,-2.6013,-2.7539,-2.8217,-2.8217,-2.8371,-2.8785,-2.9215,-2.9352,-2.9336,-2.9336,-2.9336,-2.9336,-2.9336,-2.9149,-2.9412,-3.0334,-3.1466,-3.2416,-3.3289,-3.4741,-3.5569,-3.6267,-3.7853,-3.8199,-3.8063,-3.9007,-3.9308,-3.9308,-3.9308,-3.9308,-3.9308,-3.9308,-3.9308,-3.938,-3.9756,-4.0338,-4.0996,-4.1377,-4.3131,-4.4914,-4.6139,-4.7023,-4.804,-4.9484,-4.9502,-4.9404,-4.9669,-4.9669,-4.9669,-4.96,-4.9502,-4.9502,-4.9502,-4.9669,-4.996,-5.0567,-5.1229,-5.1695,-5.2215,-5.2246,-5.2458,-5.2698,-5.2698,-5.2877,-5.3258,-5.375,-5.4401,-5.5312,-5.6192,-5.6844,-5.7331,-5.7735,-5.7881,1.2865,1.1593,1.0561,1.1044,1.0347,0.9056,0.7099,0.5014,0.3347,0.3122,-0.1052,-0.4717,-0.543,-0.561,-0.543,-0.5594,-0.91,-1.2415,-1.3693,-1.3763,-1.3485,-1.3365,-1.3451,-1.3403,-1.3403,-1.5163,-1.6729,-1.7687,-1.9615,-2.108,-2.2271,-2.2259,-2.2259,-2.2259,-2.2259,-2.2831,-2.414,-2.5112,-2.6157,-2.7289,-2.8193,-2.8659,-2.8659,-2.9232,-2.951,-2.9788,-2.9926,-3.0065,-3.0065,-3.0065,-3.0065,-2.991,-2.9583,-2.9984,-3.0993,-3.1944,-3.2649,-3.3092,-3.3934,-3.4392,-3.4855,-3.6677,-3.7322,-3.7788,-3.8961,-3.9308,-3.9308,-3.9308,-3.9308,-3.9308,-3.9308,-3.9308,-3.9357,-3.9894,-4.0818,-4.1588,-4.1846,-4.3211,-4.4719,-4.5818,-4.6715,-4.7714,-4.9,-4.9386,-4.9502,-4.9669,-4.9669,-4.9669,-4.9669,-4.9669,-4.9669,-4.9669,-4.996,-5.025,-5.0471,-5.0757,-5.1199,-5.1665,-5.1787,-5.188,-5.2246,-5.2246,-5.2246,-5.2246,-5.2905,-5.3545,-5.42,-5.5198,-5.6001,-5.6658,-5.7256,-5.7554,0.9778,1.1033,1.232,1.1921,1.2546,1.2445,0.9821,0.7313,0.5556,0.5457,-0.0352,-0.5488,-0.5725,-0.5736,-0.573,-0.5717,-0.5892,-0.7855,-1.3413,-1.3713,-1.3343,-1.3475,-1.3405,-1.3403,-1.3403,-1.6013,-1.7678,-1.7835,-2.0549,-2.2271,-2.2259,-2.2259,-2.2259,-2.2259,-2.2259,-2.2992,-2.4609,-2.5758,-2.691,-2.8084,-2.925,-2.9822,-2.9822,-3.0534,-3.0977,-3.0977,-3.1384,-3.1525,-3.1525,-3.1525,-3.1525,-3.1525,-3.1525,-3.1489,-3.1524,-3.1672,-3.2095,-3.2747,-3.2731,-3.2771,-3.3089,-3.5316,-3.751,-3.9259,-3.9331,-3.9308,-3.9308,-3.9308,-3.9308,-3.9308,-3.9308,-3.9308,-3.964,-4.1211,-4.22,-4.3033,-4.3567,-4.3769,-4.4157,-4.5327,-4.5958,-4.6671,-4.7881,-4.8971,-4.9669,-4.9669,-4.9669,-4.9669,-4.9669,-4.9669,-4.9669,-4.9669,-4.9669,-4.9863,-5.0346,-5.0442,-5.0632,-5.1229,-5.1229,-5.1229,-5.1229,-5.1229,-5.1229,-5.1229,-5.1323,-5.1293,-5.1293,-5.2754,-5.3427,-5.3514,-5.5603,-5.6614,1.1744,1.2702,1.3405,1.2929,1.2881,1.1807,0.7634,0.61,0.5619,0.5679,0.3718,0.0323,-0.4707,-0.5689,-0.5689,-0.568,-0.5662,-0.6421,-0.8329,-1.1726,-1.3858,-1.3402,-1.3365,-1.3403,-1.3403,-1.5147,-1.6712,-1.7687,-1.9604,-2.122,-2.2271,-2.2259,-2.2259,-2.2259,-2.2259,-2.3574,-2.605,-2.6196,-2.736,-2.9568,-2.9855,-2.9997,-3.0299,-3.0726,-3.1152,-3.1418,-3.1559,-3.1559,-3.1559,-3.1559,-3.1559,-3.1666,-3.1531,-3.1648,-3.1911,-3.4556,-3.5562,-3.5776,-3.5876,-3.5104,-3.4463,-3.5142,-3.6123,-3.733,-3.8874,-3.9272,-3.9345,-3.9259,-3.9308,-3.9308,-3.9308,-3.959,-4.013,-4.108,-4.1977,-4.2741,-4.3073,-4.354,-4.4021,-4.4704,-4.5679,-4.6643,-4.7755,-4.8971,-4.9669,-4.9669,-4.9669,-4.9669,-4.9669,-4.9669,-4.9669,-4.9669,-4.9669,-4.9766,-4.996,-4.996,-5.0154,-5.0632,-5.0632,-5.0822,-5.1229,-5.1229,-5.1229,-5.1229,-5.1229,-5.1449,-5.2093,-5.2513,-5.3103,-5.3679,-5.5377,-5.6159,1.4354,1.4841,1.4993,1.5347,1.4856,1.3495,1.0229,0.9618,0.8833,0.6237,0.5628,0.4158,-0.0922,-0.1613,-0.2404,-0.5173,-0.5729,-0.5713,-0.5648,-0.8267,-1.0958,-1.3186,-1.3418,-1.3458,-1.3403,-1.4288,-1.5578,-1.7696,-1.9213,-2.0691,-2.2271,-2.2259,-2.2259,-2.2259,-2.2843,-2.4301,-2.691,-2.7201,-2.8388,-3.0442,-3.0283,-3.0283,-3.0442,-3.101,-3.1418,-3.1559,-3.1559,-3.1559,-3.1559,-3.1559,-3.1559,-3.1649,-3.158,-3.2491,-3.3912,-3.6473,-3.7412,-3.7451,-3.7405,-3.6719,-3.5929,-3.5947,-3.6958,-3.8529,-3.9991,-3.9848,-3.9356,-3.9277,-3.9633,-3.9916,-3.9636,-3.9872,-4.0293,-4.0769,-4.1482,-4.2158,-4.2813,-4.3198,-4.3614,-4.419,-4.5442,-4.6559,-4.7275,-4.8729,-4.9669,-4.9669,-4.9669,-4.9669,-4.9669,-4.9669,-4.9669,-4.9669,-4.9669,-4.9669,-4.9669,-4.9669,-4.9863,-5.0154,-5.0154,-5.0346,-5.0632,-5.0632,-5.0632,-5.0632,-5.0632,-5.0981,-5.1514,-5.1636,-5.2063,-5.263,-5.402,-5.497,1.7235,1.725,1.7187,1.8853,1.8157,1.7057,1.7066,1.7015,1.4928,0.7258,0.5742,0.5489,0.5147,0.573,0.3717,-0.4006,-0.524,-0.5308,-0.5376,-0.3909,-0.5572,-1.2526,-1.3389,-1.3398,-1.3417,-1.3403,-1.4572,-1.7566,-1.9068,-2.0549,-2.2271,-2.2259,-2.2259,-2.2259,-2.387,-2.5318,-2.691,-2.8501,-2.9663,-3.0409,-3.0818,-3.0818,-3.0409,-3.126,-3.1542,-3.1559,-3.1559,-3.1559,-3.1559,-3.1559,-3.1542,-3.1597,-3.1545,-3.3993,-3.7384,-3.7445,-3.7369,-3.7374,-3.7374,-3.7374,-3.7396,-3.7406,-3.962,-4.2272,-4.2272,-4.1074,-3.9552,-3.9597,-4.0383,-4.1094,-4.0317,-4.0036,-4.0036,-4.0612,-4.0967,-4.1492,-4.268,-4.2892,-4.315,-4.3652,-4.5121,-4.6349,-4.6433,-4.8276,-4.9669,-4.9669,-4.9669,-4.9669,-4.9669,-4.9669,-4.9669,-4.9669,-4.9669,-4.9669,-4.9669,-4.9669,-4.9669,-4.9669,-4.9669,-4.9669,-4.9669,-4.9669,-4.9669,-4.9669,-4.9669,-4.9669,-4.9669,-5.0154,-5.0346,-5.0442,-5.182,-5.319,1.7731,1.8049,1.8201,1.7879,1.691,1.635,1.6999,1.7115,1.5002,0.7334,0.565,0.5587,0.5036,0.5137,0.4153,0.0628,0.0146,-0.0,-0.0514,-0.1871,-0.5603,-1.2847,-1.3599,-1.3425,-1.3417,-1.3403,-1.4788,-1.7938,-1.8198,-1.9471,-2.2133,-2.2259,-2.2259,-2.2259,-2.387,-2.5318,-2.691,-2.898,-3.0136,-3.0433,-3.0304,-3.0321,-3.0433,-3.0869,-3.1302,-3.1559,-3.1559,-3.1559,-3.1559,-3.1559,-3.1582,-3.1647,-3.1568,-3.3965,-3.7424,-3.745,-3.7427,-3.7374,-3.7374,-3.7374,-3.7396,-3.744,-3.9665,-4.2339,-4.2347,-4.2682,-4.3065,-4.2975,-4.2114,-4.1022,-4.036,-4.034,-4.0526,-4.0956,-4.1233,-4.1742,-4.268,-4.3205,-4.3493,-4.3192,-4.4816,-4.6825,-4.8546,-4.9368,-4.9669,-4.9669,-4.9669,-4.9669,-4.9669,-4.9669,-4.9669,-4.9669,-4.9669,-4.9669,-4.9669,-4.9669,-4.9669,-4.9669,-4.9669,-4.9669,-4.9669,-4.9669,-4.9669,-4.9669,-4.9669,-4.9669,-4.9669,-4.9863,-4.9863,-4.9863,-5.1359,-5.2123,2.0352,2.0743,2.0947,2.018,1.7924,1.617,1.688,1.7164,1.5897,1.1622,0.8919,0.6901,0.5273,0.5047,0.3804,0.0,-0.1344,-0.1392,-0.1821,-0.2487,-0.4349,-0.8527,-1.1601,-1.301,-1.1993,-1.2765,-1.4482,-1.6886,-1.7481,-1.9098,-2.2301,-2.2319,-2.2259,-2.2259,-2.4449,-2.6619,-2.866,-3.0045,-3.0438,-3.016,-3.0375,-3.0375,-3.0422,-3.0872,-3.1217,-3.1559,-3.1563,-3.158,-3.1559,-3.1559,-3.1618,-3.1726,-3.3482,-3.5529,-3.7401,-3.7414,-3.7374,-3.7374,-3.7374,-3.7374,-3.7374,-3.7418,-3.9376,-4.1947,-4.2899,-4.3719,-4.4251,-4.4281,-4.3458,-4.2161,-4.0642,-4.0292,-4.0317,-4.0479,-4.0727,-4.1272,-4.2296,-4.2967,-4.3649,-4.4573,-4.5972,-4.7641,-4.9397,-4.9669,-4.9669,-4.9669,-4.9669,-4.9669,-4.9669,-4.9669,-4.9669,-4.9669,-4.9669,-4.9669,-4.9669,-4.9669,-4.9669,-4.9669,-4.9669,-4.9669,-4.9669,-4.9669,-4.9669,-4.9669,-4.9669,-4.9669,-4.9669,-4.9669,-4.9669,-4.9669,-5.0449,-5.1173,2.3406,2.3752,2.3848,2.3794,1.9821,1.6129,1.6882,1.65,1.5915,1.6122,1.2404,0.8254,0.5546,0.5247,0.3341,-0.3097,0.0,-0.5646,-0.5629,-0.4028,-0.288,-0.2965,-0.8904,-1.2276,-1.0228,-1.2154,-1.4024,-1.5472,-1.7013,-1.9159,-2.22,-2.2253,-2.2408,-2.2558,-2.5465,-2.8053,-3.0643,-3.0835,-3.0632,-2.9887,-3.053,-3.0685,-3.0354,-3.0787,-3.1148,-3.1525,-3.1565,-3.1617,-3.1559,-3.1576,-3.1583,-3.1926,-3.5898,-3.7419,-3.7399,-3.7371,-3.7374,-3.7374,-3.7374,-3.7396,-3.7396,-3.7396,-3.9142,-4.1561,-4.3671,-4.4326,-4.4295,-4.4253,-4.4305,-4.3772,-4.1328,-4.0406,-4.0078,-3.9965,-4.0103,-4.0612,-4.1778,-4.2622,-4.4086,-4.6823,-4.7729,-4.8362,-4.9455,-4.9669,-4.9669,-4.9669,-4.9669,-4.9669,-4.9669,-4.9669,-4.9669,-4.9669,-4.9669,-4.9669,-4.9669,-4.9669,-4.9669,-4.9669,-4.9669,-4.9669,-4.9669,-4.9669,-4.9669,-4.9669,-4.9669,-4.9669,-4.9669,-4.9669,-4.9669,-4.9669,-4.9669,-5.0383,2.3816,2.3728,2.3812,2.3782,1.9811,1.5967,1.612,1.2917,1.0191,1.0746,0.8796,0.6593,0.5519,0.5363,0.5061,0.3951,-0.1599,-0.5625,-0.5676,-0.4015,-0.2972,-0.2816,-0.756,-1.0814,-1.0583,-1.2415,-1.418,-1.5811,-1.7093,-1.8534,-2.0342,-2.1639,-2.2843,-2.4166,-2.589,-2.7644,-2.9103,-3.0015,-3.0242,-2.9952,-2.9628,-2.9932,-3.0378,-3.0361,-3.0392,-3.0684,-3.1316,-3.1666,-3.1576,-3.1628,-3.1668,-3.1997,-3.591,-3.7424,-3.7427,-3.7418,-3.7374,-3.7374,-3.7374,-3.744,-3.7384,-3.7451,-3.9129,-4.1545,-4.3649,-4.4352,-4.4247,-4.4299,-4.4304,-4.416,-4.3747,-4.2494,-4.1184,-4.0618,-4.0478,-4.0856,-4.1842,-4.3651,-4.5669,-4.7584,-4.8013,-4.8362,-4.9455,-4.9669,-4.9669,-4.9669,-4.9669,-4.9669,-4.9669,-4.9669,-4.9669,-4.9669,-4.9669,-4.9669,-4.9669,-4.9669,-4.9669,-4.9669,-4.9669,-4.9669,-4.9669,-4.9669,-4.9669,-4.9669,-4.9669,-4.9669,-4.9669,-4.9669,-4.9669,-4.9669,-4.9669,-4.9863,2.3944,2.3848,2.3143,2.0344,1.7864,1.5964,1.5963,1.2449,0.9277,0.9454,0.8738,0.7586,0.6202,0.5624,0.5443,0.5567,-0.0793,-0.5405,-0.4413,-0.3464,-0.2864,-0.2849,-0.7216,-0.9923,-0.9459,-1.1896,-1.3811,-1.4548,-1.5926,-1.7752,-2.005,-2.1557,-2.2992,-2.4609,-2.605,-2.7416,-2.8711,-2.9876,-3.0208,-2.9919,-2.9662,-2.9813,-3.0172,-3.0155,-3.0412,-3.0937,-3.0544,-3.0852,-3.1559,-3.158,-3.1166,-3.091,-3.5567,-3.7445,-3.7414,-3.7414,-3.7427,-3.7374,-3.7374,-3.734,-3.7802,-4.0243,-4.1766,-4.2942,-4.3989,-4.4304,-4.4347,-4.4347,-4.435,-4.4328,-4.428,-4.3649,-4.2589,-4.0994,-4.0927,-4.1727,-4.3028,-4.4927,-4.6783,-4.8211,-4.8751,-4.9029,-4.964,-4.9669,-4.9669,-4.9669,-4.9766,-4.9892,-4.9892,-4.999,-5.0086,-4.9892,-4.9892,-4.999,-5.0086,-5.0086,-5.0086,-4.9892,-4.9892,-4.9892,-4.9669,-4.9669,-4.9669,-4.9669,-4.9669,-4.9669,-4.9669,-4.9669,-4.9766,-4.9892,-4.9766,-4.9766,2.3806,2.275,2.0617,1.6949,1.5959,1.5991,1.6024,1.2804,0.9923,0.9841,0.9649,0.8818,0.6605,0.5821,0.551,0.0,0.0598,-0.3122,-0.3159,-0.2627,-0.2448,-0.2866,-0.6533,-0.8722,-0.8173,-1.1113,-1.3023,-1.3498,-1.5116,-1.7306,-2.0064,-2.1673,-2.293,-2.3961,-2.5932,-2.7271,-2.8013,-2.96,-3.0225,-2.98,-2.9781,-2.9864,-3.0169,-3.0001,-3.0582,-3.1478,-3.0307,-3.0459,-3.1597,-3.1652,-3.0703,-2.9744,-3.3936,-3.5658,-3.5832,-3.6976,-3.7385,-3.7349,-3.734,-3.7362,-3.8221,-4.2824,-4.4328,-4.4253,-4.4354,-4.4253,-4.4347,-4.4347,-4.4347,-4.4299,-4.4253,-4.4328,-4.3746,-4.1612,-4.171,-4.2713,-4.4256,-4.5949,-4.7488,-4.8696,-4.9277,-4.9669,-4.9669,-4.9766,-4.9766,-4.9766,-4.999,-5.0183,-5.0183,-5.0405,-5.0405,-5.0279,-5.0183,-5.0279,-5.0501,-5.0501,-5.0405,-5.0183,-4.9969,-4.9844,-4.9766,-4.9553,-4.9553,-4.9669,-4.9766,-4.9766,-4.9669,-4.9766,-4.999,-5.0086,-4.999,-4.999,2.3058,1.9173,1.4579,1.5771,1.5991,1.5937,1.5981,1.2894,1.007,1.0842,1.0176,0.8708,0.5975,0.5688,0.58,0.5764,0.5541,0.3036,-0.3269,-0.1844,-0.08,-0.2664,-0.4834,-0.676,-0.8269,-1.017,-1.2032,-1.364,-1.6178,-1.8266,-1.9771,-2.1682,-2.2457,-2.2305,-2.5294,-2.6632,-2.6047,-2.8923,-3.0087,-2.9419,-2.9384,-2.9577,-3.0055,-2.9563,-3.0136,-3.1666,-3.1456,-3.1477,-3.16,-3.1618,-3.0753,-2.9402,-2.9795,-3.0049,-3.0665,-3.5534,-3.7423,-3.7441,-3.7378,-3.7371,-3.8187,-4.282,-4.4278,-4.4302,-4.4275,-4.4323,-4.4347,-4.4347,-4.4347,-4.4347,-4.4323,-4.4323,-4.4034,-4.2808,-4.2885,-4.3438,-4.4401,-4.5924,-4.7559,-4.8681,-4.9277,-4.9669,-4.9669,-4.9892,-5.0086,-5.0086,-5.0279,-5.0501,-5.0501,-5.0501,-5.0567,-5.0728,-5.0567,-5.0501,-5.0501,-5.0501,-5.0501,-5.0501,-4.953,-4.928,-5.0057,-4.9049,-4.8924,-4.9669,-4.999,-4.999,-4.9669,-5.0183,-5.0309,-5.0086,-5.0309,-5.0309,1.787,1.6664,1.5108,1.5835,1.6038,1.5439,1.3474,1.1466,1.0027,1.0553,1.0043,0.8887,0.6963,0.6032,0.5638,0.5792,0.6109,0.4814,0.0596,0.0523,0.0288,-0.1459,-0.3585,-0.5474,-0.6485,-0.927,-1.179,-1.3552,-1.5498,-1.7205,-1.8379,-2.0858,-2.2188,-2.2036,-2.516,-2.6648,-2.6114,-2.8895,-3.0206,-2.9646,-2.9463,-2.9362,-2.9663,-2.9833,-3.0511,-3.1565,-3.1665,-3.1612,-3.151,-3.0634,-2.9918,-2.9325,-2.9274,-2.9865,-3.1006,-3.3043,-3.5396,-3.7339,-3.7399,-3.9175,-4.1906,-4.3644,-4.4326,-4.4275,-4.4323,-4.4347,-4.4347,-4.4347,-4.4347,-4.4347,-4.4347,-4.3983,-4.3501,-4.3554,-4.31,-4.315,-4.4539,-4.5236,-4.6223,-4.8239,-4.8724,-4.9248,-5.0086,-5.0279,-5.0309,-5.0309,-5.0567,-5.0632,-5.0632,-5.0852,-5.0704,-5.01,-5.0396,-5.0484,-4.9911,-4.9881,-4.9545,-4.8661,-4.8209,-4.8085,-4.8249,-4.8394,-4.8596,-4.8924,-4.9494,-4.9766,-4.9669,-4.9892,-5.0086,-5.0309,-5.0279,-5.0471,1.4883,1.5578,1.5991,1.6048,1.5599,1.4371,1.151,1.042,0.9995,0.9958,0.9714,0.9071,0.7588,0.6581,0.5925,0.5818,0.5946,0.5344,0.333,0.2385,0.1283,-0.0436,-0.2475,-0.3929,-0.4703,-0.8607,-1.1755,-1.3472,-1.5014,-1.6319,-1.7539,-2.0032,-2.1494,-2.2036,-2.516,-2.6721,-2.6213,-2.8978,-3.0093,-2.9732,-2.9476,-2.9327,-2.9373,-2.9798,-3.0438,-3.0923,-3.085,-3.0968,-3.0767,-2.9681,-2.9327,-2.9243,-2.9325,-2.9975,-3.0963,-3.1468,-3.3312,-3.5848,-3.7022,-4.0478,-4.4323,-4.4251,-4.4275,-4.4347,-4.4347,-4.4347,-4.4347,-4.4347,-4.4347,-4.4347,-4.4347,-4.3812,-4.3623,-4.4159,-4.3727,-4.3576,-4.5148,-4.5286,-4.584,-4.8038,-4.8496,-4.8923,-5.0279,-5.0596,-5.0567,-5.0567,-5.0728,-5.0917,-5.0917,-5.0768,-5.0377,-4.9622,-4.9799,-4.9675,-4.9046,-4.8987,-4.8623,-4.7594,-4.7203,-4.7108,-4.7215,-4.7473,-4.7884,-4.8384,-4.9078,-4.9494,-4.9669,-4.9892,-5.0086,-5.0501,-5.0309,-5.0567,1.556,1.5932,1.6064,1.6048,1.4475,1.2627,1.087,1.0412,1.0083,0.9364,0.9389,0.9019,0.7373,0.7265,0.699,0.5895,0.5663,0.5131,0.3711,0.3292,0.2367,0.0259,-0.0911,-0.2036,-0.2894,-0.8019,-1.1854,-1.3479,-1.4791,-1.6129,-1.7548,-1.9075,-2.0425,-2.1895,-2.516,-2.6619,-2.5884,-2.8866,-2.9976,-2.9369,-2.9352,-2.9319,-2.9253,-2.9237,-2.934,-2.9274,-2.9274,-2.9378,-2.9261,-2.9244,-2.9325,-2.9236,-2.9295,-2.9257,-2.9579,-3.1094,-3.1608,-3.225,-3.601,-4.0479,-4.4262,-4.4266,-4.4347,-4.4347,-4.4347,-4.4347,-4.4347,-4.4347,-4.4347,-4.4347,-4.4347,-4.4347,-4.4449,-4.4882,-4.4997,-4.5238,-4.6236,-4.6408,-4.6839,-4.8509,-4.8795,-4.912,-5.0279,-5.0662,-5.0822,-5.0822,-5.1011,-5.1229,-5.1229,-5.0164,-4.9498,-4.9498,-4.8506,-4.7846,-4.7846,-4.7846,-4.7817,-4.7817,-4.6771,-4.6526,-4.7347,-4.6329,-4.6614,-4.8355,-4.8644,-4.9155,-4.9669,-5.0183,-5.0501,-5.0501,-5.0501,-5.0757,1.2986,1.3449,1.3768,1.451,1.436,1.3412,1.1199,1.076,1.0729,1.0298,0.9535,0.8612,0.772,0.7057,0.6395,0.5752,0.565,0.5479,0.5018,0.3688,0.0,0.1022,-0.1032,-0.3555,0.0,0.0,-1.0294,-1.3297,-1.386,-1.5131,-1.764,-1.8188,-1.947,-2.1895,-2.4149,-2.5423,-2.5763,-2.7787,-2.9043,-2.9248,-2.9288,-2.9265,-2.9322,-2.9274,-2.9311,-2.9245,-2.9294,-2.9274,-2.9321,-2.9321,-2.9257,-2.926,-2.9312,-2.9885,-3.0995,-3.1357,-3.1595,-3.1719,-3.3044,-3.8182,-4.4294,-4.4325,-4.4362,-4.4347,-4.4347,-4.4347,-4.4347,-4.4347,-4.4347,-4.4347,-4.4347,-4.4693,-4.5135,-4.5689,-4.5723,-4.5715,-4.6091,-4.5623,-4.5595,-4.6665,-4.7429,-4.8368,-4.964,-5.0537,-5.1105,-5.1105,-5.1105,-5.0956,-5.0135,-4.971,-4.8864,-4.7304,-4.6829,-4.662,-4.662,-4.662,-4.6354,-4.5552,-4.5166,-4.5072,-4.5364,-4.5591,-4.6291,-4.7501,-4.8153,-4.8866,-4.9669,-4.9892,-5.0086,-5.0279,-5.0947,-5.1323,1.1768,1.2447,1.2917,1.3598,1.3529,1.2998,1.1522,1.102,1.0736,1.0765,0.9674,0.8524,0.7941,0.6961,0.6036,0.5597,0.5442,0.5257,0.4593,0.3293,0.0,0.0125,-0.1788,0.0,0.0,-0.7845,-0.9521,-1.2527,-1.3118,-1.443,-1.6863,-1.7557,-1.8837,-2.1108,-2.3416,-2.4743,-2.5185,-2.707,-2.8084,-2.8388,-2.9028,-2.9352,-2.9339,-2.9307,-2.9345,-2.9325,-2.927,-2.9253,0.0,-2.9355,-2.9277,-2.9295,-2.9936,-3.0771,-3.1566,-3.16,-3.1565,-3.1731,-3.2838,-3.6688,-4.1556,-4.3636,-4.4332,-4.4347,-4.4347,-4.4347,-4.4347,-4.4347,-4.4667,-4.4938,-4.4889,-4.5184,-4.5889,-4.6491,-4.6476,-4.6422,-4.6461,-4.5892,-4.5604,-4.6276,-4.6796,-4.7661,-4.9317,-5.0124,-5.0728,-5.1105,-5.1229,-5.0803,-4.9651,-4.9169,-4.8144,-4.626,-4.5759,-4.543,-4.543,-4.543,-4.5194,-4.4425,-4.4425,-4.4425,-4.4425,-4.4884,-4.5761,-4.7119,-4.7616,-4.8538,-4.9669,-4.9766,-4.999,-5.0279,-5.1229,-5.1695,0.0,1.2311,1.2843,1.2834,1.1986,1.1289,1.168,1.086,0.0,1.0568,0.9638,0.8596,0.8004,0.688,0.5891,0.5419,0.5291,0.4583,0.2843,0.2137,0.0,0.0,-0.3092,0.0,-0.5066,-0.7361,-0.9492,-1.1231,-1.2561,-1.3981,-1.5594,-1.6995,-1.8524,-2.0024,-2.2955,-2.4314,-2.4018,-2.6299,-2.7316,-2.7041,-2.8613,-2.9433,-2.9523,-2.9286,-2.9295,-2.935,-2.935,-2.9257,-2.9278,-2.9446,-2.948,-2.9663,-3.1047,-3.1566,-3.16,-3.1565,-3.1774,-3.2349,-3.5046,-3.5953,-3.6951,-4.2449,-4.423,-4.4271,-4.4347,-4.4347,-4.4347,-4.4323,-4.5233,-4.6262,-4.5845,-4.6109,-4.6491,-4.7087,-4.7205,-4.7287,-4.7325,-4.6891,-4.6626,-4.6948,-4.6781,-4.7177,-4.912,-4.9611,-5.0028,-5.1011,-5.1075,-5.0619,-4.9498,-4.8354,-4.7247,-4.6052,-4.5016,-4.4425,-4.4425,-4.4425,-4.4425,-4.4425,-4.4425,-4.4425,-4.4425,-4.4425,-4.527,-4.7024,-4.7205,-4.8125,-4.9669,-4.999,-5.0183,-5.0501,-5.1229,-5.1787,0.9122,0.0,0.902,0.8801,0.8623,0.8606,0.0,0.8765,0.8669,0.8882,0.8078,0.7339,0.7178,0.629,0.5524,0.5488,0.5371,0.4798,0.3155,0.0877,0.0,-0.3006,-0.3242,-0.408,-0.5671,-0.7624,-0.9412,-1.1225,-1.2561,-1.3981,-1.5594,-1.6995,-1.8524,-2.0024,-2.1928,-2.3302,-2.4502,-2.5075,-2.643,-2.8733,-2.9091,-2.9921,-3.1047,-2.9797,-2.9277,-2.9277,-2.9277,-2.9312,-2.9327,-3.0632,-3.1045,-3.1064,-3.1496,-3.1548,-3.1597,-3.1634,-3.3085,-3.5086,-3.578,-3.5975,-3.6902,-4.2532,-4.4318,-4.4302,-4.4319,-4.4347,-4.4299,-4.4328,-4.5331,-4.6459,-4.7339,-4.7299,-4.6968,-4.7205,-4.756,-4.7782,-4.7351,-4.6891,-4.6428,-4.6046,-4.6886,-4.7763,-4.8296,-4.9708,-5.0917,-5.1135,-5.05,-4.9469,-4.8325,-4.7218,-4.6024,-4.4959,-4.4575,-4.4425,-4.4425,-4.4425,-4.4425,-4.4425,-4.4425,-4.4425,-4.4425,-4.4425,-4.527,-4.7024,-4.8451,-4.9281,-4.9669,-4.9766,-5.0086,-5.0501,-5.1041,-5.1911,0.6939,0.722,0.7667,0.7617,0.7509,0.7521,0.7779,0.7775,0.7928,0.826,0.7506,0.6742,0.677,0.6047,0.5322,0.5366,0.5344,0.4614,0.2711,0.0511,-0.1709,-0.3629,-0.349,-0.3856,0.0,-0.755,-0.9388,-1.0393,-1.2229,-1.3693,-1.4579,-1.6013,-1.7408,-1.8932,-2.0188,-2.1755,-2.3492,-2.3568,-2.4396,-2.6135,-2.828,-3.0095,-3.1582,-2.9981,-2.9357,-2.9311,-2.9986,-3.0361,-3.0377,-3.1219,-3.1617,-3.1617,-3.1617,-3.1668,-3.158,-3.1565,-3.3484,-3.5993,-3.5937,-3.5975,-3.6515,-3.9455,-4.2175,-4.4294,-4.4323,-4.4278,-4.4401,-4.511,-4.6184,-4.7256,-4.7641,-4.7674,-4.7677,-4.7677,-4.7938,-4.8094,-4.778,-4.7283,-4.6708,-4.6133,-4.6463,-4.7092,-4.792,-4.8993,-5.0095,-5.1011,-5.0194,-4.9046,-4.7905,-4.68,-4.5637,-4.4481,-4.4425,-4.4425,-4.4425,-4.4425,-4.4425,-4.4425,-4.4425,-4.4425,-4.4425,-4.4425,-4.527,-4.7024,-4.8837,-4.9669,-4.9669,-4.9669,-5.0086,-5.0852,-5.1041,-5.2094,0.5532,0.65,0.7782,0.7511,0.7247,0.6987,0.7456,0.7262,0.7238,0.7658,0.7027,0.642,0.6471,0.586,0.5274,0.5203,0.4758,0.3676,0.1739,-0.0,-0.2021,-0.4285,-0.3882,0.0,-0.4674,-0.7387,-0.9226,-0.9392,-1.173,-1.3231,-1.3403,-1.4876,-1.6301,-1.7678,-1.871,-2.0339,-2.2377,-2.2299,-2.273,-2.3709,-2.7674,-3.0319,-3.1618,-3.0199,-2.9639,-2.9696,-3.1028,-3.158,-3.1548,-3.1548,-3.1565,-3.1632,-3.1632,-3.1563,-3.1599,-3.2122,-3.3863,-3.5976,-3.5938,-3.6071,-3.5984,-3.5962,-3.9713,-4.4318,-4.435,-4.4646,-4.5085,-4.6284,-4.7376,-4.804,-4.7519,-4.7821,-4.8172,-4.8172,-4.8172,-4.8172,-4.8172,-4.7728,-4.7179,-4.6708,-4.6166,-4.6301,-4.7604,-4.805,-4.8766,-5.0484,-4.9828,-4.8805,-4.7666,-4.6591,-4.543,-4.4453,-4.4425,-4.4425,-4.4425,-4.4425,-4.4425,-4.4425,-4.4425,-4.4425,-4.4425,-4.4687,-4.5562,-4.7119,-4.8837,-4.9669,-4.9669,-4.9766,-5.025,-5.1229,-5.1323,-5.2336,0.6182,0.7133,0.7658,0.6793,0.5816,0.5417,0.6472,0.5882,0.5304,0.5473,0.5349,0.5267,0.5466,0.532,0.5268,0.5272,0.2649,0.0512,0.028,-0.2295,-0.4217,-0.4607,0.0,-0.4473,-0.4703,-0.655,-0.8223,-0.9392,-1.0893,-1.2229,-1.3403,-1.4876,-1.6301,-1.7678,-1.8737,-2.0429,-2.2971,-2.25,-2.4932,-3.021,-3.0899,-3.1418,-3.1618,-3.1306,-3.1254,-3.1271,-3.1461,-3.1652,-3.1548,-3.1548,-3.1583,-3.1618,-3.1618,-3.167,-3.1931,-3.4418,-3.564,-3.5976,-3.5938,-3.5976,-3.5995,-3.5984,-3.9779,-4.43,-4.4308,-4.5894,-4.7632,-4.7854,-4.8117,-4.8158,-4.8016,-4.8172,-4.8172,-4.8172,-4.8172,-4.8172,-4.8172,-4.7728,-4.731,-4.7231,-4.707,-4.7028,-4.724,-4.8432,-4.9115,-4.847,-4.818,-4.7666,-4.6469,-4.5373,-4.4603,-4.4425,-4.4425,-4.4425,-4.4425,-4.4425,-4.4425,-4.4425,-4.4425,-4.4425,-4.4425,-4.5884,-4.6852,-4.7119,-4.8837,-4.9669,-4.9669,-5.0183,-5.0662,-5.1229,-5.1695,-5.3051,0.5579,0.6273,0.7034,0.775,0.7102,0.6498,0.7662,0.6724,0.5612,0.577,0.5746,0.5595,0.5078,0.5116,0.5209,0.5334,0.3171,0.0788,-0.0862,-0.2023,-0.3378,0.0,0.0,-0.4141,-0.5023,-0.6218,-0.7722,-0.9226,-1.0721,-1.2056,-1.3403,-1.3981,-1.5147,-1.7013,-1.6466,-1.816,-2.2686,-2.2992,-2.4263,-2.6659,-2.9937,-3.2031,-3.2701,-3.2017,-3.165,-3.1563,-3.1563,-3.1563,-3.1545,-3.0703,-3.036,-3.0377,-3.1219,-3.1647,-3.2022,-3.4873,-3.6051,-3.5995,-3.6051,-3.6014,-3.5957,-3.5949,-3.7681,-4.0634,-4.5001,-4.7319,-4.821,-4.8172,-4.8264,-4.8212,-4.8224,-4.8172,-4.8172,-4.8172,-4.8172,-4.8172,-4.8172,-4.7989,-4.7702,-4.7388,-4.7344,-4.7291,-4.7163,-4.8284,-4.8895,-4.8024,-4.7845,-4.7398,-4.6232,-4.5044,-4.4425,-4.4425,-4.4425,-4.4425,-4.4425,-4.4425,-4.4425,-4.4425,-4.4425,-4.4425,-4.4425,-4.6244,-4.7215,-4.7148,-4.8934,-4.9863,-4.9669,-5.0183,-5.0757,-5.1229,-5.2185,-5.3632,0.5395,0.6149,0.717,0.9328,0.8698,0.7814,0.9211,0.7842,0.6494,0.6667,0.6655,0.6266,0.5354,0.5138,0.521,0.5262,0.3495,0.1221,-0.1043,-0.1831,-0.2896,-0.5089,-0.4381,-0.4046,-0.5349,-0.6053,-0.7052,-0.8725,-1.0226,-1.1558,-1.2899,-1.3231,-1.4288,-1.6334,-1.4415,-1.6258,-2.2245,-2.3328,-2.3322,-2.2385,-2.7114,-3.0977,-3.3757,-3.1946,-3.1114,-3.1094,-3.1094,-3.1059,-3.0972,-2.98,-2.931,-2.9462,-3.0597,-3.1425,-3.2308,-3.4522,-3.5435,-3.5426,-3.5924,-3.6048,-3.5995,-3.5949,-3.6053,-3.7487,-4.5719,-4.8186,-4.8184,-4.8133,-4.8172,-4.8172,-4.8172,-4.8172,-4.8172,-4.8172,-4.8172,-4.8172,-4.8172,-4.8172,-4.8041,-4.7623,-4.744,-4.7249,-4.7213,-4.7859,-4.8089,-4.7461,-4.7241,-4.687,-4.5844,-4.4987,-4.4425,-4.4425,-4.4425,-4.4425,-4.4425,-4.4425,-4.4425,-4.4425,-4.4425,-4.4425,-4.4425,-4.6101,-4.7042,-4.7119,-4.8818,-4.9747,-4.9766,-5.0375,-5.0852,-5.1229,-5.2754,-5.4115,0.6884,0.8094,0.9062,1.1285,0.9492,0.7685,0.9921,0.8665,0.7156,0.7386,0.739,0.7175,0.6374,0.5613,0.5014,0.4974,0.221,-0.0151,-0.0164,-0.298,-0.5127,-0.533,-0.5333,-0.5346,-0.5382,-0.5384,-0.6053,-0.7387,-0.8725,-1.006,-1.1392,-1.2727,-1.4317,-1.6266,-1.4501,-1.6333,-2.2217,-2.3372,-2.3292,-2.2337,-2.2739,-2.6743,-3.3688,-3.0839,-2.9512,-2.9443,-2.9443,-2.9429,-2.9446,-2.9295,-2.9278,-2.9261,-2.941,-3.0981,-3.3293,-3.3557,-3.3519,-3.3858,-3.5448,-3.5958,-3.5969,-3.5949,-3.5982,-3.755,-4.5731,-4.8197,-4.8184,-4.8133,-4.8172,-4.8172,-4.8172,-4.8172,-4.8172,-4.8172,-4.8172,-4.8172,-4.8172,-4.8172,-4.8172,-4.812,-4.7702,-4.731,-4.7319,-4.6906,-4.6276,-4.5668,-4.5568,-4.5261,-4.4621,-4.4425,-4.4425,-4.4425,-4.4425,-4.4425,-4.4425,-4.4425,-4.4425,-4.4425,-4.4425,-4.4425,-4.4425,-4.5327,-4.6329,-4.7376,-4.8163,-4.9021,-5.0086,-5.0852,-5.1135,-5.1199,-5.3108,-5.4401,0.6216,0.8117,1.0017,1.0691,1.0314,1.0012,1.1087,0.9942,0.8844,0.9515,0.9008,0.8148,0.6802,0.6228,0.582,0.5478,0.2261,-0.0,0.0335,-0.2688,-0.5046,-0.5046,-0.471,-0.471,-0.5384,-0.5216,-0.5714,-0.7219,-0.8725,-0.9888,-1.0882,-1.2561,-1.3679,-1.4549,-1.3872,-1.6501,-2.3104,-2.3022,-2.2645,-2.2298,-2.1606,-2.472,-3.0961,-2.9885,-2.9228,-2.926,-2.926,-2.9325,-2.9355,-2.9355,-2.9304,-2.9499,-3.1172,-3.2542,-3.3379,-3.3463,-3.3392,-3.3455,-3.4128,-3.442,-3.4506,-3.5658,-3.5972,-3.7171,-4.3828,-4.6932,-4.8184,-4.8133,-4.8172,-4.8172,-4.8172,-4.8172,-4.8172,-4.8172,-4.8172,-4.8172,-4.8172,-4.8172,-4.8172,-4.8172,-4.8015,-4.7754,-4.7388,-4.7344,-4.6937,-4.5605,-4.5619,-4.5431,-4.4535,-4.4399,-4.4425,-4.4425,-4.4425,-4.4425,-4.4425,-4.4425,-4.4425,-4.4425,-4.4425,-4.4425,-4.4425,-4.5364,-4.6367,-4.7376,-4.8391,-4.9222,-5.0086,-5.0852,-5.1323,-5.1479,-5.3742,-5.5084,0.6317,0.8062,0.9888,1.0099,1.0625,1.1222,1.1482,1.0462,0.9856,1.0836,1.0082,0.8806,0.7675,0.7212,0.649,0.5259,0.2376,0.0168,-0.0336,-0.3026,-0.4878,-0.4878,-0.471,-0.471,-0.5384,-0.5048,-0.5382,-0.6721,-0.8219,-0.9216,-0.9873,-1.2056,-1.3356,-1.3418,-1.3394,-1.6616,-2.3259,-2.2361,-2.1786,-2.182,-2.1019,-2.2717,-2.6618,-2.8402,-2.9294,-2.9316,-2.9316,-2.9333,-2.935,-2.9316,-2.9822,-3.075,-3.263,-3.3436,-3.3467,-3.333,-3.3428,-3.3367,-3.3367,-3.345,-3.3666,-3.4844,-3.5581,-3.7086,-4.266,-4.6069,-4.8231,-4.8212,-4.8172,-4.8172,-4.8172,-4.8172,-4.8172,-4.8172,-4.8172,-4.8172,-4.8172,-4.8172,-4.8172,-4.8172,-4.8172,-4.8068,-4.7418,-4.7273,-4.6778,-4.5503,-4.5528,-4.5403,-4.4732,-4.4829,-4.4931,-4.4734,-4.4537,-4.4425,-4.4425,-4.4425,-4.4425,-4.4425,-4.4425,-4.4425,-4.4425,-4.5166,-4.6167,-4.7536,-4.8188,-4.9114,-5.0346,-5.0917,-5.1386,-5.1757,-5.3828,-5.5215,0.7658,0.8122,0.8717,0.9786,1.0634,1.0957,1.0536,1.0232,1.0161,1.0689,0.9981,0.9351,0.9166,0.8518,0.7019,0.4285,0.2385,0.0335,-0.2352,-0.4204,-0.5384,-0.5384,-0.5384,-0.5384,-0.5384,-0.5384,-0.5384,-0.5384,-0.7048,-0.804,-0.804,-1.1386,-1.3329,-1.3349,-1.3367,-1.6196,-2.2188,-2.1233,-2.0715,-2.0733,-2.0733,-2.0714,-2.0859,-2.6651,-2.9274,-2.9316,-2.9316,-2.935,-2.9287,-2.935,-3.0894,-3.3373,-3.3392,-3.3456,-3.3418,-3.3418,-3.3418,-3.3418,-3.3418,-3.3378,-3.3373,-3.3392,-3.4615,-3.6985,-4.2497,-4.6069,-4.8268,-4.8224,-4.8172,-4.8172,-4.8172,-4.8172,-4.8172,-4.8172,-4.8172,-4.8172,-4.8172,-4.8172,-4.8172,-4.8172,-4.8172,-4.7938,-4.7324,-4.6273,-4.5481,-4.5362,-4.4849,-4.4756,-4.5196,-4.5924,-4.6055,-4.5408,-4.479,-4.4425,-4.4425,-4.4425,-4.4425,-4.4425,-4.4425,-4.4425,-4.4425,-4.4425,-4.543,-4.7788,-4.7565,-4.8581,-5.0793,-5.1105,-5.1386,-5.1941,-5.3284,-5.4704,0.7649,0.9312,1.0724,1.0241,1.0928,1.153,1.068,1.1201,1.1962,1.2144,1.1968,1.1047,0.8882,0.8342,0.6949,0.3695,0.1583,-0.0168,-0.2016,-0.37,-0.4878,-0.4878,-0.4878,-0.5046,-0.5384,-0.5384,-0.5382,-0.5371,-0.7041,-0.7527,-0.634,-1.0782,-1.3391,-1.3343,-1.2999,-1.5863,-2.2217,-2.1284,-2.0756,-2.0635,-2.0635,-2.0695,-2.0859,-2.6672,-2.9294,-2.9316,-2.9236,-2.9236,-2.9333,-2.9344,-2.9795,-3.0699,-3.2573,-3.3359,-3.3418,-3.3418,-3.3418,-3.3418,-3.3418,-3.335,-3.3339,-3.3444,-3.3691,-3.4689,-3.7541,-4.3068,-4.8205,-4.8212,-4.8172,-4.8172,-4.8172,-4.8172,-4.8172,-4.8172,-4.8172,-4.8172,-4.8172,-4.8172,-4.8172,-4.8172,-4.8172,-4.7938,-4.7324,-4.6603,-4.583,-4.5415,-4.5132,-4.5287,-4.5907,-4.5971,-4.5874,-4.5707,-4.5511,-4.5399,-4.5399,-4.5036,-4.4881,-4.5043,-4.4461,-4.4209,-4.4425,-4.4425,-4.543,-4.7788,-4.7724,-4.8741,-5.0793,-5.1105,-5.1416,-5.1757,-5.3253,-5.4672,0.7818,0.924,1.0578,1.0288,1.0822,1.1423,1.1421,1.174,1.1944,1.1959,1.189,1.1371,0.9511,0.8898,0.742,0.3424,0.1456,-0.0336,-0.3024,-0.4372,-0.5046,-0.5046,-0.5046,-0.5048,-0.5384,-0.5384,-0.5379,-0.5365,-0.6363,-0.6516,-0.5496,-1.041,-1.3315,-1.3085,-1.2718,-1.5684,-2.2275,-2.1207,-2.0734,-2.0665,-2.0665,-2.0658,-2.0959,-2.6645,-2.9361,-2.9316,-2.8723,-2.8723,-2.9299,-2.9327,-2.9302,-2.9567,-3.235,-3.3339,-3.3418,-3.3418,-3.3418,-3.3418,-3.3418,-3.3418,-3.3457,-3.3398,-3.3398,-3.4346,-3.9355,-4.4597,-4.8811,-4.8355,-4.8315,-4.8431,-4.8198,-4.8172,-4.8172,-4.8172,-4.8172,-4.8172,-4.8172,-4.8172,-4.8172,-4.8172,-4.8172,-4.7938,-4.6968,-4.679,-4.64,-4.5445,-4.5679,-4.6169,-4.6417,-4.6125,-4.5761,-4.5663,-4.5539,-4.5609,-4.5832,-4.5651,-4.5621,-4.5785,-4.5352,-4.5222,-4.544,-4.4772,-4.543,-4.7788,-4.7817,-4.8834,-5.0917,-5.1105,-5.1386,-5.1757,-5.2843,-5.4337,0.8063,0.8452,0.9168,0.9965,1.0425,1.1002,1.2319,1.1564,1.0737,1.0904,1.0737,1.0737,1.057,0.9903,0.7885,0.3348,0.1675,-0.0503,-0.4878,-0.5384,-0.5384,-0.5384,-0.5384,-0.5384,-0.5384,-0.5384,-0.5379,-0.5363,-0.5354,-0.5674,-0.6155,-1.0727,-1.3085,-1.2448,-1.2494,-1.5624,-2.2239,-2.1293,-2.0746,-2.0702,-2.0678,-2.0707,-2.0947,-2.6691,-2.9361,-2.9168,-2.79,-2.8212,-2.9499,-2.9395,-2.9371,-2.9766,-3.2426,-3.3378,-3.3437,-3.3418,-3.3418,-3.3418,-3.3418,-3.3418,-3.3418,-3.3418,-3.3359,-3.5167,-4.5037,-4.8946,-4.9718,-4.846,-4.8458,-4.8716,-4.8315,-4.8172,-4.8172,-4.8172,-4.8172,-4.8172,-4.8172,-4.8172,-4.8172,-4.8172,-4.8055,-4.7703,-4.6371,-4.6652,-4.6618,-4.5582,-4.6383,-4.7097,-4.6891,-4.625,-4.569,-4.5492,-4.5246,-4.5358,-4.5789,-4.6168,-4.6461,-4.6724,-4.6668,-4.6832,-4.7148,-4.5562,-4.5694,-4.7963,-4.8086,-4.9198,-5.1503,-5.1503,-5.166,-5.2123,-5.2581,-5.3907,0.8803,0.949,1.0005,0.9894,1.0084,1.0481,1.102,1.0904,1.1065,1.2056,1.1397,1.057,0.9736,0.9407,0.7387,0.2345,-0.0,-0.2183,-0.5046,-0.5384,-0.5384,-0.5384,-0.5384,-0.5384,-0.5384,-0.5384,-0.5376,-0.5354,-0.5352,-0.7157,-1.1388,-1.2754,-1.3102,-1.2463,-1.2494,-1.5707,-2.2186,-2.123,-2.0673,-2.0662,-2.0762,-2.0646,-2.0921,-2.663,-2.9361,-2.9316,-2.9006,-2.959,-3.0893,-2.9785,-2.9996,-3.115,-3.2725,-3.3456,-3.3359,-3.335,-3.3418,-3.3418,-3.3418,-3.3418,-3.3418,-3.334,-3.3395,-3.5047,-4.3964,-4.7872,-4.9114,-4.8446,-4.8431,-4.869,-4.8548,-4.8431,-4.8172,-4.8172,-4.8172,-4.8172,-4.8172,-4.8172,-4.8055,-4.756,-4.7442,-4.6968,-4.5768,-4.5668,-4.5867,-4.6202,-4.6434,-4.6632,-4.7035,-4.6023,-4.5266,-4.5166,-4.5696,-4.6072,-4.5981,-4.6584,-4.7081,-4.7052,-4.6825,-4.6832,-4.7148,-4.67,-4.7577,-4.9875,-4.9904,-5.103,-5.336,-5.336,-5.3455,-5.355,-5.3802,-5.4543,0.88,0.9116,0.9478,0.9728,1.0115,1.0404,1.057,1.0737,1.0904,1.1564,1.1231,1.057,1.007,0.9407,0.7725,0.3854,0.0335,-0.2688,-0.5046,-0.5384,-0.5384,-0.5384,-0.5384,-0.5384,-0.5384,-0.5379,-0.5368,-0.5352,-0.7825,-1.0436,-1.318,-1.313,-1.4275,-1.7105,-1.7241,-1.8864,-2.2323,-2.1546,-2.1007,-2.0733,-2.0635,-2.2199,-2.4975,-2.7979,-2.9321,-2.9304,-3.0014,-2.9121,-2.7322,-2.6534,-2.8279,-3.1457,-3.1465,-3.219,-3.3405,-3.3417,-3.3408,-3.3418,-3.3418,-3.3418,-3.3418,-3.3446,-3.3789,-3.5869,-4.3892,-4.6958,-4.7873,-4.8081,-4.8431,-4.8663,-4.8895,-4.8779,-4.8663,-4.8431,-4.8315,-4.8172,-4.8172,-4.8172,-4.8055,-4.7324,-4.7205,-4.6849,-4.5525,-4.5654,-4.6142,-4.6941,-4.691,-4.6671,-4.6587,-4.5481,-4.4628,-4.4529,-4.5276,-4.5972,-4.6349,-4.7131,-4.78,-4.8198,-4.8011,-4.8035,-4.8297,-4.8297,-4.8972,-5.0478,-5.0508,-5.1637,-5.3975,-5.3975,-5.388,-5.3784,-5.4135,-5.4823,0.8648,0.8583,0.8806,0.9745,1.0138,1.0377,1.0398,1.0404,1.0404,1.0404,1.057,1.0737,1.0742,0.9913,0.8236,0.5198,0.1007,-0.269,-0.5046,-0.5384,-0.5384,-0.5384,-0.5384,-0.5384,-0.5384,-0.5371,-0.536,-0.5349,-1.0282,-1.3193,-1.3301,-1.2715,-1.5293,-2.1313,-2.2,-2.2313,-2.2299,-2.1704,-2.121,-2.0663,-2.0635,-2.3171,-2.7794,-2.7785,-2.829,-2.9057,-3.0704,-2.8162,-2.2946,-2.2924,-2.562,-2.9795,-2.8627,-2.9743,-3.2115,-3.3039,-3.3417,-3.3418,-3.3398,-3.3398,-3.3379,-3.3407,-3.4881,-3.7833,-4.3649,-4.576,-4.6535,-4.7717,-4.8289,-4.8637,-4.8895,-4.901,-4.901,-4.8663,-4.8431,-4.8172,-4.8172,-4.8055,-4.7938,-4.7205,-4.6849,-4.6465,-4.5401,-4.6013,-4.6774,-4.7081,-4.7031,-4.6686,-4.5776,-4.4676,-4.3901,-4.3704,-4.4447,-4.5348,-4.6428,-4.7472,-4.8368,-4.9207,-4.9305,-4.9502,-4.9669,-4.9669,-5.0048,-5.0928,-5.0928,-5.2187,-5.4531,-5.4531,-5.4339,-5.4147,-5.4374,-5.507,0.8931,0.8974,0.917,0.975,0.9583,0.9453,0.955,0.9569,0.9569,0.9569,1.0237,1.0742,1.0759,1.0608,0.8751,0.3187,-0.0504,-0.3197,-0.5216,-0.5384,-0.5384,-0.5384,-0.5384,-0.5384,-0.5384,-0.5368,-0.5354,-0.5343,-0.9932,-1.2625,-1.2635,-1.2489,-1.4251,-1.7913,-2.0888,-2.2246,-2.2241,-2.1788,-2.1294,-2.0767,-2.0738,-2.1096,-2.1823,-2.1793,-2.3855,-2.7554,-3.0275,-2.8212,-2.291,-2.2848,-2.3295,-2.4082,-2.3876,-2.4788,-2.6825,-3.1635,-3.3456,-3.3418,-3.3466,-3.3426,-3.3407,-3.3375,-3.7342,-4.1962,-4.1696,-4.3866,-4.655,-4.7195,-4.7912,-4.8637,-4.8637,-4.8868,-4.901,-4.8431,-4.8172,-4.8172,-4.7821,-4.7821,-4.7468,-4.6661,-4.5696,-4.5037,-4.4716,-4.5873,-4.6614,-4.5473,-4.5989,-4.6041,-4.4941,-4.3752,-4.3106,-4.3009,-4.3819,-4.4716,-4.5619,-4.6926,-4.8013,-4.8881,-4.9404,-4.9669,-4.9669,-4.9669,-5.0652,-5.2845,-5.2875,-5.402,-5.6388,-5.6388,-5.6291,-5.5999,-5.5804,-5.5969,0.8945,0.9226,0.9671,0.9641,0.9764,0.984,0.9788,0.9647,0.9662,0.9726,1.0029,1.0154,1.0164,0.8833,0.7501,0.6836,0.0666,-0.4514,-0.5216,-0.5387,-0.5384,-0.5384,-0.5384,-0.5885,-0.7227,-0.8052,-0.9188,-1.0947,-1.297,-1.3953,-1.3137,-1.2671,-1.4431,-1.8581,-1.9842,-2.0989,-2.2126,-2.1691,-2.1174,-2.0709,-2.069,-2.0658,-2.0723,-2.0634,-2.145,-2.2736,-2.3999,-2.3897,-2.2937,-2.2875,-2.2917,-2.2902,-2.2863,-2.325,-2.4672,-3.1014,-3.3398,-3.3359,-3.3369,-3.3836,-3.4483,-3.4487,-3.8363,-4.3046,-4.302,-4.423,-4.591,-4.6959,-4.7442,-4.7912,-4.8289,-4.8548,-4.8548,-4.8055,-4.7938,-4.7821,-4.7257,-4.7349,-4.7129,-4.6018,-4.5002,-4.4108,-4.4101,-4.513,-4.5655,-4.5072,-4.52,-4.515,-4.4678,-4.3642,-4.29,-4.29,-4.3514,-4.4508,-4.5804,-4.6813,-4.7928,-4.9248,-4.9571,-4.9669,-4.9669,-4.9669,-5.0837,-5.3114,-5.3241,-5.4389,-5.6761,-5.6761,-5.6664,-5.6372,-5.6342,-5.6537,0.854,0.876,0.8972,0.9153,0.947,0.9756,0.9617,0.9692,0.9727,0.9838,0.9642,0.9264,0.8432,0.7439,0.679,0.7154,0.0498,-0.4838,-0.5549,-0.5555,-0.5552,-0.5552,-0.6053,-0.6888,-0.8729,-1.0226,-1.2351,-1.521,-1.5337,-1.4812,-1.3833,-1.3198,-1.479,-1.9067,-1.8957,-1.9736,-2.1776,-2.151,-2.1136,-2.0665,-2.0665,-2.0683,-2.0564,-2.0453,-1.999,-1.917,-1.909,-2.0123,-2.1939,-2.2673,-2.2903,-2.2916,-2.2942,-2.2944,-2.3482,-2.8743,-3.1389,-3.2483,-3.3544,-3.4579,-3.5458,-3.5375,-3.8442,-4.2255,-4.3723,-4.4593,-4.5329,-4.6552,-4.7087,-4.7324,-4.7821,-4.8055,-4.8055,-4.7677,-4.756,-4.7416,-4.6722,-4.6671,-4.6493,-4.549,-4.4476,-4.3869,-4.3689,-4.4472,-4.4835,-4.452,-4.4583,-4.4498,-4.4235,-4.3464,-4.29,-4.29,-4.3514,-4.4606,-4.6195,-4.701,-4.8027,-4.964,-4.9669,-4.9669,-4.9669,-5.0009,-5.1111,-5.3211,-5.3488,-5.4667,-5.6761,-5.6761,-5.6664,-5.6372,-5.6634,-5.6796,0.7485,0.7064,0.6732,0.7857,0.8099,0.8414,0.8888,0.9093,0.9126,0.9231,0.893,0.7769,0.4789,0.762,0.7651,-0.0671,-0.2522,-0.353,-0.5717,-0.6053,-0.6053,-0.6053,-0.755,-0.8553,-0.8896,-1.1048,-1.3322,-1.5357,-1.4984,-1.4464,-1.4132,-1.3826,-1.4887,-1.7563,-1.7898,-1.9159,-2.1498,-2.1221,-2.0943,-2.0665,-2.0665,-2.0533,-2.0267,-1.9855,-1.9591,-1.9625,-1.9268,-1.9114,-1.9458,-2.1844,-2.2957,-2.2849,-2.2916,-2.2835,-2.2996,-2.3378,-2.6005,-3.0036,-3.3936,-3.5326,-3.5435,-3.5333,-3.7162,-3.9821,-4.206,-4.3671,-4.4895,-4.5999,-4.6755,-4.7205,-4.7205,-4.7703,-4.8055,-4.7324,-4.7205,-4.6933,-4.607,-4.5759,-4.5347,-4.4794,-4.4436,-4.4086,-4.3797,-4.4505,-4.4547,-4.3216,-4.3922,-4.4235,-4.3106,-4.29,-4.29,-4.29,-4.3904,-4.4997,-4.6195,-4.7304,-4.8419,-4.964,-4.9669,-4.9669,-4.9669,-5.0837,-5.1973,-5.3211,-5.4359,-5.5542,-5.6761,-5.6761,-5.6664,-5.6372,-5.6634,-5.6796,0.759,0.7099,0.662,0.7143,0.7567,0.7902,0.7819,0.8139,0.8211,0.7328,0.6823,0.5835,0.3589,0.6427,0.5639,-0.4493,-0.5665,-0.5674,-0.6721,-0.656,-0.656,-0.656,-0.7675,-0.9151,-1.0382,-1.1885,-1.3394,-1.5313,-1.513,-1.4939,-1.4756,-1.4392,-1.5395,-1.82,-1.8118,-1.9148,-2.1486,-2.1028,-2.0762,-2.0665,-2.0665,-2.0448,-2.0172,-1.9783,-1.9496,-1.9217,-1.9193,-1.9124,-1.9137,-2.0038,-2.1443,-2.2836,-2.2916,-2.2942,-2.2957,-2.2928,-2.6191,-3.0853,-3.2298,-3.2785,-3.2845,-3.2826,-3.4656,-3.7287,-4.0197,-4.2161,-4.3831,-4.531,-4.6144,-4.6636,-4.6636,-4.678,-4.69,-4.6636,-4.6636,-4.6509,-4.5834,-4.5313,-4.4769,-4.4217,-4.3701,-4.345,-4.3329,-4.3514,-4.3467,-4.3003,-4.3246,-4.3312,-4.29,-4.29,-4.323,-4.3904,-4.4318,-4.533,-4.7247,-4.7755,-4.8517,-4.964,-4.9669,-5.0067,-5.0867,-5.1297,-5.2405,-5.4359,-5.4546,-5.5323,-5.6761,-5.6761,-5.6761,-5.6664,-5.7019,-5.7275,0.7095,0.6436,0.5696,0.6147,0.6618,0.7151,0.7291,0.7819,0.7689,0.6397,0.5131,0.4003,0.3241,0.3927,0.2141,-0.5297,-0.6314,-0.6343,-0.6721,-0.6895,-0.7052,-0.752,-0.8783,-1.023,-1.1746,-1.3044,-1.4191,-1.5264,-1.5309,-1.5155,-1.4976,-1.4814,-1.5888,-1.8471,-1.8988,-1.9948,-2.1486,-2.0943,-2.0665,-2.0665,-2.0665,-2.0537,-2.0026,-1.9747,-1.9448,-1.9072,-1.9072,-1.9145,-1.9172,-1.9615,-2.1022,-2.2862,-2.2889,-2.2859,-2.2969,-2.293,-2.6542,-3.1439,-3.145,-3.1377,-3.1392,-3.1392,-3.2661,-3.4656,-3.7791,-4.0186,-4.2281,-4.4314,-4.536,-4.581,-4.613,-4.6301,-4.6301,-4.6301,-4.6301,-4.615,-4.5598,-4.5196,-4.4694,-4.394,-4.34,-4.2961,-4.2982,-4.2811,-4.2709,-4.2885,-4.2922,-4.3052,-4.3436,-4.3464,-4.3904,-4.5094,-4.5511,-4.6377,-4.7909,-4.8362,-4.8942,-4.964,-5.0252,-5.074,-5.1482,-5.2218,-5.3458,-5.5013,-5.5104,-5.573,-5.6761,-5.6761,-5.6827,-5.6765,-5.7244,-5.7559,0.0,0.0,0.0,0.4966,0.5394,0.5838,0.7389,0.7757,0.7449,0.653,0.3803,0.207,0.3561,0.0325,-0.2777,-0.33,-0.4505,-0.5547,-0.6047,-0.6885,-0.7853,-0.8912,-1.0705,-1.1956,-1.2615,-1.4373,-1.5423,-1.5252,-1.5236,-1.5155,-1.4976,-1.4968,-1.6186,-1.8471,-2.0596,-2.1623,-2.1474,-2.0943,-2.0665,-2.0665,-2.0665,-2.04,-1.9881,-1.9881,-1.9591,-1.9072,-1.9072,-1.9072,-1.912,-2.0441,-2.1687,-2.2924,-2.2835,-2.2859,-2.2846,-2.2917,-2.6414,-3.1149,-3.1348,-3.1395,-3.1431,-3.1431,-3.1439,-3.1911,-3.4835,-3.767,-4.0522,-4.3017,-4.4196,-4.4738,-4.603,-4.6301,-4.6301,-4.6301,-4.6301,-4.615,-4.5598,-4.5472,-4.5146,-4.4016,-4.3308,-4.2874,-4.2837,-4.2422,-4.2216,-4.2868,-4.29,-4.3312,-4.4498,-4.4678,-4.5094,-4.6195,-4.7304,-4.7966,-4.8093,-4.9029,-4.9669,-4.9669,-5.117,-5.1973,-5.1571,-5.3736,-5.5043,-5.5074,-5.6199,-5.6761,-5.6761,-5.6761,-5.6765,-5.6803,-5.715,-5.7684,0.5151,0.0,0.0,0.0,0.0,0.0,0.5374,0.5656,0.5313,0.3355,0.2115,0.1002,-0.0468,-0.1758,-0.2575,-0.2745,-0.4239,-0.5581,-0.6728,-0.6728,-0.688,-0.7181,-0.9537,-1.1267,-1.1474,-1.3683,-1.5155,-1.5236,-1.5114,-1.5017,-1.4968,-1.5888,-1.7102,-1.8916,-1.9735,-2.0791,-2.1882,-2.1072,-2.0665,-2.0665,-2.0665,-2.04,-1.9881,-1.9881,-1.9591,-1.9072,-1.9072,-1.8816,-1.8466,-1.9879,-2.1078,-2.2032,-2.2672,-2.2859,-2.2846,-2.2917,-2.3912,-2.581,-3.0014,-3.145,-3.1451,-3.1451,-3.1888,-3.2729,-3.4876,-3.7002,-3.925,-4.2345,-4.39,-4.4738,-4.603,-4.6301,-4.6301,-4.6301,-4.576,-4.5316,-4.5166,-4.4674,-4.406,-4.3622,-4.3489,-4.3339,-4.268,-4.2631,-4.295,-4.3944,-4.4111,-4.4526,-4.572,-4.5804,-4.6223,-4.7458,-4.7755,-4.8333,-4.9184,-4.9484,-4.9669,-4.9669,-5.117,-5.2591,-5.3549,-5.4449,-5.5353,-5.626,-5.6669,-5.6761,-5.6761,-5.6831,-5.6769,-5.6803,-5.7277,-5.7746,0.4846,0.3995,0.3359,0.3392,0.0,0.0,0.4912,0.5154,0.4687,0.2396,0.1867,0.0871,-0.2018,-0.2529,-0.2541,-0.2541,-0.351,-0.4663,-0.5848,-0.6178,-0.6324,-0.6287,-0.8318,-1.0188,-1.1476,-1.3056,-1.423,-1.5114,-1.5025,-1.4968,-1.4968,-1.6339,-1.7407,-1.8158,-1.8853,-1.9792,-2.1006,-2.0462,-2.0343,-2.0665,-2.0665,-2.04,-1.9881,-1.9614,-1.9184,-1.8688,-1.8302,-1.8033,-1.768,-1.8839,-2.0013,-2.1022,-2.2374,-2.2859,-2.2846,-2.2875,-2.3672,-2.5351,-2.9837,-3.1429,-3.1377,-3.1377,-3.1782,-3.2581,-3.451,-3.5891,-3.7275,-4.0666,-4.2939,-4.4664,-4.537,-4.5885,-4.6301,-4.6301,-4.593,-4.5585,-4.5585,-4.5072,-4.4432,-4.3441,-4.3539,-4.3602,-4.3122,-4.3047,-4.3594,-4.4912,-4.4816,-4.515,-4.6825,-4.7036,-4.7458,-4.8574,-4.8729,-4.9,-4.964,-4.9669,-4.9669,-4.9669,-5.1787,-5.3488,-5.4389,-5.5292,-5.6041,-5.6761,-5.6761,-5.6858,-5.7115,-5.7115,-5.718,-5.7464,-5.7684,-5.7995,0.4716,0.3761,0.3139,0.337,0.3448,0.0,0.507,0.5306,0.479,0.29,0.2398,0.1501,-0.1672,-0.2286,-0.2285,-0.2279,-0.2606,-0.3281,-0.4197,-0.5183,-0.5802,-0.589,-0.7311,-0.9174,-1.1721,-1.2326,-1.3105,-1.4653,-1.4968,-1.4968,-1.4968,-1.6339,-1.7102,-1.6806,-1.7941,-1.8896,-1.9692,-1.9305,-1.9628,-2.0479,-2.0479,-2.0078,-1.9566,-1.8898,-1.8358,-1.7905,-1.726,-1.7001,-1.6893,-1.7773,-1.868,-1.9905,-2.1778,-2.2559,-2.2722,-2.2722,-2.4588,-2.7302,-3.0027,-3.1109,-3.1377,-3.1377,-3.1377,-3.1742,-3.3962,-3.4664,-3.5276,-3.8666,-4.1918,-4.447,-4.447,-4.5395,-4.6301,-4.6301,-4.6276,-4.6225,-4.6225,-4.6055,-4.5435,-4.3382,-4.3587,-4.4036,-4.4016,-4.3833,-4.4178,-4.5915,-4.547,-4.5748,-4.7909,-4.8178,-4.8574,-4.9611,-4.9669,-4.9669,-4.9669,-4.9853,-5.0009,-4.998,-5.2897,-5.4667,-5.4637,-5.601,-5.6761,-5.6761,-5.6858,-5.7019,-5.759,-5.7556,-5.7809,-5.831,-5.8338,-5.8398,0.4945,0.3682,0.2904,0.2904,0.2904,0.0,0.3733,0.3684,0.3213,0.2429,0.214,0.1411,-0.0604,-0.0985,-0.0855,-0.0596,-0.1691,-0.2871,-0.3756,-0.4428,-0.4897,-0.5198,-0.6605,-0.7846,-0.8448,-1.0928,-1.2642,-1.2951,-1.4191,-1.4968,-1.4968,-1.5275,-1.6033,-1.7255,-1.7049,-1.7862,-2.0116,-1.8875,-1.8693,-1.9518,-1.8832,-1.8292,-1.7818,-1.7686,-1.7533,-1.713,-1.7001,-1.6742,-1.6244,-1.7784,-1.8691,-1.9078,-2.0071,-2.0747,-2.122,-2.176,-2.376,-2.6142,-2.7467,-2.9464,-3.1377,-3.1377,-3.1377,-3.1724,-3.3458,-3.432,-3.5339,-3.9104,-4.2206,-4.447,-4.447,-4.5395,-4.6301,-4.6301,-4.5735,-4.5291,-4.5291,-4.468,-4.4141,-4.3585,-4.4724,-4.5711,-4.5488,-4.5623,-4.6196,-4.7417,-4.7486,-4.7852,-4.9213,-4.9397,-4.9426,-4.9669,-4.9669,-4.9669,-4.9669,-5.0896,-5.16,-5.16,-5.4637,-5.6322,-5.6322,-5.6669,-5.6761,-5.6761,-5.6923,-5.7306,-5.7778,-5.806,-5.8153,-5.8306,-5.8274,-5.8924,0.4331,0.3057,0.2669,0.2747,0.2904,0.0,0.0,0.3905,0.3588,0.2826,0.2549,0.1929,-0.0,-0.0462,-0.0686,-0.0787,-0.1748,-0.2553,-0.307,-0.3531,-0.4086,-0.4554,-0.5335,-0.6268,-0.7357,-0.7968,-0.9186,-1.1299,-1.2838,-1.361,-1.361,-1.3685,-1.4191,-1.4952,-1.4557,-1.5328,-1.7054,-1.6113,-1.6396,-1.794,-1.7272,-1.712,-1.7356,-1.7092,-1.6702,-1.6483,-1.6364,-1.6104,-1.5854,-1.688,-1.7521,-1.8149,-1.9469,-2.0287,-2.0804,-2.1081,-2.3215,-2.5859,-2.6424,-2.8706,-3.1377,-3.1377,-3.1377,-3.1724,-3.3296,-3.4698,-3.6391,-3.9128,-4.1585,-4.3427,-4.4323,-4.5395,-4.6301,-4.6301,-4.598,-4.566,-4.566,-4.5316,-4.511,-4.5396,-4.6342,-4.6893,-4.6193,-4.656,-4.7319,-4.8436,-4.8264,-4.8391,-4.9582,-4.9669,-4.9669,-4.9669,-4.9669,-4.9912,-5.0525,-5.1326,-5.2189,-5.3211,-5.4916,-5.6133,-5.6761,-5.6761,-5.6858,-5.6923,-5.7306,-5.759,-5.7871,-5.8152,-5.8245,-5.8274,-5.8274,-5.9047,0.4039,0.2666,0.251,0.2669,0.2904,0.3251,0.0,0.0,0.0,0.345,0.3181,0.2623,0.0763,0.0107,-0.0422,-0.1148,-0.1738,-0.2159,-0.232,-0.2705,-0.3242,-0.3831,-0.4132,-0.4826,-0.6387,-0.485,-0.5622,-1.027,-1.1282,-1.1999,-1.2257,-1.2393,-1.2474,-1.2501,-1.2501,-1.2881,-1.3922,-1.3304,-1.4075,-1.599,-1.5356,-1.5602,-1.6685,-1.6022,-1.5781,-1.5844,-1.5593,-1.5463,-1.5463,-1.5974,-1.6511,-1.7349,-1.9016,-1.9965,-2.0249,-2.0388,-2.2642,-2.5531,-2.5859,-2.8245,-3.1139,-3.1341,-3.1451,-3.1865,-3.3397,-3.5143,-3.7109,-3.8821,-4.0683,-4.2369,-4.3934,-4.5296,-4.6301,-4.6301,-4.6301,-4.6301,-4.6301,-4.6301,-4.639,-4.6824,-4.7516,-4.773,-4.6894,-4.7513,-4.8309,-4.9219,-4.8775,-4.8632,-4.9611,-4.9669,-4.9824,-5.0038,-5.0067,-5.0496,-5.1727,-5.2002,-5.2838,-5.4389,-5.5043,-5.5761,-5.673,-5.6858,-5.6923,-5.7306,-5.7684,-5.7871,-5.7965,-5.8182,-5.8274,-5.8274,-5.8274,-5.8983,0.5426,0.337,0.251,0.251,0.2669,0.292,0.3217,0.0,0.3645,0.3714,0.0,0.3273,0.2267,0.0,0.0,0.0264,-0.0792,-0.1587,-0.1739,-0.1692,-0.1795,-0.2582,-0.3608,-0.3929,-0.3131,-0.2684,-0.4872,-1.0678,-1.0329,-1.0594,-1.221,-1.2291,-1.2359,-1.2501,-1.2501,-1.2881,-1.3922,-1.2714,-1.2765,-1.4006,-1.2567,-1.2597,-1.3897,-1.3486,-1.3927,-1.5062,-1.5332,-1.5463,-1.5593,-1.6244,-1.6775,-1.7193,-1.7495,-1.8046,-1.8714,-1.9401,-2.127,-2.389,-2.5383,-2.7703,-3.0137,-3.1139,-3.1884,-3.2591,-3.3536,-3.4795,-3.6307,-3.8268,-4.0283,-4.2297,-4.3492,-4.5022,-4.6301,-4.6301,-4.6301,-4.6301,-4.6301,-4.6301,-4.6301,-4.6345,-4.7267,-4.8056,-4.8409,-4.8994,-4.9484,-4.9669,-4.9611,-4.9582,-4.9669,-4.9669,-5.0096,-5.114,-5.1297,-5.1757,-5.2868,-5.3953,-5.4667,-5.4886,-5.598,-5.6669,-5.6761,-5.7019,-5.7306,-5.7778,-5.7871,-5.7965,-5.8274,-5.8274,-5.8274,-5.8274,-5.8274,-5.8972,0.4641,0.3695,0.378,0.2893,0.3531,0.421,0.3527,0.3526,0.3682,0.3765,0.0,0.0,0.0,0.0,0.0,0.0,-0.1053,-0.1364,-0.1031,-0.1169,-0.1599,-0.2451,-0.2979,-0.2707,-0.1183,-0.1436,-0.3123,-0.6484,-0.7495,-0.8823,-1.0619,-1.0818,-1.0932,-1.0986,-1.1065,-1.1231,-1.1625,-1.0806,-1.0897,-1.2156,-1.1057,-1.1212,-1.2277,-1.2949,-1.3394,-1.3744,-1.5192,-1.5844,-1.5844,-1.6494,-1.7029,-1.7453,-1.7453,-1.7876,-1.8433,-1.8703,-2.071,-2.3448,-2.4818,-2.7261,-2.9956,-3.0992,-3.1973,-3.2779,-3.3536,-3.4508,-3.6064,-3.8953,-4.041,-4.171,-4.4135,-4.5235,-4.5924,-4.6225,-4.6301,-4.6301,-4.6301,-4.6301,-4.644,-4.6678,-4.7397,-4.8164,-4.8722,-4.9252,-4.9669,-4.9669,-4.9669,-4.9912,-5.0681,-5.071,-5.114,-5.2375,-5.2435,-5.2995,-5.4141,-5.4667,-5.5292,-5.601,-5.6673,-5.6988,-5.7053,-5.737,-5.7684,-5.7871,-5.8058,-5.8182,-5.8274,-5.8274,-5.8274,-5.8274,-5.8274,-5.903,0.4746,0.419,0.4669,0.3234,0.3902,0.4736,0.3698,0.3682,0.3756,0.3732,0.3654,0.0,0.0,0.0,0.0729,-0.0789,0.0,-0.1166,-0.0539,-0.0781,-0.1392,-0.2412,-0.2133,-0.1384,-0.0123,-0.0597,-0.1731,-0.3565,-0.5522,-0.7526,-0.9421,-0.965,-0.9769,-0.9835,-0.9921,-0.997,-0.997,-0.9309,-0.9601,-1.0657,-0.9839,-1.018,-1.1186,-1.1961,-1.2388,-1.2624,-1.4548,-1.5443,-1.5574,-1.6686,-1.7346,-1.7723,-1.7798,-1.8067,-1.8433,-1.8433,-2.0436,-2.3448,-2.4549,-2.7178,-3.0355,-3.1157,-3.1813,-3.244,-3.3436,-3.4433,-3.5879,-3.9273,-4.0604,-4.155,-4.4336,-4.5246,-4.5598,-4.5999,-4.62,-4.6396,-4.6458,-4.6527,-4.6703,-4.7241,-4.7862,-4.8294,-4.8694,-4.9252,-4.9824,-5.0096,-5.0223,-5.0652,-5.1787,-5.1973,-5.2405,-5.3549,-5.3706,-5.4171,-5.5353,-5.5511,-5.5919,-5.6796,-5.7115,-5.7275,-5.7496,-5.7746,-5.7965,-5.7965,-5.8182,-5.8306,-5.8338,-5.8306,-5.8306,-5.8338,-5.8306,-5.903,0.6836,0.5069,0.467,0.3299,0.3195,0.3377,0.3511,0.3682,0.3736,0.365,0.3565,0.3042,0.1481,0.114,0.0639,-0.0746,-0.0971,0.0,0.0,-0.04,-0.0923,-0.2312,-0.1084,-0.0089,-0.0,-0.0,-0.1235,-0.3984,-0.5222,-0.6919,-0.9378,-0.9492,-0.9601,-0.9829,-0.984,-0.9845,-0.9845,-0.9267,-0.9303,-0.9487,-0.8634,-0.9088,-1.0652,-0.9956,-1.0372,-1.1993,-1.3409,-1.4119,-1.466,-1.6602,-1.7507,-1.7744,-1.7992,-1.8229,-1.8433,-1.8433,-2.0436,-2.3448,-2.4549,-2.7735,-3.1359,-3.1377,-3.1377,-3.1705,-3.3296,-3.4616,-3.6037,-3.8877,-4.0779,-4.2298,-4.3576,-4.4669,-4.5497,-4.5522,-4.5924,-4.639,-4.6953,-4.7054,-4.7214,-4.7835,-4.8452,-4.8742,-4.8845,-4.9252,-5.0096,-5.1297,-5.1482,-5.1816,-5.3025,-5.3114,-5.3646,-5.4825,-5.4886,-5.5481,-5.6669,-5.673,-5.6827,-5.7115,-5.7401,-5.759,-5.7871,-5.7871,-5.7965,-5.8274,-5.8274,-5.8245,-5.831,-5.8245,-5.8277,-5.831,-5.8338,-5.903,0.7642,0.7416,0.7578,0.5158,0.5566,0.6033,0.4108,0.3761,0.3736,0.3646,0.3187,0.2599,0.204,0.107,0.0255,-0.0,-0.0601,-0.0932,0.0,-0.0729,-0.0785,-0.0841,-0.0355,-0.0,-0.0,-0.1873,-0.3549,-0.4478,-0.5733,-0.7346,-0.9296,-0.9443,-0.9525,-0.9601,-0.9682,-0.9726,-0.9726,-0.9457,-0.9377,-0.9487,-0.9071,-0.9098,-0.94,-0.9918,-1.0379,-1.0789,-1.2368,-1.3697,-1.4782,-1.5663,-1.6787,-1.797,-1.8056,-1.8229,-1.8433,-1.8433,-2.0436,-2.3819,-2.6969,-2.9561,-3.1377,-3.1377,-3.1377,-3.1652,-3.3188,-3.4527,-3.6005,-3.871,-4.0443,-4.1966,-4.345,-4.4091,-4.4568,-4.5321,-4.5623,-4.6054,-4.6965,-4.7143,-4.7397,-4.8373,-4.8674,-4.9154,-5.0369,-5.0719,-5.1081,-5.1482,-5.2159,-5.3054,-5.4201,-5.4389,-5.4855,-5.6041,-5.6199,-5.6388,-5.673,-5.6923,-5.7115,-5.7401,-5.7559,-5.784,-5.8182,-5.8182,-5.8182,-5.8274,-5.8274,-5.8245,-5.831,-5.8245,-5.8121,-5.7778,-5.9,-6.0154,0.8981,0.8909,0.9087,0.679,0.7113,0.7311,0.5156,0.4606,0.4398,0.3896,0.3411,0.291,0.2532,0.1395,0.0581,0.0558,-0.0303,-0.1004,0.0,-0.0897,-0.0729,-0.0393,-0.0131,-0.0894,-0.3117,-0.3118,-0.3711,-0.543,-0.6844,-0.8038,-0.8747,-0.9193,-0.9443,-0.9487,-0.9563,-0.9606,-0.9606,-0.9525,-0.9465,-0.9421,-0.934,-0.912,-0.8902,-0.9564,-0.9918,-0.9701,-1.1165,-1.2788,-1.4428,-1.5192,-1.6549,-1.8099,-1.8186,-1.8443,-1.8843,-1.8843,-2.1183,-2.476,-2.837,-3.0388,-3.1377,-3.1377,-3.1377,-3.167,-3.3119,-3.4755,-3.6556,-3.8504,-4.0419,-4.2115,-4.2975,-4.3514,-4.3991,-4.4719,-4.5196,-4.5816,-4.6961,-4.7238,-4.7859,-4.9427,-4.9766,-5.0227,-5.1778,-5.2435,-5.2778,-5.2778,-5.3331,-5.4328,-5.5511,-5.5603,-5.598,-5.67,-5.6761,-5.6858,-5.6923,-5.7211,-5.7464,-5.7559,-5.784,-5.8058,-5.8274,-5.8274,-5.8085,-5.7582,-5.8053,-5.8306,-5.8308,-5.8746,-5.8497,-5.7495,-5.8875,-6.0275]},{"header":{"parameterUnit":"m.s-1","parameterCategory":1,"la1":30.6,"la2":29.2853,"lo1":-89.7004,"lo2":-87.6739,"dy":0.0162,"dx":0.0183,"nx":112,"ny":82,"refTime":"2023-04-25T18:00:00:Z","depth":0,"parameterNumber":3,"parameterNumberName":"V-component_of_WINDS"},"data":[0.0,0.0,0.0,0.0,0.0,0.0,0.0,0.0,0.0,0.0,0.0,0.0,0.0,0.0,0.0,0.0,0.0,0.0,0.0,0.0,0.0,0.0,0.0,0.0,0.0,0.0,0.0,0.0,0.0,0.0,0.0,0.0,0.0,0.0,0.0,0.0,0.0,0.0,0.0,0.0,0.0,0.0,0.0,0.0,0.0,0.0,0.0,0.0,0.0,0.0,0.0,0.0,0.0,0.0,0.0,0.0,0.0,0.0,0.0,0.0,0.0,0.0,0.0,0.0,0.0,0.0,0.0,0.0,0.0,0.0,0.0,0.0,0.0,0.0,0.0,0.0,0.0,0.0,0.0,0.0,0.0,0.0,0.0,0.0,0.0,0.0,0.0,0.0,0.0,0.0,-3.5787,-3.7407,-3.9734,-4.1341,-4.1639,-4.0335,-3.8095,-3.4964,0.0,0.0,0.0,0.0,0.0,0.0,0.0,0.0,0.0,0.0,0.0,0.0,0.0,0.0,0.0,0.0,0.0,0.0,0.0,0.0,0.0,0.0,0.0,0.0,0.0,0.0,0.0,0.0,0.0,0.0,0.0,0.0,0.0,0.0,0.0,0.0,0.0,0.0,0.0,0.0,0.0,0.0,0.0,0.0,0.0,0.0,0.0,0.0,0.0,0.0,0.0,0.0,0.0,0.0,0.0,0.0,0.0,0.0,0.0,0.0,0.0,0.0,0.0,0.0,0.0,0.0,0.0,0.0,0.0,0.0,0.0,0.0,0.0,0.0,0.0,0.0,0.0,0.0,0.0,0.0,0.0,0.0,0.0,0.0,0.0,0.0,0.0,0.0,0.0,0.0,0.0,0.0,0.0,0.0,0.0,0.0,0.0,0.0,0.0,0.0,0.0,0.0,0.0,0.0,-3.7404,-4.0558,-4.145,-4.1896,-4.1883,-4.0428,-3.8165,-3.5106,0.0,0.0,0.0,0.0,0.0,0.0,0.0,0.0,0.0,0.0,0.0,0.0,0.0,0.0,0.0,0.0,0.0,0.0,0.0,0.0,0.0,0.0,0.0,0.0,0.0,0.0,0.0,0.0,0.0,0.0,0.0,0.0,0.0,0.0,0.0,0.0,0.0,0.0,0.0,0.0,0.0,0.0,0.0,0.0,0.0,0.0,0.0,0.0,0.0,0.0,0.0,0.0,0.0,0.0,0.0,0.0,0.0,0.0,0.0,0.0,0.0,0.0,0.0,0.0,0.0,0.0,0.0,0.0,0.0,0.0,0.0,0.0,0.0,0.0,0.0,0.0,0.0,0.0,0.0,0.0,0.0,0.0,0.0,0.0,0.0,0.0,0.0,0.0,0.0,0.0,0.0,0.0,0.0,0.0,0.0,0.0,0.0,0.0,0.0,0.0,0.0,0.0,0.0,-3.6748,-3.9154,-4.1394,-4.1788,-4.2005,-4.2005,-4.0428,-3.8044,-3.4744,-3.262,0.0,0.0,0.0,0.0,0.0,0.0,0.0,0.0,0.0,0.0,0.0,0.0,0.0,0.0,0.0,0.0,0.0,0.0,0.0,0.0,0.0,0.0,0.0,0.0,0.0,0.0,0.0,0.0,0.0,0.0,0.0,0.0,0.0,0.0,0.0,0.0,0.0,0.0,0.0,0.0,0.0,0.0,0.0,0.0,0.0,0.0,0.0,0.0,0.0,0.0,0.0,0.0,0.0,0.0,0.0,0.0,0.0,0.0,0.0,0.0,0.0,0.0,0.0,0.0,0.0,0.0,0.0,0.0,0.0,0.0,0.0,0.0,0.0,0.0,0.0,0.0,0.0,0.0,0.0,0.0,0.0,0.0,0.0,0.0,0.0,0.0,0.0,0.0,0.0,0.0,0.0,0.0,0.0,0.0,0.0,0.0,0.0,0.0,0.0,0.0,0.0,0.0,-3.8929,-4.0573,-4.1612,-4.1775,-4.1788,-4.1788,-4.0441,-3.8044,-3.4297,-3.2491,0.0,0.0,0.0,0.0,0.0,0.0,0.0,0.0,0.0,0.0,0.0,0.0,0.0,0.0,0.0,0.0,0.0,0.0,0.0,0.0,0.0,0.0,0.0,0.0,0.0,0.0,0.0,0.0,0.0,0.0,0.0,0.0,0.0,0.0,0.0,0.0,0.0,0.0,0.0,0.0,0.0,0.0,0.0,0.0,0.0,0.0,0.0,0.0,0.0,0.0,0.0,0.0,0.0,0.0,0.0,0.0,0.0,0.0,0.0,0.0,0.0,0.0,0.0,0.0,0.0,0.0,0.0,0.0,0.0,0.0,0.0,0.0,0.0,0.0,0.0,0.0,0.0,0.0,0.0,0.0,0.0,0.0,0.0,0.0,0.0,0.0,0.0,0.0,0.0,0.0,0.0,0.0,0.0,0.0,0.0,0.0,0.0,0.0,0.0,0.0,0.0,0.0,-4.0123,-4.1046,-4.1829,-4.1517,-4.1191,-4.1191,-4.0291,-3.8114,-3.4381,-3.2705,0.0,0.0,0.0,0.0,0.0,0.0,0.0,0.0,0.0,0.0,0.0,0.0,0.0,0.0,0.0,0.0,0.0,0.0,0.0,0.0,0.0,0.0,0.0,0.0,0.0,0.0,0.0,0.0,0.0,0.0,0.0,0.0,0.0,0.0,0.0,0.0,0.0,0.0,0.0,0.0,0.0,0.0,0.0,0.0,0.0,0.0,0.0,0.0,0.0,0.0,0.0,0.0,0.0,0.0,0.0,0.0,0.0,0.0,0.0,0.0,0.0,0.0,0.0,0.0,0.0,0.0,0.0,0.0,0.0,0.0,0.0,0.0,0.0,0.0,0.0,0.0,0.0,0.0,0.0,0.0,0.0,0.0,0.0,0.0,0.0,0.0,0.0,0.0,0.0,0.0,0.0,0.0,0.0,0.0,0.0,0.0,0.0,0.0,0.0,0.0,0.0,0.0,-3.8929,-4.0294,-4.1287,-4.0892,-4.054,-4.054,-3.9634,-3.7292,-3.3149,0.0,0.0,0.0,0.0,0.0,0.0,0.0,0.0,0.0,0.0,0.0,0.0,0.0,0.0,0.0,0.0,0.0,0.0,0.0,0.0,0.0,0.0,0.0,0.0,0.0,0.0,0.0,0.0,0.0,0.0,0.0,0.0,0.0,0.0,0.0,0.0,0.0,0.0,0.0,0.0,0.0,0.0,0.0,0.0,0.0,0.0,0.0,0.0,0.0,0.0,0.0,0.0,0.0,0.0,0.0,0.0,0.0,0.0,0.0,0.0,0.0,0.0,0.0,0.0,0.0,0.0,0.0,0.0,0.0,0.0,0.0,0.0,0.0,0.0,0.0,0.0,0.0,0.0,0.0,0.0,0.0,0.0,0.0,0.0,0.0,0.0,0.0,0.0,0.0,0.0,0.0,0.0,0.0,0.0,0.0,0.0,0.0,0.0,0.0,0.0,0.0,0.0,-3.7115,-3.8505,-3.9892,-4.0692,-4.0268,-3.9888,-3.9888,-3.9177,-3.6868,-3.2441,0.0,0.0,0.0,0.0,0.0,0.0,0.0,0.0,0.0,0.0,0.0,0.0,0.0,0.0,0.0,0.0,0.0,0.0,0.0,0.0,0.0,0.0,0.0,0.0,0.0,0.0,0.0,0.0,0.0,0.0,0.0,0.0,0.0,0.0,0.0,0.0,0.0,0.0,0.0,0.0,0.0,0.0,0.0,0.0,0.0,0.0,0.0,0.0,0.0,0.0,0.0,0.0,0.0,0.0,0.0,0.0,0.0,0.0,0.0,0.0,0.0,0.0,0.0,0.0,0.0,0.0,0.0,0.0,0.0,0.0,0.0,0.0,0.0,0.0,0.0,0.0,0.0,0.0,0.0,0.0,0.0,0.0,0.0,0.0,0.0,0.0,0.0,0.0,0.0,0.0,0.0,0.0,0.0,0.0,0.0,0.0,0.0,0.0,0.0,0.0,0.0,0.0,-3.8491,-3.9268,-3.9914,-4.0187,-3.9644,-3.9292,-3.9292,-3.9024,-3.7032,0.0,0.0,0.0,0.0,0.0,0.0,0.0,0.0,0.0,0.0,0.0,0.0,0.0,0.0,0.0,0.0,0.0,0.0,0.0,0.0,0.0,0.0,0.0,0.0,0.0,0.0,0.0,0.0,0.0,0.0,0.0,0.0,0.0,0.0,0.0,0.0,0.0,0.0,0.0,0.0,0.0,0.0,0.0,0.0,0.0,0.0,0.0,0.0,0.0,0.0,0.0,0.0,0.0,0.0,0.0,0.0,0.0,0.0,0.0,0.0,0.0,0.0,0.0,0.0,0.0,0.0,0.0,0.0,0.0,0.0,0.0,0.0,0.0,0.0,0.0,0.0,0.0,0.0,0.0,0.0,0.0,0.0,0.0,0.0,0.0,0.0,0.0,0.0,0.0,0.0,0.0,0.0,0.0,0.0,0.0,0.0,0.0,0.0,0.0,0.0,0.0,0.0,0.0,-3.6411,-3.8023,-3.9177,-3.9267,-3.9311,-3.9292,-3.9292,-3.8922,-3.701,-3.3138,0.0,0.0,0.0,0.0,0.0,0.0,0.0,0.0,0.0,0.0,0.0,0.0,0.0,0.0,0.0,0.0,0.0,0.0,0.0,0.0,0.0,0.0,0.0,0.0,0.0,0.0,0.0,0.0,0.0,0.0,0.0,0.0,0.0,0.0,0.0,0.0,0.0,0.0,0.0,0.0,0.0,0.0,0.0,0.0,0.0,0.0,0.0,0.0,0.0,0.0,0.0,0.0,0.0,0.0,0.0,0.0,0.0,0.0,0.0,0.0,0.0,0.0,0.0,0.0,0.0,0.0,0.0,0.0,0.0,0.0,0.0,0.0,0.0,0.0,0.0,0.0,0.0,0.0,0.0,0.0,0.0,0.0,0.0,0.0,0.0,0.0,0.0,0.0,0.0,0.0,0.0,0.0,0.0,0.0,0.0,0.0,0.0,0.0,0.0,0.0,0.0,0.0,-3.5639,-3.7483,-3.8729,-3.8908,-3.8997,-3.9203,-3.9292,-3.899,-3.7526,-3.4452,0.0,0.0,0.0,0.0,0.0,0.0,0.0,0.0,0.0,0.0,0.0,0.0,0.0,0.0,0.0,0.0,0.0,0.0,0.0,0.0,0.0,0.0,0.0,0.0,0.0,0.0,0.0,0.0,0.0,0.0,0.0,0.0,0.0,0.0,0.0,0.0,0.0,0.0,0.0,0.0,0.0,0.0,0.0,0.0,0.0,0.0,0.0,0.0,0.0,0.0,0.0,0.0,0.0,0.0,0.0,0.0,0.0,0.0,0.0,0.0,0.0,0.0,0.0,0.0,0.0,0.0,0.0,0.0,0.0,0.0,0.0,0.0,0.0,0.0,0.0,0.0,0.0,0.0,0.0,0.0,0.0,0.0,0.0,0.0,0.0,0.0,0.0,0.0,0.0,0.0,0.0,0.0,0.0,0.0,0.0,0.0,0.0,0.0,0.0,0.0,0.0,0.0,-3.5663,-3.7222,-3.8368,-3.8819,-3.8908,-3.9024,-3.9284,-3.9096,-3.8133,-3.6122,0.0,0.0,0.0,0.0,0.0,0.0,0.0,0.0,0.0,0.0,0.0,0.0,0.0,0.0,0.0,0.0,0.0,0.0,0.0,0.0,0.0,0.0,0.0,0.0,0.0,0.0,0.0,0.0,0.0,0.0,0.0,0.0,0.0,0.0,0.0,0.0,0.0,0.0,0.0,0.0,0.0,0.0,0.0,0.0,0.0,0.0,0.0,0.0,0.0,0.0,0.0,0.0,0.0,0.0,0.0,0.0,0.0,0.0,0.0,0.0,-2.5914,-2.3991,0.0,0.0,0.0,0.0,0.0,0.0,0.0,0.0,0.0,0.0,0.0,0.0,0.0,0.0,0.0,0.0,0.0,0.0,0.0,0.0,0.0,0.0,0.0,0.0,0.0,0.0,0.0,0.0,0.0,0.0,0.0,0.0,0.0,0.0,0.0,0.0,0.0,0.0,0.0,0.0,-3.3944,-3.6475,-3.8213,-3.8395,-3.8639,-3.8916,-3.9031,-3.9024,-3.8358,-3.6771,-3.5672,0.0,0.0,0.0,0.0,0.0,0.0,0.0,0.0,0.0,0.0,0.0,0.0,0.0,0.0,0.0,0.0,0.0,0.0,0.0,0.0,0.0,0.0,0.0,0.0,0.0,0.0,0.0,0.0,0.0,0.0,0.0,0.0,0.0,0.0,0.0,0.0,0.0,0.0,0.0,0.0,0.0,0.0,0.0,0.0,0.0,0.0,0.0,0.0,0.0,0.0,0.0,0.0,0.0,0.0,0.0,0.0,0.0,0.0,0.0,-3.3298,-2.9589,0.0,0.0,0.0,0.0,0.0,0.0,0.0,0.0,0.0,0.0,0.0,0.0,0.0,0.0,0.0,0.0,0.0,0.0,0.0,0.0,0.0,0.0,0.0,0.0,0.0,0.0,0.0,0.0,0.0,0.0,0.0,0.0,0.0,0.0,0.0,0.0,0.0,0.0,0.0,0.0,-3.4843,-3.6718,-3.8254,-3.8792,-3.9093,-3.9425,-3.9921,-3.9817,-3.9359,-3.8668,-3.7073,0.0,0.0,0.0,0.0,0.0,0.0,0.0,0.0,0.0,0.0,0.0,0.0,0.0,0.0,0.0,0.0,0.0,0.0,0.0,0.0,0.0,0.0,0.0,0.0,0.0,0.0,0.0,0.0,0.0,0.0,0.0,0.0,0.0,0.0,0.0,0.0,0.0,0.0,0.0,0.0,0.0,0.0,0.0,0.0,0.0,0.0,0.0,0.0,0.0,0.0,0.0,0.0,0.0,-4.3051,-4.3192,-4.3733,-4.4799,-4.4212,-4.2367,-4.3487,-3.8401,-2.9533,-3.2015,0.0,0.0,0.0,0.0,0.0,0.0,0.0,0.0,0.0,0.0,0.0,0.0,0.0,0.0,0.0,0.0,0.0,0.0,0.0,0.0,0.0,0.0,-3.4958,-4.0322,-4.3097,-4.401,-4.1874,0.0,0.0,0.0,0.0,0.0,0.0,0.0,0.0,0.0,0.0,0.0,-3.6348,-3.7394,-3.849,-3.9428,-3.9654,-4.004,-4.0844,-4.0632,-4.0363,-4.027,-3.8472,-3.7216,0.0,0.0,0.0,0.0,0.0,0.0,0.0,0.0,0.0,0.0,0.0,0.0,0.0,0.0,0.0,0.0,0.0,0.0,0.0,0.0,0.0,0.0,0.0,0.0,0.0,0.0,0.0,0.0,0.0,0.0,0.0,0.0,-4.7877,-3.9408,0.0,0.0,0.0,0.0,0.0,0.0,0.0,0.0,0.0,0.0,0.0,0.0,0.0,-4.3856,-4.2258,-4.1615,-4.0879,-4.0106,-4.471,-4.688,-4.7023,-5.3162,-5.5779,-5.5524,-5.5691,0.0,-3.6658,-3.2117,0.0,0.0,0.0,0.0,0.0,0.0,0.0,0.0,0.0,0.0,0.0,0.0,0.0,0.0,0.0,0.0,0.0,0.0,0.0,0.0,0.0,0.0,-3.333,-4.2485,-4.5,-4.5268,-4.5427,-4.3533,-4.1582,-4.126,-4.1464,-4.0627,0.0,0.0,0.0,0.0,0.0,0.0,-3.6063,-3.7705,-3.9097,-3.9455,-4.0094,-4.044,-4.0181,-4.0285,-4.0249,-3.9854,-3.9519,-3.8582,-3.6979,-3.5962,0.0,0.0,0.0,0.0,0.0,0.0,0.0,0.0,0.0,0.0,0.0,0.0,0.0,0.0,0.0,0.0,0.0,0.0,0.0,0.0,0.0,0.0,0.0,0.0,0.0,0.0,0.0,0.0,0.0,-4.4017,-4.4134,-3.5514,-4.0377,-4.1801,0.0,0.0,0.0,0.0,0.0,0.0,0.0,0.0,0.0,-4.0215,-4.6053,-4.8263,-4.614,-4.9603,-5.1006,-5.0424,-5.2747,-5.3726,-5.3608,-5.6658,-5.8042,-5.8088,-5.781,-5.4447,-4.8755,-4.2713,-3.8733,-3.6359,0.0,0.0,0.0,0.0,-3.5091,-3.4062,-3.1935,-3.0621,-2.9884,-2.9475,0.0,0.0,0.0,0.0,0.0,0.0,0.0,-2.4867,-3.0514,-3.4184,-3.8112,-4.4407,-4.6172,-4.6501,-4.68,-4.5991,-4.48,-4.363,-4.2544,-4.095,-3.8459,-3.8542,0.0,0.0,0.0,-3.7271,-3.812,-3.8841,-3.9694,-4.0549,-4.0965,-4.1245,-4.115,-4.1005,-4.0611,-3.9955,-3.9973,-3.9495,-3.849,-3.7402,-3.5892,0.0,0.0,0.0,0.0,0.0,0.0,0.0,0.0,0.0,0.0,0.0,0.0,0.0,0.0,0.0,0.0,0.0,0.0,0.0,0.0,0.0,0.0,0.0,0.0,0.0,0.0,0.0,0.0,-4.2831,-4.3575,-3.3682,-3.9527,-4.2221,0.0,0.0,0.0,0.0,0.0,0.0,-4.2086,-4.73,-4.8881,-4.5712,-5.1044,-5.3051,-5.1121,-5.6556,-5.9215,-5.898,-5.8818,-5.8572,-5.8319,-5.8051,-5.7997,-5.7867,-5.7534,-5.7289,-5.6631,-5.0361,-4.5125,-4.1025,-4.0516,-4.0982,-4.1868,-4.1663,-4.1302,-4.0659,-3.8501,-3.7594,-3.7324,-3.686,-3.6808,-3.711,-3.7939,0.0,0.0,0.0,0.0,-2.9929,-3.357,-3.7844,-4.2204,-4.5963,-4.7189,-4.7519,-4.7339,-4.687,-4.6342,-4.5813,-4.4093,-4.2175,-4.0473,-4.0011,0.0,-3.8241,-3.8041,-3.8477,-3.9928,-4.0067,-4.0442,-4.1585,-4.1827,-4.1957,-4.2054,-4.1681,-4.1155,-4.0385,-4.0265,-4.017,-3.9849,-3.888,-3.795,-3.7223,0.0,0.0,0.0,0.0,0.0,0.0,0.0,0.0,0.0,0.0,0.0,0.0,0.0,0.0,0.0,0.0,0.0,0.0,0.0,0.0,0.0,0.0,0.0,0.0,0.0,0.0,0.0,0.0,0.0,-3.9793,-4.3341,0.0,0.0,0.0,0.0,-5.0468,-4.9924,-4.8121,-4.5698,-5.0713,-5.2463,-4.9883,-5.5729,-5.8878,-5.8765,-5.914,-5.9178,-5.8984,-5.8821,-5.8572,-5.8319,-5.8051,-5.7679,-5.7166,-5.7338,-5.6757,-5.5207,-4.8769,-4.6668,-4.6955,-4.1427,-3.9678,-4.011,-3.9267,-3.8955,-3.8651,-3.6486,-3.6177,-3.6725,-3.6485,-3.716,-3.7783,-3.6502,-3.6724,0.0,0.0,-3.3759,-3.5168,-3.9244,-4.0815,-4.2521,-4.71,-4.8207,-4.8057,-4.7429,-4.5403,-4.4461,-4.7327,-4.6736,-4.5373,-4.4024,0.0,-4.1121,-3.9955,-3.9738,-4.0023,-4.0616,-4.1167,-4.1612,-4.2005,-4.2493,-4.2673,-4.2131,-4.2082,-4.1698,-4.0881,-4.0848,-4.074,-4.0414,-4.0111,-3.9419,-3.8367,-3.7278,0.0,0.0,0.0,0.0,0.0,0.0,0.0,0.0,0.0,0.0,0.0,0.0,0.0,0.0,0.0,0.0,0.0,0.0,0.0,0.0,0.0,0.0,0.0,0.0,0.0,0.0,0.0,0.0,-4.6893,-5.1183,0.0,-4.597,-4.4691,-4.5266,-4.774,-5.1029,-5.2179,-5.0527,-5.6269,-5.8911,-5.7224,-5.8562,-5.929,-5.929,-5.9853,-5.974,-5.8984,-5.9427,-5.9483,-5.9183,-5.9139,-5.9034,-5.8805,-5.8533,-5.7997,-5.6988,-5.438,-5.3169,-5.2857,-5.0654,-5.0241,-5.0818,-5.0506,-5.0403,-5.0299,-4.9526,-4.9422,-4.9608,-4.9551,-4.9801,-4.9086,-4.3256,-4.1841,-4.0938,-3.4732,-3.5522,-3.8523,-4.0021,-4.3001,-4.6109,-4.8049,-4.8443,-4.8503,-4.8625,-4.7881,-4.7256,-4.7437,-4.508,-4.3172,-4.3408,-4.2888,-4.1945,-4.0867,-4.0893,-4.1313,-4.2004,-4.2151,-4.2484,-4.3336,-4.3406,-4.3216,-4.2476,-4.2398,-4.1846,-4.0681,-4.0917,-4.0893,-4.0449,-4.0652,-4.0578,-4.0148,-3.9894,-3.8331,0.0,0.0,0.0,0.0,0.0,0.0,0.0,0.0,0.0,0.0,0.0,0.0,0.0,0.0,0.0,0.0,0.0,0.0,0.0,0.0,0.0,0.0,0.0,0.0,0.0,-5.0085,-5.2652,-5.1376,-5.4746,-5.5788,-5.2319,-5.0489,-5.0466,-5.28,-5.6352,-5.8207,-5.7718,-6.1095,-6.2687,-6.1928,-6.0751,-6.0154,-6.0154,-6.0717,-6.0641,-5.9962,-6.0407,-6.0422,-5.9997,-5.9862,-5.9566,-5.9258,-5.8785,-5.8307,-5.7684,-5.7318,-5.7022,-5.6651,-5.6245,-5.6387,-5.6836,-5.6805,-5.6978,-5.7219,-5.746,-5.7497,-5.7294,-5.6748,-5.6508,-5.5212,-4.8726,-4.6778,-4.55,-3.9557,-4.0523,-4.3243,-4.3243,-4.597,-4.8693,-4.8762,-4.8706,-4.8679,-4.8328,-4.8086,-4.7629,-4.6211,-4.4293,-4.2906,-4.3326,-4.2943,-4.2494,-4.1967,-4.2091,-4.2404,-4.3121,-4.3004,-4.3299,-4.4077,-4.385,-4.3517,-4.3074,-4.2439,-4.1789,-4.1139,-4.1013,-4.087,-4.0667,-4.0497,-4.0316,-4.0316,-3.9966,-3.8387,-3.5827,0.0,0.0,0.0,0.0,0.0,0.0,0.0,0.0,0.0,0.0,0.0,0.0,0.0,0.0,0.0,0.0,0.0,0.0,0.0,0.0,0.0,0.0,0.0,-4.5911,-5.5343,-5.965,-5.3433,-5.4019,-5.5629,-5.731,-5.5983,-5.8457,-6.6723,-6.632,-6.6062,-6.6803,-6.4692,-6.3486,-6.3448,-6.241,-6.1806,-6.1806,-6.1806,-6.1806,-6.1806,-6.1609,-6.1279,-6.072,-6.0127,-5.9258,-5.8273,-5.8094,-5.7666,-5.7067,-5.7067,-5.7552,-5.8141,-5.7344,-5.7067,-5.7036,-5.694,-5.7322,-5.8047,-5.8771,-5.8736,-5.8212,-5.6713,-5.5929,-5.5061,-5.2029,-5.1055,-5.0767,-4.9099,-4.9021,-4.9371,-4.9371,-4.9657,-4.9786,-4.9209,-4.9057,-4.8585,-4.6609,-4.5936,-4.524,-4.4037,-4.4816,-4.5289,-4.4104,-4.3067,-4.2726,-4.3318,-4.3399,0.0,-4.3824,-4.3774,-4.3904,-4.4109,-4.3671,-4.3467,-4.3701,-4.2082,-4.1335,-4.2061,-4.0894,-4.0548,-4.1172,-3.9592,-3.8721,-3.8721,-3.7407,-3.6194,-3.4881,0.0,0.0,0.0,0.0,0.0,0.0,0.0,0.0,0.0,0.0,0.0,0.0,0.0,0.0,0.0,0.0,0.0,0.0,0.0,0.0,0.0,-5.2762,-5.7597,-5.8496,-5.9565,-6.1636,-6.5317,-6.5603,-6.5731,-6.6192,-6.5257,-6.5564,-6.7911,-6.7099,-6.6241,-6.565,-6.4263,-6.3116,-6.2297,-6.1958,-6.1806,-6.1806,-6.2444,-6.2444,-6.1806,-6.2405,-6.2305,-6.1707,-6.1569,-6.1047,-6.0344,-6.0072,-5.9558,-5.8859,-5.8594,-5.8597,-5.8701,-5.7941,-5.7976,-5.8459,-5.8392,-5.853,-5.8737,-5.8944,-5.8562,-5.7959,-5.7504,-5.6921,-5.5919,-5.3793,-5.3214,-5.2844,-5.1142,-5.0692,-5.0847,-5.0847,-5.0886,-5.1017,-5.1123,-5.1215,-5.0774,-4.9374,-4.8978,-4.8115,-4.5413,-4.5591,-4.5603,-4.3829,-4.2998,-4.287,-4.3531,-4.3739,-4.3926,-4.4617,-4.4594,-4.4204,-4.3584,-4.3176,-4.2705,-4.1879,-4.1428,-4.1298,-4.172,-4.1378,-4.1263,-4.1172,-4.0803,-4.0083,-3.9098,-3.7528,-3.5928,0.0,0.0,0.0,0.0,0.0,0.0,0.0,0.0,0.0,0.0,0.0,0.0,0.0,0.0,0.0,0.0,0.0,0.0,0.0,0.0,0.0,0.0,-5.6056,-6.3105,-6.665,-6.5218,-6.5485,-6.986,-6.9667,-6.9167,-6.9167,-6.8706,-6.8552,-6.8936,-6.7496,-6.6452,-6.6146,-6.4664,-6.354,-6.2857,-6.2857,-6.2857,-6.2857,-6.3345,-6.3345,-6.2857,-6.3106,-6.2954,-6.2372,-6.1998,-6.1497,-6.0962,-6.0564,-6.0227,-5.9748,-5.9551,-5.9485,-5.9383,0.0,0.0,0.0,0.0,-5.9012,-5.8944,-5.8632,-5.8103,-5.7527,-5.6521,-5.5809,-5.5082,-5.3405,-5.2886,-5.274,-5.1727,-5.1381,-5.1381,-5.1381,-5.1381,-5.1327,-5.0876,-5.0703,-5.0262,-4.8322,-4.8102,-4.7594,-4.5211,-4.52,0.0,-4.4151,-4.3782,-4.3808,-4.4334,-4.4492,-4.4729,-4.5049,-4.5102,-4.4891,-4.4509,-4.3881,-4.333,-4.2575,-4.1672,0.0,0.0,0.0,-4.0663,-4.0199,-3.9592,0.0,0.0,0.0,-3.4612,-3.3611,-3.2638,0.0,0.0,-3.1649,-3.1485,0.0,0.0,0.0,0.0,0.0,0.0,0.0,0.0,0.0,0.0,0.0,0.0,0.0,0.0,0.0,0.0,-5.7158,-6.3638,-7.1129,-7.1014,-7.0129,-7.0129,-6.936,-6.8821,-6.8821,-6.8717,-6.8921,-6.969,-6.7744,-6.6844,-6.7604,-6.569,0.0,0.0,0.0,-6.4434,-6.4434,-6.4281,-6.4241,-6.4316,-6.3742,-6.3131,-6.2595,-6.1806,-6.1163,-6.0609,-6.0297,-6.0171,-6.0171,-6.0107,-6.0107,-6.0043,-5.9351,-5.9012,-5.9012,-5.9012,-5.8875,-5.8668,-5.7997,0.0,0.0,-5.4775,-5.4002,-5.3496,-5.2125,-5.1684,-5.1684,-5.1684,-5.1684,-5.1684,-5.1684,-5.1684,-5.1359,-4.9855,-4.9413,-4.8531,-4.5854,-4.5552,-4.5328,-4.4125,-4.4303,-4.4705,-4.4752,-4.4964,-4.518,-4.518,-4.5395,-4.5395,-4.5287,-4.5502,-4.5582,-4.5688,-4.502,0.0,-4.3932,-4.2125,-4.1239,-4.1492,-4.0432,-3.9592,-3.8957,-3.7887,-3.6682,-3.5232,-3.4027,-3.3418,-3.3418,-3.3418,-3.3418,-3.3418,-3.2147,-3.1763,0.0,0.0,0.0,0.0,0.0,0.0,0.0,0.0,0.0,0.0,0.0,0.0,0.0,0.0,0.0,-5.1901,-6.2089,-7.0348,-7.1975,-7.2514,-7.2783,-7.2783,-7.2014,-7.1475,-7.1475,-7.0516,-6.998,-7.0171,-6.8639,-6.7841,-6.7992,-6.6721,-6.5683,-6.5095,-6.5095,-6.5178,-6.5261,-6.4214,-6.3959,-6.4592,-6.3416,0.0,-6.2059,-6.1897,-6.1544,-6.0974,-6.0671,-6.0485,-6.0485,-6.0234,-6.0107,-6.0043,-5.9652,-5.9284,-5.9012,-5.9012,-5.8255,-5.7321,-5.7683,-5.6521,-5.4933,-5.5037,-5.4576,-5.3935,-5.367,-5.3607,0.0,-5.3607,-5.3607,-5.3607,-5.3607,-5.3607,-5.349,-5.3161,-5.2089,-5.0686,-4.8835,-4.7468,-4.6192,-4.4711,-4.4743,-4.4916,-4.4752,-4.4722,-4.483,-4.483,-4.483,-4.5046,-4.5502,-4.5609,-4.5127,-4.3991,-4.3855,-4.3194,-4.1419,-4.1215,-4.1124,-4.1287,-4.1057,-4.0826,-4.0687,-4.0455,-3.9239,-3.6946,-3.656,-3.5479,-3.3418,-3.3418,-3.3418,-3.3418,-3.3165,-3.3038,0.0,0.0,0.0,0.0,0.0,0.0,0.0,0.0,0.0,0.0,0.0,-4.4295,-4.4325,0.0,-5.7869,-5.7379,-6.6129,-7.2927,-7.286,-7.3245,-7.3514,-7.3514,-7.3129,-7.286,-7.286,-7.2255,-7.1643,-7.1025,-6.9737,-6.8751,-6.8132,-6.7005,-6.6238,-6.587,-6.587,-6.5913,-6.6041,-6.4666,-6.4262,-6.4679,-6.3062,-6.2129,-6.1897,-6.1656,-6.135,-6.1093,-6.0914,-6.0854,-6.0854,-6.0671,-6.0485,-6.036,-6.0171,-5.9879,-5.9485,-5.8875,-5.8184,-5.7488,-5.6796,-5.5542,-5.4325,-5.4627,-5.4158,-5.366,-5.4008,-5.4103,-5.4103,-5.4103,-5.4103,-5.4103,-5.4103,-5.4103,-5.3891,-5.3098,-5.1673,-5.0003,-4.8446,-4.6829,-4.5511,-4.4784,-4.4819,-4.4994,-4.4752,-4.4856,-4.4856,-4.4722,-4.4856,-4.5072,-4.5395,-4.5502,-4.5261,-4.4561,-4.4453,-4.3797,-4.2125,-4.1468,-4.1148,-4.1172,-4.1172,-4.1172,-4.1172,-4.0571,-3.9592,-3.8268,-3.6946,-3.5725,-3.4403,-3.3796,-3.3418,-3.3418,-3.3418,-3.3418,0.0,0.0,0.0,0.0,0.0,0.0,0.0,-4.9049,-5.0427,-5.636,-5.6315,-5.5134,-5.4752,-6.0316,-6.4481,-6.3104,-6.9353,-7.4389,-7.4273,-7.4245,-7.4245,-7.4245,-7.3822,-7.3514,-7.3514,-7.3206,-7.2563,-7.1574,-7.0345,-6.9204,-6.8227,-6.7329,-6.6747,-6.6598,-6.6598,-6.6687,-6.6774,-6.5301,-6.4731,-6.4975,-6.3073,-6.2201,-6.2201,-6.1758,-6.1557,-6.1497,-6.1497,-6.1437,-6.1437,-6.1437,-6.1316,-6.1069,-6.1069,-6.0607,-5.9908,-5.8668,-5.7839,-5.7103,-5.5673,-5.4665,-5.4003,-5.4073,-5.3724,-5.3408,-5.3945,-5.4103,-5.4103,-5.4103,-5.4103,-5.4103,-5.4103,-5.4103,-5.3679,-5.2106,-5.0445,-4.8835,-4.7128,-4.5553,-4.4523,-4.4556,-4.4819,-4.4994,-4.4752,-4.4964,-4.5072,-4.4722,-4.4964,-4.5072,-4.518,-4.5395,-4.5502,-4.5502,-4.5395,-4.4722,-4.3517,-4.2174,-4.1287,-4.1172,-4.1172,-4.1172,-4.1172,-4.0199,-3.9474,-3.9216,-3.7188,-3.5971,-3.5746,-3.4403,-3.3796,-3.3796,-3.3544,-3.3418,-4.4142,-4.639,-4.9411,-4.5599,-5.109,-5.6459,0.0,-5.2604,-5.2908,-5.2298,-5.1406,-5.1169,-5.2611,-5.9,-6.4174,-6.4565,-7.1628,-7.7025,-7.6871,-7.6881,-7.6852,-7.6852,-7.4861,-7.3514,-7.3514,-7.2143,-7.1218,-7.1067,-6.9579,-6.8575,-6.8453,-6.8331,-6.797,-6.7319,-6.7282,-6.7374,-6.7464,-6.5767,-6.527,-6.6003,-6.4108,-6.3249,-6.3249,-6.3188,-6.3101,-6.2951,-6.2789,-6.2726,-6.2726,-6.2726,-6.2663,-6.2663,-6.2663,-6.146,-5.9674,-5.8421,-5.6267,-5.4044,-5.4733,-5.4031,-5.2957,-5.383,-5.404,-5.4008,-5.4071,-5.4103,-5.4103,-5.4103,-5.4103,-5.4103,-5.4103,-5.4103,-5.3656,-5.21,-5.0449,-4.8865,-4.719,-4.5553,-4.4523,-4.4556,-4.4819,-4.4994,-4.4752,-4.4964,-4.5072,-4.4722,-4.4722,-4.483,-4.518,-4.518,-4.5287,-4.5287,-4.5395,-4.4938,-4.3492,-4.2538,-4.1769,-4.1172,-4.1172,-4.1172,-4.1172,-4.1057,-4.0455,-3.9216,-3.8862,-3.8268,-3.7067,-3.5848,-3.5129,-3.5129,-3.3902,-3.3418,-5.692,-5.5983,-5.4955,-5.7079,-6.0693,-6.3485,-6.2457,-6.2118,-6.3282,-6.7598,-6.7808,-6.7442,-6.8117,-7.084,-7.3025,-7.325,-7.6165,-7.816,-7.7506,-7.7352,-7.7092,-7.6621,-7.5592,-7.4938,-7.4938,-7.3653,-7.2507,-7.175,-7.0423,-6.9286,-6.8543,-6.8506,-6.8357,-6.8034,-6.8034,-6.7948,-6.7642,-6.6256,-6.5551,-6.5618,-6.41,-6.3377,-6.3377,-6.3351,-6.3164,-6.301,-6.2946,-6.291,-6.291,-6.291,-6.291,-6.291,-6.2868,-6.1319,-5.8897,-5.8256,-5.643,-5.4322,-5.401,-5.3233,-5.2523,-5.356,-5.3553,-5.3363,-5.3935,-5.4103,-5.4103,-5.4103,-5.4103,-5.4103,-5.4103,-5.4103,-5.3954,-5.3239,-5.1168,-4.9074,-4.8446,-4.6252,-4.4523,-4.4556,-4.4819,-4.4994,-4.4752,-4.4964,-4.5072,-4.4722,-4.4722,-4.4722,-4.4856,-4.4964,-4.4964,-4.4964,-4.4722,-4.4396,-4.3764,-4.2986,-4.2425,-4.172,-4.1745,-4.1541,-4.1172,-4.1172,-4.0942,-4.0316,-3.9592,-3.8625,-3.7309,-3.5971,-3.5005,-3.4278,-3.367,-3.3418,-6.0523,-6.0342,-5.9896,-6.5996,-6.9231,-7.1184,-7.2073,-7.17,-7.3009,-7.947,-8.0344,-7.9978,-8.0168,-8.0234,-8.0168,-8.0,-7.9874,-7.9505,-7.8661,-7.8054,-7.7468,-7.6775,-7.6284,-7.6015,-7.6015,-7.4528,-7.319,-7.2281,-7.0729,-6.949,-6.8543,-6.8506,-6.8506,-6.8506,-6.8506,-6.8235,-6.77,-6.672,-6.5981,-6.5478,-6.4455,-6.3993,-6.3993,-6.3776,-6.3648,-6.3518,-6.3453,-6.3388,-6.3388,-6.3388,-6.3388,-6.3418,-6.3441,-6.1476,-5.8597,-5.853,-5.6836,-5.4534,-5.3783,-5.3213,-5.2911,-5.3616,-5.355,-5.3223,-5.3872,-5.4103,-5.4103,-5.4103,-5.4103,-5.4103,-5.4103,-5.4103,-5.3922,-5.2941,-5.1086,-4.9343,-4.8351,-4.6338,-4.4719,-4.4829,-4.4915,-4.4885,-4.4704,-4.4859,-4.4964,-4.4722,-4.4722,-4.4722,-4.4722,-4.4722,-4.4722,-4.4722,-4.4396,-4.4068,-4.3874,-4.3543,-4.2961,-4.24,-4.2312,-4.2199,-4.1745,-4.1745,-4.1745,-4.1745,-4.0779,-3.9803,-3.8839,-3.7407,-3.6194,-3.5232,-3.4403,-3.3902,-4.6003,-5.3044,-6.0556,-6.6756,-7.3983,-7.9698,-7.9985,-7.9586,-7.9454,-8.0557,-8.078,-8.1025,-8.187,-8.2026,-8.1948,-8.1753,-8.1702,-8.1576,-8.1244,-7.9807,-7.8681,-7.8421,-7.7006,-7.6015,-7.6015,-7.375,-7.2243,-7.2205,-6.9934,-6.8543,-6.8506,-6.8506,-6.8506,-6.8506,-6.8506,-6.8222,-6.7614,-6.7101,-6.6605,-6.6161,-6.5697,-6.5439,-6.5439,-6.511,-6.4944,-6.4944,-6.4704,-6.4636,-6.4636,-6.4636,-6.4636,-6.4636,-6.4636,-6.2474,-5.9288,-5.9254,-5.7017,-5.3966,-5.4205,-5.4272,-5.4261,-5.4382,-5.4323,-5.4283,-5.4134,-5.4103,-5.4103,-5.4103,-5.4103,-5.4103,-5.4103,-5.4103,-5.3326,-5.0215,-4.9849,-4.9287,-4.6111,-4.5324,-4.5328,-4.5327,-4.4966,-4.4678,-4.4649,-4.4677,-4.4722,-4.4722,-4.4722,-4.4722,-4.4722,-4.4722,-4.4722,-4.4722,-4.4722,-4.4505,-4.3958,-4.3848,-4.3628,-4.2986,-4.2986,-4.2986,-4.2986,-4.2986,-4.2986,-4.2986,-4.2874,-4.2849,-4.2849,-4.0846,-3.9896,-3.9779,-3.6803,-3.5376,-5.2972,-5.9759,-6.6634,-7.3322,-7.6976,-7.9005,-7.9282,-7.9728,-8.035,-8.1208,-7.7411,-7.4023,-7.4304,-7.4353,-7.4353,-7.4236,-7.8507,-8.1583,-8.094,-7.9649,-7.8592,-7.7997,-7.6775,-7.6015,-7.6015,-7.4451,-7.3114,-7.2281,-7.0691,-6.9407,-6.8543,-6.8506,-6.8506,-6.8506,-6.8506,-6.7982,-6.6988,-6.6931,-6.6464,-6.564,-6.551,-6.5445,-6.5349,-6.5149,-6.4946,-6.4775,-6.4706,-6.4706,-6.4706,-6.4706,-6.4706,-6.4567,-6.3588,-6.1779,-5.9702,-5.8665,-5.6912,-5.4829,-5.4202,-5.4055,-5.4096,-5.4635,-5.4835,-5.4826,-5.4751,-5.4804,-5.4654,-5.4283,-5.4103,-5.4103,-5.4103,-5.3994,-5.3496,-5.1876,-5.0697,-4.9385,-4.742,-4.6083,-4.5188,-4.4899,-4.4693,-4.4651,-4.4727,-4.4677,-4.4722,-4.4722,-4.4722,-4.4722,-4.4722,-4.4722,-4.4722,-4.4722,-4.4722,-4.4613,-4.4396,-4.4396,-4.4177,-4.3628,-4.3628,-4.3406,-4.2986,-4.2986,-4.2986,-4.2986,-4.2986,-4.26,-4.1623,-4.1028,-4.0198,-3.9359,-3.7002,-3.5949,-5.866,-6.4285,-6.9055,-7.6284,-7.825,-7.8536,-7.9028,-7.9774,-8.065,-8.1519,-7.5729,-7.0502,-7.0423,-6.7207,-6.4799,-6.5734,-6.8942,-7.2588,-7.6001,-7.5486,-7.5577,-7.7757,-7.7083,-7.6322,-7.6015,-7.5257,-7.4083,-7.2319,-7.1082,-6.9851,-6.8543,-6.8506,-6.8506,-6.8506,-6.8272,-6.7684,-6.6605,-6.6487,-6.6074,-6.5282,-6.5313,-6.5313,-6.5282,-6.5014,-6.4775,-6.4706,-6.4706,-6.4706,-6.4706,-6.4706,-6.4706,-6.4532,-6.2996,-6.1429,-5.9939,-5.8369,-5.6792,-5.5263,-5.468,-5.4438,-5.4542,-5.509,-5.5312,-5.5281,-5.5296,-5.5352,-5.5175,-5.4559,-5.4301,-5.419,-5.4057,-5.3883,-5.3471,-5.2418,-5.1455,-5.0242,-4.8179,-4.6936,-4.5959,-4.4968,-4.4655,-4.457,-4.4667,-4.4652,-4.4722,-4.4722,-4.4722,-4.4722,-4.4722,-4.4722,-4.4722,-4.4722,-4.4722,-4.4722,-4.4722,-4.4722,-4.4505,-4.4177,-4.4177,-4.3958,-4.3628,-4.3628,-4.3628,-4.3628,-4.3628,-4.3159,-4.2276,-4.2188,-4.1598,-4.0751,-3.8889,-3.7604,-6.2146,-6.6107,-6.83,-7.5615,-7.7872,-7.856,-7.9437,-8.0047,-8.0542,-8.0925,-7.5054,-6.9745,-6.9262,-6.0903,-5.4874,-5.7282,-5.5691,-5.7764,-6.8304,-6.8834,-7.0797,-7.7985,-7.792,-7.6967,-7.6092,-7.6015,-7.4964,-7.2472,-7.1161,-6.9934,-6.8543,-6.8506,-6.8506,-6.8506,-6.7878,-6.7268,-6.6605,-6.594,-6.5468,-6.5212,-6.4976,-6.4976,-6.5212,-6.4808,-6.4671,-6.4706,-6.4706,-6.4706,-6.4706,-6.4706,-6.4671,-6.4427,-6.2926,-6.1326,-5.9827,-5.8216,-5.6727,-5.5409,-5.5409,-5.5409,-5.5442,-5.5718,-5.5802,-5.5843,-5.5843,-5.5763,-5.5707,-5.5003,-5.4574,-5.4286,-5.3991,-5.3859,-5.3371,-5.1748,-5.1966,-5.1698,-4.8453,-4.7846,-4.7297,-4.5599,-4.4924,-4.4563,-4.4644,-4.4626,-4.4722,-4.4722,-4.4722,-4.4722,-4.4722,-4.4722,-4.4722,-4.4722,-4.4722,-4.4722,-4.4722,-4.4722,-4.4722,-4.4722,-4.4722,-4.4722,-4.4722,-4.4722,-4.4722,-4.4722,-4.4722,-4.4722,-4.4722,-4.4177,-4.3958,-4.3848,-4.1963,-4.0082,-6.4481,-6.9168,-7.3684,-7.5931,-7.7073,-7.7753,-7.8293,-7.9666,-7.9018,-7.2835,-6.6244,-5.9386,-5.2297,-5.4602,-5.7585,-5.7575,-6.7148,-7.5586,-7.8475,-7.7946,-7.7689,-7.8882,-7.8122,-7.7121,-7.6092,-7.6015,-7.52,-7.3306,-7.2316,-7.0809,-6.8628,-6.8506,-6.8506,-6.8506,-6.7878,-6.7268,-6.6605,-6.509,-6.4261,-6.4164,-6.3533,-6.3569,-6.4164,-6.3999,-6.4179,-6.4706,-6.4706,-6.4706,-6.4706,-6.4706,-6.4042,-6.2787,-6.1293,-5.9729,-5.8183,-5.658,-5.575,-5.5409,-5.5409,-5.5409,-5.5442,-5.5507,-5.5866,-5.6185,-5.5689,-5.5876,-5.6123,-5.5503,-5.4884,-5.4438,-5.4543,-5.4022,-5.3295,-5.2421,-5.2303,-5.1547,-4.8453,-4.8195,-4.7672,-4.5119,-4.4621,-4.463,-4.4679,-4.4647,-4.4722,-4.4722,-4.4722,-4.4722,-4.4722,-4.4722,-4.4722,-4.4722,-4.4722,-4.4722,-4.4722,-4.4722,-4.4722,-4.4722,-4.4722,-4.4722,-4.4722,-4.4722,-4.4722,-4.4722,-4.4722,-4.4722,-4.4722,-4.4505,-4.4505,-4.4505,-4.2526,-4.146,-6.8159,-7.1749,-7.4899,-7.5312,-7.6121,-7.6074,-7.3116,-7.3611,-7.2456,-6.427,-5.712,-5.0704,-4.5398,-4.8017,-5.1187,0.0,-6.1587,-7.0885,-7.5876,-7.5975,-7.6595,-7.9465,-7.8799,-7.7747,-7.6804,-7.6283,-7.5379,-7.3876,-7.2814,-7.1275,-6.9149,-6.8691,-6.8506,-6.8506,-6.763,-6.6722,-6.5914,-6.4433,-6.3815,-6.3948,-6.3326,-6.3326,-6.378,-6.365,-6.4004,-6.4706,-6.4356,-6.4391,-6.4706,-6.4706,-6.3763,-6.2266,-6.0716,-5.9131,-5.7593,-5.5994,-5.5409,-5.5409,-5.5409,-5.5409,-5.5409,-5.5474,-5.5975,-5.643,-5.5906,-5.621,-5.6638,-5.5919,-5.5374,-5.4946,-5.4674,-5.4204,-5.3746,-5.3233,-5.2599,-5.1424,-4.9304,-4.8565,-4.7635,-4.5358,-4.4784,-4.462,-4.4673,-4.4722,-4.4722,-4.4722,-4.4722,-4.4722,-4.4722,-4.4722,-4.4722,-4.4722,-4.4722,-4.4722,-4.4722,-4.4722,-4.4722,-4.4722,-4.4722,-4.4722,-4.4722,-4.4722,-4.4722,-4.4722,-4.4722,-4.4722,-4.4722,-4.4722,-4.4722,-4.4722,-4.3661,-4.2749,-7.2035,-7.3647,-7.3945,-7.4331,-7.5286,-7.4285,-6.7088,-6.6177,-6.4431,-5.5763,-4.884,-4.3998,-4.2846,-4.1978,-4.2447,-4.5715,0.0,-5.8635,-6.9577,-7.094,-7.3303,-7.9906,-7.9699,-7.8617,-7.7689,-7.6739,-7.5664,-7.4384,-7.2965,-7.1501,-6.9878,-6.9,-6.8457,-6.8408,-6.7213,-6.6089,-6.4972,-6.3928,-6.3506,-6.373,-6.3295,-6.3263,-6.3639,-6.3474,-6.3863,-6.4636,-6.4007,-6.4112,-6.4706,-6.4741,-6.3693,-6.1988,-6.064,-5.902,-5.7315,-5.5929,-5.5409,-5.5409,-5.5409,-5.5442,-5.5442,-5.5442,-5.5901,-5.6423,-5.6149,-5.648,-5.695,-5.6388,-5.5949,-5.5524,-5.4844,-5.4606,-5.4411,-5.4009,-5.2978,-5.1748,-5.0456,-4.8816,-4.707,-4.5813,-4.5096,-4.4705,-4.4725,-4.4722,-4.4722,-4.4722,-4.4722,-4.4722,-4.4722,-4.4722,-4.4722,-4.4722,-4.4722,-4.4722,-4.4722,-4.4722,-4.4722,-4.4722,-4.4722,-4.4722,-4.4722,-4.4722,-4.4722,-4.4722,-4.4722,-4.4722,-4.4722,-4.4722,-4.4722,-4.4722,-4.4722,-4.3797,-7.3298,-7.3573,-7.3833,-7.4294,-7.5248,-7.432,-6.7797,-6.6451,-6.2574,-4.8471,-4.4729,-4.1629,-3.3889,-3.8771,-4.6208,-5.3174,-6.1073,-6.9538,-7.8702,-7.9938,-8.0101,-8.0654,-8.0348,-7.9463,-7.776,-7.729,-7.6509,-7.5191,-7.3307,-7.1665,-7.0361,-6.9154,-6.8272,-6.7773,-6.7008,-6.5923,-6.4607,-6.3282,-6.235,-6.1752,-6.1084,-6.1371,-6.2631,-6.2596,-6.3361,-6.4693,-6.4564,-6.4567,-6.4741,-6.4846,-6.3171,-6.0497,-6.036,-5.8462,-5.575,-5.5474,-5.5409,-5.5409,-5.5409,-5.5507,-5.5685,-5.5263,-5.5623,-5.6144,-5.5869,-5.626,-5.6889,-5.67,-5.6199,-5.5765,-5.5743,-5.538,-5.4902,-5.4643,-5.4455,-5.3486,-5.0758,-4.7845,-4.5868,-4.6152,-4.5364,-4.4705,-4.4725,-4.4722,-4.4722,-4.4722,-4.4722,-4.4722,-4.4722,-4.4722,-4.4722,-4.4722,-4.4722,-4.4722,-4.4722,-4.4722,-4.4722,-4.4722,-4.4722,-4.4722,-4.4722,-4.4722,-4.4722,-4.4722,-4.4722,-4.4722,-4.4722,-4.4722,-4.4722,-4.4722,-4.4722,-4.4505,-7.4242,-7.3945,-7.3964,-7.462,-7.5132,-7.2761,-6.2284,-5.9852,-5.544,-4.0152,-3.711,-3.5687,-3.0828,-3.7629,-4.5142,-4.8863,-6.0581,-7.0653,-7.4831,-7.9338,-8.202,-8.1591,-8.0458,-7.9382,-7.8455,-7.7293,-7.6378,-7.5724,-7.4129,-7.2547,-7.1094,-6.9425,-6.8222,-6.7614,-6.6988,-6.6187,-6.5252,-6.3347,-6.2279,-6.2028,-6.1155,-6.1125,-6.1862,-6.1827,-6.2701,-6.4139,-6.3678,-6.3964,-6.4706,-6.4391,-6.2853,-6.0665,-6.0381,-5.8494,-5.5994,-5.5994,-5.575,-5.5409,-5.5409,-5.5621,-5.578,-5.5645,-5.5931,-5.6217,-5.58,-5.6199,-5.6761,-5.6761,-5.6511,-5.623,-5.6168,-5.5869,-5.5504,-5.4898,-5.3579,-5.1759,-4.9498,-4.7136,-4.5574,-4.5951,-4.5263,-4.473,-4.4696,-4.4722,-4.4722,-4.4722,-4.4613,-4.4531,-4.4531,-4.4422,-4.4313,-4.4531,-4.4531,-4.4422,-4.4313,-4.4313,-4.4313,-4.4531,-4.4531,-4.4531,-4.4722,-4.4722,-4.4722,-4.4722,-4.4722,-4.4722,-4.4722,-4.4722,-4.4613,-4.4531,-4.4613,-4.4613,-7.4369,-7.4412,-7.4342,-7.4903,-7.508,-7.1395,-5.7294,-5.385,-4.9324,-3.432,-3.1075,-3.0753,-3.0104,-3.574,-4.1156,0.0,-5.484,-6.5003,-6.8912,-7.5227,-8.0119,-8.2059,-8.0752,-7.9641,-7.9424,-7.7843,-7.6794,-7.6553,-7.5135,-7.3498,-7.1739,-6.9798,-6.8531,-6.8136,-6.7117,-6.6247,-6.5597,-6.3477,-6.2314,-6.2129,-6.1401,-6.123,-6.1516,-6.1511,-6.2357,-6.3832,-6.3185,-6.3502,-6.4427,-6.3833,-6.2603,-6.0984,-6.0597,-5.9053,-5.7066,-5.6938,-5.6483,-5.5897,-5.5621,-5.5653,-5.5873,-5.6062,-5.623,-5.6388,-5.601,-5.6388,-5.6761,-5.6761,-5.6761,-5.67,-5.6388,-5.623,-5.5992,-5.4971,-5.2672,-5.0232,-4.8509,-4.6963,-4.5858,-4.5608,-4.5154,-4.4722,-4.4722,-4.4613,-4.4613,-4.4613,-4.4422,-4.4203,-4.4203,-4.401,-4.401,-4.4094,-4.4203,-4.4094,-4.3899,-4.3899,-4.401,-4.4203,-4.4209,-4.4292,-4.4613,-4.4617,-4.4617,-4.4722,-4.4613,-4.4613,-4.4722,-4.4613,-4.4422,-4.4313,-4.4422,-4.4422,-7.3131,-7.4809,-7.5002,-7.5,-7.5233,-7.1887,-5.8116,-5.423,-4.9494,-3.4918,-3.1318,-3.0622,-3.0036,-3.0688,-3.4199,-4.3053,-4.513,-5.1473,-6.8046,-7.0405,-7.3355,-8.1362,-8.1967,-8.136,-8.0357,-7.9941,-7.9327,-7.8353,-7.6112,-7.3949,-7.1901,-7.0368,-6.9632,-6.9681,-6.7652,-6.5917,-6.4468,-6.3101,-6.1687,-6.0317,-6.0247,-6.0979,-6.231,-6.2329,-6.3181,-6.4567,-6.4495,-6.4181,-6.3728,-6.3763,-6.2361,-6.0282,-6.109,-6.0268,-5.8594,-5.7986,-5.7626,-5.738,-5.6206,-5.5929,-5.6085,-5.6311,-5.6419,-5.6449,-5.6669,-5.673,-5.6761,-5.6761,-5.6761,-5.6761,-5.673,-5.673,-5.6361,-5.5039,-5.3434,-5.1768,-4.9747,-4.8183,-4.6736,-4.5795,-4.5154,-4.4722,-4.4722,-4.4531,-4.4313,-4.4313,-4.4094,-4.3899,-4.3899,-4.3899,-4.3764,-4.3517,-4.3764,-4.3899,-4.3899,-4.3899,-4.3899,-4.3899,-4.3821,-4.3985,-4.4287,-4.4359,-4.4439,-4.4722,-4.4422,-4.4422,-4.4722,-4.4203,-4.4119,-4.4313,-4.4119,-4.4119,-7.3724,-7.5167,-7.5097,-7.5306,-7.2345,-6.6874,-5.7224,-5.0672,-4.3869,-3.3985,-3.0909,-3.0001,-2.9863,-2.9985,-3.1571,-3.6061,-4.0874,-4.6784,-5.4606,-5.9959,-6.6093,-7.4282,-7.464,-7.5896,-8.0168,-7.9815,-7.8889,-7.7852,-7.6174,-7.4524,-7.3035,-7.0983,-6.9841,-6.9889,-6.7744,-6.6374,-6.5872,-6.4144,-6.2974,-6.2505,-6.1424,-6.1559,-6.2541,-6.1506,-6.187,-6.3309,-6.2822,-6.2718,-6.2856,-6.2463,-6.1682,-6.0797,-6.0691,-6.0229,-5.9561,-5.9306,-5.8619,-5.7773,-5.7315,-5.6734,-5.6119,-5.6367,-5.648,-5.6669,-5.673,-5.6761,-5.6761,-5.6761,-5.6761,-5.6761,-5.6761,-5.655,-5.6182,-5.5248,-5.3462,-5.1653,-5.0564,-4.8936,-4.7242,-4.5978,-4.5635,-4.5127,-4.4313,-4.4094,-4.4119,-4.4119,-4.3764,-4.3628,-4.3628,-4.3432,-4.3305,-4.3169,-4.3424,-4.35,-4.3387,-4.3361,-4.345,-4.3623,-4.3599,-4.3677,-4.4019,-4.4151,-4.4335,-4.4439,-4.4565,-4.4613,-4.4722,-4.4531,-4.4313,-4.4119,-4.4094,-4.3874,-7.1554,-7.4083,-7.5233,-7.5501,-7.0362,-6.3511,-5.6575,-4.8503,-4.0463,-3.335,-3.0809,-2.9904,-3.0154,-3.0309,-3.0842,-3.2173,-3.754,-4.2753,-4.6169,-5.2016,-5.8814,-6.6639,-6.6712,-6.9185,-7.6887,-7.8592,-7.8657,-7.7391,-7.635,-7.5163,-7.3764,-7.1626,-7.0303,-6.9889,-6.7744,-6.6555,-6.6547,-6.4706,-6.3806,-6.376,-6.2499,-6.2181,-6.2634,-6.1436,-6.1383,-6.2363,-6.1876,-6.1774,-6.2048,-6.1536,-6.1143,-6.0966,-6.0797,-6.0784,-6.0769,-6.0773,-6.0096,-5.9076,-5.8393,-5.754,-5.673,-5.6638,-5.6669,-5.6761,-5.6761,-5.6761,-5.6761,-5.6761,-5.6761,-5.6761,-5.6761,-5.6584,-5.6087,-5.5267,-5.3758,-5.2162,-5.0807,-4.9421,-4.7885,-4.6188,-4.582,-4.5422,-4.4094,-4.3789,-4.3764,-4.3764,-4.3517,-4.3295,-4.3295,-4.3169,-4.3026,-4.2946,-4.3099,-4.3182,-4.3012,-4.296,-4.3018,-4.3231,-4.3254,-4.3356,-4.3645,-4.3883,-4.4071,-4.4336,-4.4385,-4.4565,-4.4722,-4.4531,-4.4313,-4.3899,-4.4119,-4.3764,-6.5441,-7.1128,-7.5577,-7.5501,-7.0362,-6.3483,-5.6582,-4.8984,-4.1206,-3.3481,-3.1196,-3.0694,-3.101,-3.1156,-3.1859,-3.3866,-3.4301,-3.7699,-4.7159,-4.8599,-5.1625,-5.9452,-5.968,-6.2193,-6.9784,-7.6298,-7.9314,-7.7429,-7.699,-7.5883,-7.3802,-7.2453,-7.1231,-6.9975,-6.7744,-6.6301,-6.5711,-6.4456,-6.3559,-6.2981,-6.2946,-6.2875,-6.2733,-6.2698,-6.2563,-6.2422,-6.2422,-6.1941,-6.1347,-6.1312,-6.0797,-6.0276,-6.1764,-6.2386,-6.2364,-6.2366,-6.237,-6.1952,-5.9343,-5.835,-5.8208,-5.717,-5.6761,-5.6761,-5.6761,-5.6761,-5.6761,-5.6761,-5.6761,-5.6761,-5.6761,-5.6761,-5.6383,-5.4933,-5.4586,-5.3674,-5.0457,-4.9766,-4.8929,-4.6034,-4.5502,-4.5208,-4.4094,-4.3653,-4.3406,-4.3406,-4.3184,-4.2986,-4.2986,-4.3034,-4.3028,-4.3028,-4.2915,-4.2892,-4.2892,-4.2892,-4.2866,-4.2866,-4.2858,-4.3008,-4.3385,-4.3392,-4.3659,-4.4309,-4.3992,-4.4066,-4.4722,-4.4203,-4.3899,-4.3899,-4.3899,-4.3543,-6.1096,-6.3274,-6.4084,-6.348,-5.8135,-5.2332,-4.9491,-4.2366,-3.5647,-3.3164,-3.1682,-3.1054,-3.1851,-3.2165,-3.29,-3.4841,-3.5174,-3.6663,-4.0865,-4.5593,0.0,-5.8546,-6.757,-7.4016,0.0,0.0,-7.8192,-7.7381,-7.6647,-7.5212,-7.2775,-7.2278,-7.1417,-6.9975,-6.8194,-6.7103,-6.668,-6.5862,-6.5233,-6.4927,-6.4266,-6.3847,-6.3605,-6.2422,-6.1799,-6.1658,-6.1072,-6.0691,-6.0452,-6.0452,-6.0656,-6.1002,-6.1453,-6.2305,-6.3199,-6.3238,-6.2683,-6.1918,-6.1177,-5.9646,-5.7987,-5.7766,-5.7294,-5.6761,-5.6761,-5.6761,-5.6761,-5.6761,-5.6761,-5.6761,-5.6761,-5.6439,-5.5986,-5.518,-5.4491,-5.3525,-5.1641,-5.1116,-5.0196,-4.7903,-4.6813,-4.5899,-4.4696,-4.3738,-4.3073,-4.3073,-4.3073,-4.2947,-4.3008,-4.3022,-4.3041,-4.2968,-4.291,-4.2907,-4.2907,-4.2907,-4.2849,-4.2851,-4.2861,-4.2959,-4.3049,-4.3264,-4.3546,-4.391,-4.4124,-4.4387,-4.4722,-4.4531,-4.4313,-4.4094,-4.3321,-4.2874,-5.5963,-5.7936,-5.8873,-5.8318,-5.2786,-4.7269,-4.6645,-4.0075,-3.4051,-3.3631,-3.266,-3.209,-3.2762,-3.3104,-3.3801,-3.5341,-3.5879,-3.7406,-4.1111,-4.5663,0.0,-5.7304,-6.8297,0.0,0.0,-7.6238,-7.7542,-7.6916,-7.6342,-7.5111,-7.304,-7.2434,-7.1546,-7.0134,-6.849,-6.7523,-6.736,-6.6582,-6.6161,-6.6074,-6.5197,-6.4408,-6.3641,-6.2493,-6.1524,-6.0797,-6.0346,-6.0311,0.0,-6.0522,-6.1037,-6.1764,-6.2064,-6.2743,-6.3658,-6.3728,-6.3309,-6.2614,-6.2085,-6.0759,-5.9074,-5.8435,-5.7514,-5.6761,-5.6761,-5.6761,-5.6761,-5.6761,-5.6659,-5.6494,-5.6433,-5.6047,-5.5421,-5.4917,-5.4416,-5.3638,-5.2515,-5.1871,-5.0871,-4.8979,-4.7829,-4.6632,-4.4993,-4.4152,-4.3517,-4.3073,-4.2986,-4.3008,-4.2971,-4.2931,-4.297,-4.295,-4.2858,-4.2923,-4.2923,-4.2923,-4.2888,-4.29,-4.29,-4.29,-4.29,-4.3155,-4.3425,-4.3748,-4.4016,-4.4282,-4.4722,-4.4613,-4.4422,-4.4094,-4.2986,-4.2425,0.0,-5.4406,-5.7929,-5.7891,-5.2437,-4.7023,-4.6847,-4.125,0.0,-3.4839,-3.4175,-3.3847,-3.3992,-3.4198,-3.4738,-3.5724,-3.6493,-3.9461,-4.6476,-4.8938,0.0,0.0,-6.4379,0.0,-6.6213,-7.3107,-7.731,-7.6287,-7.6079,-7.5434,-7.4159,-7.2888,-7.1628,-7.0411,-6.8605,-6.772,-6.7826,-6.6765,-6.6355,-6.651,-6.5806,-6.4586,-6.2952,-6.2804,-6.1764,-6.0177,-6.0177,-6.0656,-6.1383,-6.1389,-6.1806,-6.2541,-6.3304,-6.3658,-6.3728,-6.4007,-6.4078,-6.3833,-6.2259,-6.1649,-6.1193,-5.8966,-5.7642,-5.692,-5.6761,-5.6761,-5.6761,-5.673,-5.6359,-5.5872,-5.5862,-5.5441,-5.4917,-5.4406,-5.4304,-5.3921,-5.2791,-5.2078,-5.1106,-4.9473,-4.8443,-4.7177,-4.5208,-4.467,-4.4261,-4.3184,-4.3048,-4.3042,-4.3028,-4.2969,-4.2916,-4.2944,-4.2905,-4.29,-4.29,-4.29,-4.29,-4.29,-4.29,-4.29,-4.29,-4.29,-4.3148,-4.385,-4.3827,-4.4098,-4.4722,-4.4422,-4.4203,-4.3899,-4.2986,-4.2312,-4.8048,0.0,-4.7511,-4.6916,-4.4882,-4.2776,0.0,-3.9948,-3.7928,-3.6996,-3.6819,-3.6894,-3.6926,-3.7088,-3.7525,-3.8438,-3.8218,-4.0537,-4.8139,-5.7415,0.0,-7.2477,-7.4265,-7.4732,-7.4119,-7.5711,-7.6651,-7.6248,-7.6079,-7.5434,-7.4159,-7.2888,-7.1628,-7.0411,-6.9022,-6.8158,-6.7777,-6.7067,-6.6671,-6.6478,-6.5725,-6.4534,-6.2956,-6.2823,-6.2075,-6.1037,-6.1037,-6.1453,-6.2181,-6.2115,-6.2608,-6.3339,-6.3518,-6.3972,-6.4427,-6.4147,-6.3895,-6.3623,-6.2921,-6.1998,-6.0812,-5.881,-5.8018,-5.7735,-5.6981,-5.6761,-5.67,-5.623,-5.5979,-5.5861,-5.5426,-5.4894,-5.4509,-5.4304,-5.3993,-5.3535,-5.282,-5.2078,-5.1338,-5.0471,-4.8341,-4.6528,-4.6032,-4.4561,-4.3295,-4.3098,-4.2941,-4.3003,-4.2943,-4.289,-4.2918,-4.2851,-4.2858,-4.29,-4.29,-4.29,-4.29,-4.29,-4.29,-4.29,-4.29,-4.29,-4.3148,-4.385,-4.4204,-4.4568,-4.4722,-4.4613,-4.4313,-4.3899,-4.3209,-4.2037,-4.7859,-4.6236,-4.4619,-4.3756,-4.2585,-4.1591,-4.1464,-4.0471,-3.9406,-3.8858,-3.8613,-3.8238,-3.744,-3.7128,-3.7278,-3.8179,-3.9917,-4.3899,-5.1726,-5.8513,-6.5251,-7.2253,-7.265,-7.3571,0.0,-7.666,-7.6457,-7.6366,-7.6133,-7.5725,-7.5002,-7.375,-7.251,-7.1278,-7.0405,-6.9527,-6.8712,-6.7487,-6.7026,-6.7206,-6.5823,-6.4539,-6.3344,-6.3211,-6.2599,-6.1799,-6.1822,-6.2248,-6.2978,-6.2958,-6.3414,-6.4112,-6.4112,-6.4217,-6.4391,-6.4007,-6.3643,-6.3294,-6.2876,-6.1998,-6.0772,-5.9328,-5.8585,-5.7987,-5.673,-5.6419,-5.6322,-5.5956,-5.5531,-5.5086,-5.4805,-5.4361,-5.389,-5.389,-5.371,-5.3413,-5.3065,-5.2514,-5.1875,-5.1236,-4.9608,-4.7921,-4.6478,-4.5289,-4.4126,-4.3184,-4.3059,-4.3012,-4.2945,-4.2884,-4.2931,-4.2955,-4.29,-4.29,-4.29,-4.29,-4.29,-4.29,-4.29,-4.29,-4.29,-4.29,-4.3148,-4.385,-4.436,-4.4722,-4.4722,-4.4722,-4.4313,-4.3432,-4.3209,-4.181,-4.8553,-4.7763,-4.6502,-4.4884,-4.3304,-4.2318,-4.2832,-4.1716,-4.0531,-4.0334,-3.9854,-3.8888,-3.7175,-3.6485,-3.6377,-3.7019,-4.2586,-4.9473,-5.6926,-5.8867,-6.1725,-6.7638,-6.8366,0.0,-7.642,-7.6715,-7.6516,-7.6496,-7.6212,-7.6005,-7.6015,-7.4785,-7.3527,-7.2243,-7.17,-7.093,-6.9904,-6.8123,-6.7444,-6.7893,-6.5995,-6.465,-6.3763,-6.367,-6.32,-6.2611,-6.2573,-6.2996,-6.3623,-6.3623,-6.4007,-6.4497,-6.4497,-6.4356,-6.4077,-6.3729,-6.3353,-6.2944,-6.2561,-6.1852,-6.1088,-6.0147,-5.9156,-5.8018,-5.6511,-5.5877,-5.5675,-5.5651,-5.4983,-5.4299,-5.4185,-5.3815,-5.35,-5.35,-5.35,-5.35,-5.35,-5.3007,-5.2397,-5.1875,-5.1049,-4.9652,-4.7191,-4.6401,-4.5475,-4.35,-4.3125,-4.299,-4.2918,-4.288,-4.2923,-4.2928,-4.29,-4.29,-4.29,-4.29,-4.29,-4.29,-4.29,-4.29,-4.29,-4.2966,-4.3237,-4.3748,-4.436,-4.4722,-4.4722,-4.4613,-4.4068,-4.2986,-4.2874,-4.1444,-4.8593,-5.0751,-5.2017,-4.6854,-4.4938,-4.4122,-4.3308,-4.2525,-4.1695,-4.0885,-4.0626,-4.0006,-3.8284,-3.8462,-3.8706,-3.8114,-4.8521,-5.867,-6.4257,-7.0119,-7.4255,-7.5328,0.0,-7.5845,-7.6887,-7.6791,-7.663,-7.6496,-7.6297,-7.6133,-7.6015,-7.4785,-7.3527,-7.2243,-7.1168,-7.0661,-7.0698,-6.9249,-6.8037,-6.7064,-6.5888,-6.4775,-6.3763,-6.3482,-6.3377,-6.3412,-6.3448,-6.3484,-6.3623,-6.3623,-6.3693,-6.3763,-6.3763,-6.3868,-6.4044,-6.3721,-6.3315,-6.2944,-6.2561,-6.2313,-6.2032,-6.1088,-5.9816,-5.8522,-5.7483,-5.5922,-5.4554,-5.4567,-5.4387,-5.4194,-5.3798,-5.35,-5.35,-5.35,-5.35,-5.35,-5.35,-5.3007,-5.2543,-5.2455,-5.0698,-4.9126,-4.8705,-4.6567,-4.4809,-4.4415,-4.3572,-4.2918,-4.2955,-4.2869,-4.2885,-4.29,-4.29,-4.29,-4.29,-4.29,-4.29,-4.29,-4.29,-4.29,-4.29,-4.3352,-4.369,-4.3748,-4.436,-4.4722,-4.4722,-4.4203,-4.3653,-4.2986,-4.2425,-4.0524,-4.8036,-4.8463,-4.9266,-4.9633,-5.1347,-5.2923,-5.2846,-5.1949,-5.0234,-4.6991,-4.597,-4.3981,-3.8573,-4.0931,-4.572,-5.1836,-5.5847,-6.019,-6.5854,-6.6219,-6.7259,0.0,0.0,-7.2929,-7.6632,-7.6858,-7.6682,-7.6516,-7.6281,-7.6121,-7.6015,-7.5434,-7.4451,-7.2965,-7.277,-7.2164,-7.0871,-7.0239,-6.9479,-6.8553,-6.6459,-6.4953,-6.418,-6.352,-6.3136,-6.2961,-6.2961,-6.2961,-6.2926,-6.2951,-6.2943,-6.2978,-6.2958,-6.2787,-6.2509,-6.1953,-6.1818,-6.2032,-6.1818,-6.2066,-6.2279,-6.1335,-6.001,-5.8574,-5.734,-5.5649,-5.4253,-5.3972,-5.3838,-5.378,-5.3559,-5.35,-5.35,-5.35,-5.35,-5.35,-5.35,-5.3297,-5.2978,-5.263,-5.1667,-5.0492,-4.9267,-4.7448,-4.5795,-4.4783,-4.3651,-4.2865,-4.2924,-4.2932,-4.29,-4.29,-4.29,-4.29,-4.29,-4.29,-4.29,-4.29,-4.29,-4.29,-4.29,-4.3312,-4.3645,-4.3774,-4.4254,-4.4505,-4.4722,-4.4203,-4.3543,-4.2986,-4.1696,-3.9686,-4.735,-4.6706,-4.7272,-5.1585,-5.415,-5.6493,-5.9842,-5.8579,-5.5913,-5.3335,-5.2313,-4.9251,-4.0665,-4.3408,-5.0631,-6.169,-6.1541,-6.2175,-6.8273,-6.4544,-6.3176,-6.8483,-6.9158,-7.1252,-7.6493,-7.691,-7.6747,-7.6575,-7.6389,-7.6199,-7.6062,-7.6005,-7.5257,-7.368,-7.4159,-7.3336,-7.1093,-7.0745,-7.0212,-6.9409,-6.6691,-6.4944,-6.4161,-6.338,-6.2748,-6.2366,-6.2366,-6.2296,-6.2121,-6.2129,-6.2146,-6.2117,-6.2045,-6.1674,-6.1084,-6.0401,-6.0459,-6.1052,-6.0987,-6.1503,-6.2032,-6.1335,-6.0002,-5.856,-5.722,-5.5677,-5.4223,-5.3693,-5.35,-5.35,-5.35,-5.35,-5.35,-5.35,-5.35,-5.35,-5.35,-5.35,-5.3355,-5.2891,-5.2688,-5.2018,-5.0189,-4.8702,-4.7257,-4.5434,-4.4246,-4.3326,-4.2938,-4.2878,-4.29,-4.29,-4.29,-4.29,-4.29,-4.29,-4.29,-4.29,-4.29,-4.29,-4.29,-4.3178,-4.3486,-4.3748,-4.4149,-4.4401,-4.4613,-4.3984,-4.3432,-4.2986,-4.0846,-3.8957,-4.6761,-4.9024,-5.1395,-5.1433,-4.718,-4.5924,-5.6994,-5.4709,-5.1734,-5.7063,-5.8086,-5.5436,-4.6834,-4.5711,-4.8727,-5.6853,-6.3282,-6.9375,-7.539,-7.584,-7.5686,-7.622,-7.6259,-7.6454,-7.696,-7.6999,-7.691,-7.6715,-7.6575,-7.6411,-7.6224,-7.6052,-7.5411,-7.4135,-7.3744,-7.292,-7.1552,-7.036,-6.911,-6.774,-6.6038,-6.4563,-6.3358,-6.2536,-6.2223,-6.2428,-6.2428,-6.2046,-6.1389,-6.1418,-6.1383,-6.1347,-6.0973,-6.0804,-6.0686,-6.0228,-6.0159,-6.0149,-6.0179,-6.074,-6.1369,-6.1335,-6.0181,-5.8659,-5.8009,-5.6183,-5.4223,-5.3693,-5.35,-5.35,-5.35,-5.35,-5.35,-5.35,-5.35,-5.35,-5.35,-5.35,-5.35,-5.3442,-5.2978,-5.2543,-5.2323,-5.0743,-4.8979,-4.7291,-4.5968,-4.4672,-4.309,-4.29,-4.29,-4.29,-4.29,-4.29,-4.29,-4.29,-4.29,-4.29,-4.29,-4.29,-4.29,-4.3202,-4.3392,-4.3412,-4.394,-4.4332,-4.4313,-4.3432,-4.3098,-4.2961,-4.0384,-3.8625,-4.5673,-4.8505,-5.1535,-5.0841,-4.8006,-4.8668,-6.131,-6.2772,-6.195,-6.3668,-6.4097,-6.1888,-5.442,-5.5747,-5.9089,-6.2612,-6.9064,-7.4375,-7.6679,-7.6984,-7.6983,-7.6983,-7.7004,-7.7004,-7.6999,-7.7011,-7.6897,-7.6731,-7.6575,-7.6394,-7.6219,-7.6079,-7.5648,-7.4849,-7.3944,-7.2922,-7.164,-6.9818,-6.8173,-6.6642,-6.6007,-6.4821,-6.3129,-6.2305,-6.1623,-6.1002,-6.1002,-6.0797,-6.0522,-6.0522,-6.0417,-6.0148,-5.9563,-5.9316,-5.9298,-5.8846,-5.9021,-5.9434,-5.9411,-5.9919,-6.068,-6.1143,-5.9868,-5.8067,-5.7899,-5.6179,-5.4223,-5.3693,-5.35,-5.35,-5.35,-5.35,-5.35,-5.35,-5.35,-5.35,-5.35,-5.35,-5.35,-5.35,-5.3326,-5.3036,-5.263,-5.1667,-5.0554,-4.9552,-4.7447,-4.5829,-4.5122,-4.3822,-4.29,-4.29,-4.29,-4.29,-4.29,-4.29,-4.29,-4.29,-4.29,-4.29,-4.29,-4.3049,-4.3238,-4.3412,-4.3572,-4.3932,-4.4313,-4.3432,-4.2874,-4.2625,-3.9405,-3.7506,-4.3568,-4.5145,-4.7537,-4.9089,-4.8938,-5.1686,-6.4295,-6.6052,-6.5947,-6.9393,-6.848,-6.578,-6.1397,-6.3301,-6.5892,-6.6824,-7.2578,-7.6953,-7.6991,-7.7011,-7.6994,-7.6994,-7.7004,-7.7004,-7.6999,-7.7022,-7.696,-7.6816,-7.6591,-7.6438,-7.6278,-7.6121,-7.5745,-7.5139,-7.4072,-7.2695,-7.1056,-6.9335,-6.755,-6.5689,-6.5663,-6.4598,-6.2709,-6.1965,-6.1072,-6.0107,-6.0107,-6.0142,-6.0177,-6.0107,-5.9814,-5.9386,-5.8866,-5.8502,-5.8259,-5.8022,-5.8191,-5.8676,-5.8676,-5.9123,-5.9808,-6.0351,-5.951,-5.8214,-5.7651,-5.6385,-5.4756,-5.378,-5.35,-5.35,-5.35,-5.35,-5.35,-5.35,-5.35,-5.35,-5.35,-5.35,-5.35,-5.35,-5.35,-5.3384,-5.3127,-5.2733,-5.218,-5.1432,-4.9037,-4.7221,-4.6728,-4.4829,-4.3389,-4.3199,-4.3009,-4.29,-4.29,-4.29,-4.29,-4.29,-4.29,-4.29,-4.29,-4.2861,-4.3051,-4.3178,-4.3389,-4.3643,-4.3958,-4.3295,-4.2737,-4.2287,-3.9288,-3.7243,-4.0334,-3.9047,-3.9319,-4.6042,-4.8976,-5.326,-6.4694,-6.1973,-6.0718,-7.3721,-7.1021,-6.6533,-6.7348,-6.696,-6.678,-6.7638,-7.2851,-7.6835,-7.6995,-7.6995,-7.6999,-7.6999,-7.6999,-7.6999,-7.6999,-7.6999,-7.6999,-7.6999,-7.6708,-7.6493,-7.6493,-7.6185,-7.5592,-7.4755,-7.3918,-7.231,-6.9841,-6.8912,-6.7232,-6.477,-6.477,-6.375,-6.1892,-6.1292,-6.0691,-6.0107,-6.0107,-6.0177,-6.0381,-6.0177,-5.9663,-5.8987,-5.9021,-5.8535,-5.7881,-5.7881,-5.7881,-5.7881,-5.7881,-5.84,-5.8987,-5.9021,-5.9355,-5.9477,-5.7432,-5.6637,-5.6018,-5.4031,-5.35,-5.35,-5.35,-5.35,-5.35,-5.35,-5.35,-5.35,-5.35,-5.35,-5.35,-5.35,-5.35,-5.371,-5.42,-5.4179,-5.3724,-5.2645,-5.0916,-4.9057,-4.7419,-4.5724,-4.4474,-4.385,-4.3253,-4.29,-4.29,-4.29,-4.29,-4.29,-4.29,-4.29,-4.29,-4.29,-4.2923,-4.284,-4.3205,-4.336,-4.3381,-4.3073,-4.2737,-4.2061,-4.0152,-3.8127,-4.0773,-4.6817,-5.2709,-4.87,-5.4939,-6.2977,-6.6491,-6.6049,-6.6987,-7.4564,-7.4513,-7.1772,-6.7465,-7.0484,-7.2166,-6.7673,-7.2561,-7.6953,-7.7005,-7.702,-7.6994,-7.6994,-7.6994,-7.6983,-7.6999,-7.6999,-7.696,-7.6804,-7.663,-7.6427,-7.6299,-7.5523,-7.4985,-7.4716,-7.2794,-7.0823,-6.8889,-6.7505,-6.5829,-6.3981,-6.3981,-6.3222,-6.1892,-6.1709,-6.1072,-6.0107,-6.0276,-6.0276,-6.0142,-5.9832,-5.9434,-5.8972,-5.8763,-5.8366,-5.7881,-5.7881,-5.7881,-5.7881,-5.7881,-5.8056,-5.8332,-5.8812,-5.8355,-5.7448,-5.6988,-5.5875,-5.4726,-5.378,-5.35,-5.35,-5.35,-5.35,-5.35,-5.35,-5.35,-5.35,-5.35,-5.35,-5.35,-5.35,-5.35,-5.371,-5.42,-5.4565,-5.486,-5.4849,-5.2378,-4.9207,-4.5907,-4.5176,-4.4884,-4.472,-4.4529,-4.442,-4.442,-4.4065,-4.3721,-4.3497,-4.3312,-4.3067,-4.29,-4.29,-4.2923,-4.284,-4.2971,-4.3122,-4.3381,-4.3073,-4.2762,-4.2287,-4.0129,-3.8104,-4.1178,-4.6991,-5.3177,-5.4188,-6.0604,-6.7358,-7.0131,-7.1108,-7.2341,-7.5504,-7.6147,-7.4963,-7.1046,-7.3801,-7.5338,-7.1285,-7.4165,-7.6952,-7.6972,-7.6985,-7.6983,-7.6983,-7.6983,-7.7022,-7.6999,-7.6999,-7.6921,-7.6727,-7.6572,-7.6402,-7.6208,-7.526,-7.4562,-7.4207,-7.2129,-7.0023,-6.8049,-6.6751,-6.5262,-6.3602,-6.3602,-6.3111,-6.2188,-6.2018,-6.1213,-6.0107,-6.0219,-6.0219,-6.0072,-5.9797,-5.9418,-5.898,-5.8663,-5.8332,-5.7881,-5.7881,-5.7881,-5.7881,-5.7881,-5.7881,-5.7949,-5.8434,-5.7848,-5.688,-5.6467,-5.5567,-5.4449,-5.3704,-5.3424,-5.3319,-5.353,-5.35,-5.35,-5.35,-5.35,-5.35,-5.35,-5.35,-5.35,-5.35,-5.35,-5.371,-5.4509,-5.4302,-5.4327,-5.5129,-5.2317,-4.8865,-4.5614,-4.513,-4.5166,-4.5266,-4.4947,-4.482,-4.5039,-4.4666,-4.4248,-4.4022,-4.3796,-4.348,-4.331,-4.3047,-4.2923,-4.284,-4.2866,-4.3016,-4.3295,-4.3073,-4.2737,-4.2287,-4.0731,-3.858,-4.1967,-4.3483,-4.7164,-6.1186,-6.582,-6.8497,-7.4615,-7.6237,-7.6397,-7.6374,-7.6397,-7.6397,-7.6421,-7.651,-7.6626,-7.6685,-7.6778,-7.6873,-7.6994,-7.6999,-7.6999,-7.6999,-7.6999,-7.6999,-7.6999,-7.6999,-7.6921,-7.6688,-7.6571,-7.6352,-7.6079,-7.5136,-7.4207,-7.3405,-7.1772,-6.9756,-6.7443,-6.6519,-6.5299,-6.3713,-6.3639,-6.326,-6.2604,-6.2126,-6.1213,-6.0135,-6.0175,-6.0158,-6.0148,-5.9937,-5.9558,-5.9055,-5.88,-5.84,-5.7915,-5.7881,-5.7881,-5.7881,-5.7881,-5.7881,-5.7881,-5.7881,-5.778,-5.7387,-5.6115,-5.5323,-5.4736,-5.382,-5.3348,-5.3164,-5.3424,-5.35,-5.35,-5.35,-5.35,-5.35,-5.35,-5.35,-5.35,-5.35,-5.3605,-5.3919,-5.5018,-5.3904,-5.3157,-5.3844,-5.1063,-4.8136,-4.6079,-4.5449,-4.5293,-4.5492,-4.4853,-4.4573,-4.5194,-4.4975,-4.4672,-4.434,-4.4286,-4.4055,-4.3774,-4.3237,-4.2984,-4.2997,-4.2918,-4.2956,-4.3025,-4.3025,-4.2775,-4.2209,-4.1638,-3.9708,-4.5285,-5.3144,-6.2287,-6.4282,-6.9546,-7.4579,-7.6002,-7.6374,-7.6311,-7.6121,-7.6262,-7.6421,-7.6531,-7.6612,-7.6715,-7.6761,-7.6875,-7.6961,-7.6983,-7.6999,-7.6999,-7.6999,-7.6999,-7.6999,-7.6999,-7.6999,-7.6882,-7.6571,-7.6532,-7.607,-7.5079,-7.4225,-7.337,-7.2531,-7.086,-6.9417,-6.8283,-6.6826,-6.5568,-6.4547,-6.3899,-6.3074,-6.2077,-6.1982,-6.1213,-6.0107,-6.0473,-6.0668,-6.063,-6.0399,-6.0163,-5.9838,-5.9037,-5.8535,-5.8366,-5.8056,-5.7881,-5.7881,-5.7881,-5.7881,-5.7881,-5.7746,-5.7263,-5.6635,-5.6019,-5.507,-5.407,-5.3569,-5.3319,-5.3136,-5.3213,-5.3319,-5.35,-5.35,-5.35,-5.35,-5.35,-5.35,-5.3605,-5.3993,-5.4097,-5.4509,-5.5521,-5.54,-5.4421,-5.2222,-4.9795,-4.7661,-4.582,-4.5623,-4.5663,-4.5761,-4.5896,-4.6072,-4.6384,-4.5778,-4.5267,-4.524,-4.463,-4.4055,-4.3774,-4.3739,-4.3597,-4.3547,-4.3573,-4.3584,-4.3597,-4.3597,-4.3481,-4.3364,-4.2988,-4.1852,-4.8068,-5.4477,-6.1579,-6.8137,-7.3132,-7.6444,-7.6421,-7.6397,-7.6374,-7.6237,-7.6287,-7.6421,-7.6488,-7.6612,-7.6721,-7.6739,-7.6874,-7.6984,-7.6983,-7.6999,-7.6999,-7.6999,-7.6999,-7.6999,-7.6999,-7.6921,-7.6765,-7.6532,-7.6044,-7.5453,-7.4745,-7.3524,-7.2594,-7.194,-7.046,-6.9193,-6.8197,-6.6807,-6.5626,-6.477,-6.3981,-6.3124,-6.2205,-6.1041,-6.0452,-6.0417,-6.0198,-6.0375,-6.0653,-6.0662,-6.0645,-6.0427,-5.9806,-5.9286,-5.8744,-5.8468,-5.8157,-5.7881,-5.7881,-5.7881,-5.7881,-5.764,-5.7077,-5.6303,-5.5927,-5.4981,-5.3873,-5.3635,-5.3319,-5.3107,-5.2894,-5.3001,-5.3107,-5.3319,-5.3424,-5.35,-5.35,-5.35,-5.3605,-5.42,-5.4304,-5.4611,-5.572,-5.465,-5.2847,-5.0338,-4.8154,-4.6468,-4.5384,-4.5283,-4.5414,-4.5511,-4.5872,-4.6173,-4.6349,-4.6113,-4.5759,-4.534,-4.4967,-4.4598,-4.4256,-4.4256,-4.4095,-4.3687,-4.3713,-4.3714,-4.3708,-4.3708,-4.3826,-4.3943,-4.3448,-4.2449,-4.9048,-5.2704,-5.7217,-7.1605,-7.573,-7.625,-7.6405,-7.6444,-7.6444,-7.6444,-7.6421,-7.6397,-7.6436,-7.6588,-7.6747,-7.6738,-7.6907,-7.7023,-7.6983,-7.6999,-7.6999,-7.6999,-7.6999,-7.6999,-7.6999,-7.6804,-7.6649,-7.6493,-7.5553,-7.4822,-7.4486,-7.3042,-7.1947,-7.1378,-7.031,-6.9186,-6.8123,-6.6797,-6.5766,-6.5039,-6.3981,-6.3232,-6.2796,-6.0271,-5.9646,-6.0579,-5.9937,-6.0052,-6.0564,-6.0907,-6.1096,-6.109,-6.0697,-5.9984,-5.9148,-5.8996,-5.8468,-5.7881,-5.7848,-5.7848,-5.7814,-5.7572,-5.692,-5.6089,-5.5869,-5.502,-5.4006,-5.3698,-5.3395,-5.3078,-5.2894,-5.2787,-5.2787,-5.3107,-5.3319,-5.35,-5.35,-5.3605,-5.371,-5.4304,-5.4611,-5.4887,-5.5569,-5.3166,-5.0599,-4.8967,-4.6826,-4.5282,-4.4984,-4.4872,-4.4869,-4.506,-4.5427,-4.5746,-4.5825,-4.6043,-4.5899,-4.5287,-4.518,-4.4964,-4.4722,-4.4722,-4.4474,-4.3883,-4.3883,-4.379,-4.3766,-4.3766,-4.4003,-4.424,-4.3835,-4.2832,-4.5419,-5.2916,-6.3245,-7.2827,-7.533,-7.5622,-7.6397,-7.6553,-7.6553,-7.6553,-7.6466,-7.6436,-7.6552,-7.6692,-7.6808,-7.6848,-7.699,-7.7082,-7.7011,-7.6999,-7.6999,-7.6999,-7.6999,-7.6999,-7.6999,-7.6765,-7.6571,-7.6415,-7.5443,-7.4445,-7.3532,-7.2685,-7.1643,-7.0534,-6.9956,-6.9495,-6.8963,-6.7057,-6.6026,-6.5866,-6.3825,-6.3049,-6.3379,-6.0698,-5.9792,-6.0463,-6.0723,-6.0848,-6.087,-6.1519,-6.1894,-6.1927,-6.1002,-6.0215,-5.9549,-5.9185,-5.8535,-5.7881,-5.7673,-5.7606,-5.7572,-5.7229,-5.6417,-5.5686,-5.5837,-5.4901,-5.3786,-5.4053,-5.3681,-5.3078,-5.3078,-5.2865,-5.2787,-5.3319,-5.35,-5.35,-5.3815,-5.3815,-5.4126,-5.4875,-5.5681,-5.5865,-5.522,-5.2771,-5.0427,-4.9408,-4.6595,-4.4656,-4.4551,-4.4522,-4.4443,-4.4537,-4.4785,-4.5108,-4.542,-4.5316,-4.5364,-4.5582,-4.5072,-4.4722,-4.4722,-4.4722,-4.4616,-4.4342,-4.4367,-4.4333,-4.4253,-4.4253,-4.4376,-4.4744,-4.4988,-4.4719,-4.7684,-5.5884,-6.4711,-7.2014,-7.4165,-7.4745,-7.5619,-7.5834,-7.595,-7.6454,-7.6178,-7.5847,-7.5924,-7.6051,-7.6155,-7.6217,-7.6325,-7.6547,-7.7011,-7.7038,-7.6999,-7.6999,-7.6999,-7.6923,-7.6809,-7.6609,-7.6206,-7.5499,-7.4504,-7.3492,-7.265,-7.186,-7.093,-6.9957,-6.9772,-6.9191,-6.8097,-6.676,-6.5654,-6.4696,-6.3676,-6.3111,-6.2843,-6.1226,-6.0572,-6.081,-6.0155,-6.028,-6.0943,-6.1592,-6.2118,-6.2498,-6.1972,-6.1368,-6.0684,-6.0217,-5.9332,-5.8366,-5.809,-5.7729,-5.739,-5.7114,-5.6344,-5.5595,-5.5813,-5.511,-5.4231,-5.4259,-5.4097,-5.3681,-5.3395,-5.3213,-5.3213,-5.3605,-5.371,-5.3815,-5.4363,-5.423,-5.4215,-5.46,-5.4835,-5.4957,-5.4461,-5.1916,-4.9824,-4.9404,-4.6602,-4.4562,-4.4483,-4.4411,-4.4425,-4.4425,-4.4864,-4.5094,-4.5011,-4.5207,-4.5284,-4.5127,-4.483,-4.4722,-4.4722,-4.4722,-4.4583,-4.4568,-4.4477,-4.4438,-4.4347,-4.4347,-4.447,-4.484,-4.4816,-4.457,-4.8432,-5.4535,-6.0036,-6.8374,-7.0736,-7.1683,-7.4302,-7.4883,-7.5154,-7.6006,-7.5795,-7.5449,-7.5468,-7.5533,-7.5712,-7.6031,-7.6092,-7.637,-7.6948,-7.7026,-7.6987,-7.6987,-7.691,-7.6801,-7.6614,-7.6389,-7.5837,-7.4757,-7.3734,-7.2805,-7.2003,-7.1209,-7.0337,-6.934,-6.9532,-6.8828,-6.702,-6.6202,-6.5051,-6.3602,-6.3602,-6.3185,-6.2361,-6.1575,-6.1069,-6.0799,-5.9636,-5.9708,-6.0687,-6.1459,-6.2082,-6.2535,-6.2608,-6.2192,-6.1573,-6.0945,-5.9978,-5.8903,-5.8395,-5.7834,-5.7299,-5.7166,-5.6195,-5.5317,-5.5712,-5.5068,-5.4261,-5.4506,-5.4406,-5.42,-5.3815,-5.3605,-5.3605,-5.389,-5.3993,-5.4068,-5.4463,-5.4404,-5.4196,-5.3973,-5.3953,-5.3693,-5.3235,-5.0934,-4.9144,-4.8585,-4.6167,-4.4498,-4.4429,-4.4422,-4.4425,-4.4425,-4.4864,-4.4997,-4.461,-4.5002,-4.5179,-4.4696,-4.4722,-4.4722,-4.4722,-4.4635,-4.4626,-4.4452,-4.4486,-4.4467,-4.4347,-4.4347,-4.447,-4.484,-4.4446,-4.4175,-4.4135,-4.46,-4.6428,-6.0704,-6.3666,-6.5004,-7.2386,-7.4053,-7.4324,-7.5177,-7.545,-7.55,-7.559,-7.5672,-7.5983,-7.6872,-7.7029,-7.6989,-7.6936,-7.691,-7.691,-7.691,-7.666,-7.6555,-7.6594,-7.6195,-7.5553,-7.4647,-7.3647,-7.2716,-7.1866,-7.1129,-7.0037,-6.8527,-6.9207,-6.8504,-6.6165,-6.5311,-6.4456,-6.3602,-6.3602,-6.3193,-6.2376,-6.1565,-6.0747,-5.9955,-5.9743,-5.9711,-5.9887,-6.1261,-6.1812,-6.1935,-6.2535,-6.2315,-6.1506,-6.0901,-6.0167,-5.9269,-5.8484,-5.793,-5.7543,-5.7376,-5.588,-5.4309,-5.5563,-5.4657,-5.3503,-5.482,-5.4743,-5.4304,-5.4304,-5.3919,-5.3605,-5.42,-5.4304,-5.4229,-5.3941,-5.4052,-5.4042,-5.3384,-5.3428,-5.3008,-5.1054,-4.9863,-4.8614,-4.6547,-4.5284,-4.4429,-4.4443,-4.4425,-4.4425,-4.4425,-4.4482,-4.4606,-4.461,-4.4694,-4.4758,-4.4696,-4.4722,-4.4722,-4.4722,-4.4583,-4.4585,-4.4452,-4.4413,-4.4378,-4.4347,-4.4347,-4.447,-4.484,-4.4446,-4.4175,-4.3047,-4.4199,-4.5655,-5.4258,-5.9481,-6.3219,-6.6062,-7.0076,-7.3488,-7.4405,-7.4257,-7.4146,-7.4718,-7.5351,-7.5884,-7.6196,-7.6235,-7.6352,-7.6816,-7.6908,-7.6908,-7.6908,-7.6216,-7.5895,-7.6289,-7.5041,-7.4072,-7.3619,-7.274,-7.1822,-7.0942,-7.0738,-7.0167,-6.9129,-6.9433,-6.8466,-6.6128,-6.4716,-6.3899,-6.3602,-6.3602,-6.2933,-6.1626,-6.1342,-6.0449,-5.9144,-5.9069,-5.9297,-5.9785,-6.0766,-6.1403,-6.1898,-6.2535,-6.2608,-6.2228,-6.1323,-6.0597,-5.9904,-5.8871,-5.8243,-5.7759,-5.7725,-5.6554,-5.528,-5.5581,-5.4946,-5.4127,-5.448,-5.4749,-5.4845,-5.4845,-5.4773,-5.4671,-5.4845,-5.4845,-5.4696,-5.4142,-5.3764,-5.3354,-5.2695,-5.2312,-5.1553,-5.0065,-4.8968,-4.7854,-4.6318,-4.5176,-4.4461,-4.4425,-4.4425,-4.4377,-4.4482,-4.4512,-4.4546,-4.464,-4.4727,-4.4653,-4.4696,-4.4722,-4.4687,-4.4609,-4.4591,-4.4561,-4.4413,-4.4368,-4.4401,-4.4347,-4.4347,-4.4347,-4.447,-4.395,-4.3553,-4.0239,-4.1219,-4.255,-4.8321,-5.2947,-5.7211,-6.1601,-6.6062,-7.0205,-7.3119,-7.3375,-7.3328,-7.4226,-7.4936,-7.5477,-7.5752,-7.5988,-7.6338,-7.6816,-7.6879,-7.6747,-7.6349,-7.5624,-7.5166,-7.5221,-7.3976,-7.3008,-7.2592,-7.2024,-7.1298,-7.0457,-7.0451,-7.0217,-6.9542,-6.847,-6.7342,-6.6128,-6.4456,-6.3602,-6.3602,-6.3602,-6.274,-6.1181,-6.123,-6.0301,-5.8698,-5.8698,-5.8921,-5.9446,-6.037,-6.1052,-6.1556,-6.2462,-6.2805,-6.2682,-6.1739,-6.1042,-6.0393,-5.9461,-5.8703,-5.8118,-5.8118,-5.7145,-5.6004,-5.5504,-5.5058,-5.4607,-5.4238,-5.454,-5.508,-5.522,-5.5179,-5.5179,-5.5179,-5.5179,-5.4999,-5.4341,-5.3862,-5.3264,-5.2366,-5.1952,-5.1199,-4.9228,-4.8389,-4.7433,-4.5787,-4.4837,-4.4387,-4.4394,-4.4422,-4.4482,-4.4508,-4.4529,-4.459,-4.4676,-4.4705,-4.4651,-4.4696,-4.4655,-4.4694,-4.4556,-4.4599,-4.4461,-4.435,-4.4424,-4.433,-4.4347,-4.4347,-4.4199,-4.4151,-4.3529,-4.3177,0.0,0.0,0.0,-4.2759,-4.3928,-4.6707,-5.911,-6.2056,-6.4139,-7.1068,-7.2557,-7.2978,-7.4133,-7.4452,-7.4831,-7.5592,-7.6391,-7.6909,-7.6833,-7.6762,-7.6316,-7.5295,-7.4982,-7.4436,-7.3416,-7.3092,-7.2559,-7.1756,-7.168,-7.1298,-7.0457,-7.0419,-7.0109,-6.9542,-6.6329,-6.5096,-6.6091,-6.4456,-6.3602,-6.3602,-6.3602,-6.2784,-6.1187,-6.1187,-6.0295,-5.8698,-5.8698,-5.8698,-5.8846,-6.0219,-6.0819,-6.0907,-6.2315,-6.2805,-6.2768,-6.2118,-6.148,-6.0806,-6.022,-5.9357,-5.8497,-5.8497,-5.7604,-5.6403,-5.5478,-5.5067,-5.4763,-5.4079,-5.4334,-5.5001,-5.51,-5.5179,-5.5179,-5.5179,-5.5179,-5.4999,-5.4341,-5.4192,-5.3803,-5.2456,-5.2537,-5.178,-4.8419,-4.816,-4.7508,-4.4781,-4.4425,-4.4461,-4.4498,-4.4483,-4.4508,-4.461,-4.4694,-4.4729,-4.4651,-4.473,-4.4722,-4.4722,-4.4678,-4.4585,-4.4633,-4.4494,-4.4375,-4.4399,-4.4304,-4.4347,-4.4347,-4.4347,-4.4151,-4.3784,-4.3458,-4.2879,-3.5527,0.0,0.0,0.0,0.0,0.0,-4.8099,-5.1644,-5.6469,-6.4014,-6.4614,-6.5617,-7.1561,-7.3221,-7.3744,-7.3972,-7.4645,-7.5105,-7.5011,-7.5011,-7.488,-7.4577,-7.3682,-7.32,-7.3484,-7.2072,-7.1298,-7.168,-7.1107,-7.0648,-7.0419,-7.0217,-6.9891,-6.9382,-6.716,-6.594,-6.5875,-6.4373,-6.3602,-6.3602,-6.3602,-6.2784,-6.1187,-6.1187,-6.0295,-5.8698,-5.8698,-5.8781,-5.9014,-6.0283,-6.0785,-6.0945,-6.2291,-6.2805,-6.2768,-6.2118,-6.1491,-6.0804,-6.0198,-5.9461,-5.8841,-5.8841,-5.8427,-5.7556,-5.5544,-5.5377,-5.5538,-5.3714,-5.3971,-5.5001,-5.51,-5.5179,-5.5179,-5.5179,-5.502,-5.4729,-5.4548,-5.4194,-5.3688,-5.2683,-5.1828,-5.052,-4.8453,-4.7346,-4.626,-4.4717,-4.4497,-4.4526,-4.4539,-4.462,-4.4637,-4.4644,-4.4727,-4.4679,-4.4676,-4.4752,-4.4722,-4.4722,-4.4678,-4.4522,-4.4536,-4.4487,-4.4426,-4.4352,-4.4275,-4.4347,-4.4347,-4.4003,-4.3955,-4.3784,-4.3161,-4.273,-3.5609,-3.5754,-3.5702,-3.5228,0.0,0.0,-4.6735,-5.0087,-5.4957,-6.4565,-6.5794,-6.6518,-7.1143,-7.2417,-7.2768,-7.2768,-7.308,-7.3602,-7.4301,-7.4353,-7.4145,-7.3717,-7.3004,-7.2491,-7.2456,-7.1314,-7.0731,-7.1107,-7.0686,-7.0419,-7.0419,-7.0073,-6.9816,-6.9584,-6.7981,-6.6818,-6.6118,-6.4897,-6.4033,-6.3602,-6.3602,-6.2784,-6.1187,-6.1273,-6.0385,-5.8821,-5.8942,-5.8984,-5.9213,-6.0207,-6.0692,-6.1052,-6.2316,-6.2805,-6.2768,-6.2425,-6.1667,-6.0827,-6.0504,-5.9737,-5.9012,-5.9012,-5.884,-5.8178,-5.5497,-5.5267,-5.5523,-5.3237,-5.3741,-5.491,-5.5038,-5.517,-5.5179,-5.5179,-5.498,-5.481,-5.481,-5.4677,-5.4141,-5.2933,-5.1887,-5.0603,-4.8741,-4.7391,-4.6139,-4.4912,-4.4621,-4.4562,-4.463,-4.4635,-4.4644,-4.4705,-4.4652,-4.4704,-4.4696,-4.4722,-4.4722,-4.4722,-4.4622,-4.4486,-4.4438,-4.4377,-4.4378,-4.4347,-4.4347,-4.4223,-4.3826,-4.3826,-4.3678,-4.3302,-4.2879,-4.2523,-3.5824,-3.5779,-3.5878,-3.5818,-3.5811,0.0,-4.9271,-5.1564,-5.4752,-6.6421,-6.8669,-6.8773,-6.9667,-6.9845,-6.9806,-6.9611,-7.0225,-7.1565,-7.3904,-7.4116,-7.3717,-7.2809,-7.2601,-7.2114,-7.0992,-7.081,-7.071,-7.0445,-7.0419,-7.0419,-7.0419,-7.0073,-6.9891,-7.0003,-6.8752,-6.7563,-6.6481,-6.5699,-6.4705,-6.3498,-6.3498,-6.2724,-6.1124,-6.1334,-6.0519,-5.9024,-5.9215,-5.929,-5.9402,-6.0001,-6.0625,-6.1261,-6.2361,-6.2831,-6.2855,-6.2855,-6.2023,-6.0962,-6.0889,-6.008,-5.9012,-5.9012,-5.9012,-5.8462,-5.5421,-5.4939,-5.5106,-5.2976,-5.3652,-5.4916,-5.4916,-5.5069,-5.5179,-5.5179,-5.5149,-5.5089,-5.5089,-5.513,-5.463,-5.3334,-5.2407,-5.1106,-4.8885,-4.7626,-4.6554,-4.5121,-4.4683,-4.4566,-4.4676,-4.4731,-4.4705,-4.467,-4.4722,-4.4722,-4.4722,-4.4692,-4.4635,-4.4609,-4.4583,-4.4467,-4.4442,-4.4354,-4.4347,-4.4347,-4.4223,-4.395,-4.32,-4.3569,-4.3364,-4.2754,-4.2385,-4.2234,-3.6936,-3.5788,-3.5898,-3.5898,-3.5898,0.0,-3.8766,-3.826,-3.9714,-4.8376,-4.9016,-4.9745,-5.5348,-5.6437,-5.6009,-5.4606,-5.9624,-6.5758,-7.1659,-7.2404,-7.2295,-7.2078,-7.1885,-7.1642,-7.1377,-7.1,-7.0794,-7.0738,-7.054,-7.0419,-7.0419,-7.0353,-7.0144,-6.9853,-6.9019,-6.7844,-6.6313,-6.5824,-6.4657,-6.286,-6.3069,-6.2251,-6.0639,-6.0678,-6.0153,-5.9253,-5.929,-5.9364,-5.9583,-6.0038,-6.0662,-6.1442,-6.2234,-6.2917,-6.3419,-6.3194,-6.2303,-6.1214,-6.0974,-6.0078,-5.9012,-5.9012,-5.9012,-5.8427,-5.5409,-5.4924,-5.5205,-5.3575,-5.4022,-5.4916,-5.4916,-5.5069,-5.5179,-5.5179,-5.499,-5.4699,-5.4699,-5.4443,-5.4026,-5.3823,-5.1905,-4.9666,-4.7518,-4.6023,-4.5002,-4.4801,-4.4671,-4.4623,-4.4702,-4.4673,-4.4699,-4.4722,-4.4722,-4.4722,-4.4722,-4.4635,-4.4658,-4.4658,-4.4442,-4.4401,-4.4401,-4.4275,-4.4347,-4.4347,-4.4075,-4.3576,-4.2949,-4.2962,-4.2835,-4.2362,-4.2339,-4.1836,-3.7288,-3.5846,-3.5917,-3.5911,-3.5898,0.0,0.0,-3.9652,-4.1015,-4.7924,-4.8644,-4.9103,-5.2617,-5.2967,-5.2417,-5.1556,-5.72,-6.1549,-6.1134,-6.7368,-7.1954,-7.1887,-7.1794,-7.164,-7.1497,-7.1314,-7.097,-7.0348,-7.0123,-7.0017,-7.0017,-7.0401,-7.054,-7.0342,-6.9986,-6.9141,-6.777,-6.7116,-6.576,-6.3612,-6.3352,-6.2259,-6.0529,-6.0604,-6.0227,-5.9436,-5.951,-5.9581,-5.9688,-5.9853,-6.0604,-6.1764,-6.222,-6.2903,-6.3557,-6.3465,-6.2508,-6.1292,-6.1135,-6.0184,-5.9012,-5.9012,-5.9012,-5.8427,-5.5414,-5.3945,-5.3197,-5.2879,-5.3466,-5.4352,-5.4734,-5.5069,-5.5179,-5.5179,-5.504,-5.49,-5.49,-5.4729,-5.4239,-5.3387,-5.1468,-4.9632,-4.8465,-4.6358,-4.4904,-4.497,-4.4811,-4.4732,-4.4643,-4.4722,-4.4722,-4.4722,-4.4722,-4.4744,-4.4701,-4.4617,-4.4573,-4.4452,-4.447,-4.4451,-4.4347,-4.4347,-4.4223,-4.4075,-4.3576,-4.32,-4.2822,-4.2639,-4.2512,-4.2339,-4.2339,-4.173,-3.7635,-3.5878,-3.5889,-3.5917,-3.5898,-3.7163,0.0,0.0,0.0,-4.9333,-5.0212,-5.0048,-4.9955,-4.914,-4.8318,-4.7838,-5.3096,-5.4957,-4.8304,-5.9,-6.75,-6.7469,-7.0073,-7.1243,-6.9512,-6.9362,-6.9499,-6.9756,-6.8333,-6.8052,-6.9513,-7.0283,-7.0744,-7.0898,-7.0898,-7.0354,-6.9199,-6.8445,-6.6934,-6.4734,-6.3964,-6.2576,-6.0677,-6.0856,-6.0475,-5.965,-5.9757,-5.9791,-5.9791,-5.9616,-6.0563,-6.2034,-6.2197,-6.2842,-6.3736,-6.3691,-6.2634,-6.126,-6.1292,-6.0229,-5.8874,-5.8944,-5.8841,-5.8083,-5.5308,-5.3095,-5.1548,-5.1987,-5.2781,-5.3745,-5.4496,-5.4948,-5.5179,-5.5179,-5.5179,-5.5179,-5.5179,-5.5179,-5.4798,-5.3392,-5.1402,-4.986,-4.9416,-4.6895,-4.5049,-4.5101,-4.4891,-4.4758,-4.467,-4.4722,-4.4666,-4.4661,-4.4687,-4.4675,-4.4571,-4.4611,-4.4533,-4.4438,-4.4375,-4.4354,-4.4323,-4.4223,-4.4075,-4.3576,-4.3075,-4.2822,-4.2696,-4.2466,-4.2339,-4.2339,-4.2339,-4.1685,-3.8605,-3.5818,-3.5889,-3.5889,-3.5917,-3.6093,-3.6774,0.0,-3.7008,-3.7708,0.0,-3.6494,-3.5788,0.0,0.0,-3.0272,-3.628,-4.0398,-3.7929,-4.5594,-5.1414,-5.1419,-6.353,-6.9185,-6.2343,-6.1465,-6.3681,-6.9378,-6.3422,-6.2467,-6.9244,-6.9706,-7.009,-7.0898,-7.0898,-7.0354,-6.9199,-6.8597,-6.7236,-6.5192,-6.4649,-6.3329,-6.1416,-6.1467,-6.0929,-5.9853,-5.9824,-5.9791,-5.9757,-5.9583,-6.049,-6.1996,-6.2033,-6.2932,-6.4203,-6.3958,-6.266,-6.1038,-6.1279,-6.0093,-5.8515,-5.8874,-5.8117,-5.6735,-5.4995,-5.3836,-5.2828,-5.1717,-5.2498,-5.3653,-5.3949,-5.4616,-5.5179,-5.5179,-5.5179,-5.5179,-5.5179,-5.5179,-5.5179,-5.4988,-5.2265,-4.9546,-4.7988,-4.6089,-4.4752,-4.4722,-4.467,-4.4643,-4.4722,-4.4722,-4.4713,-4.4652,-4.4591,-4.4597,-4.4558,-4.4476,-4.4467,-4.4446,-4.4329,-4.4275,-4.4347,-4.395,-4.3576,-4.2949,-4.2822,-4.2696,-4.2339,-4.2339,-4.2339,-4.2339,-4.2339,-4.1293,-3.7802,-3.8377,-4.0174,-3.6761,-3.8432,-4.0053,-3.6627,-3.5803,-3.5788,-3.5818,0.0,0.0,0.0,0.0,0.0,0.0,-3.4476,-3.6771,-3.1506,-4.1194,-4.8841,-4.8806,-5.4567,-5.9039,-6.0262,-5.9826,-6.2187,-6.8914,-6.2167,-6.0848,-6.8004,-6.9278,-7.0011,-7.0358,-7.086,-7.0913,-7.0414,-6.92,-6.7841,-6.6396,-6.5202,-6.3589,-6.172,-6.1583,-6.1048,-6.0129,-5.982,-5.965,-5.965,-5.9474,-6.0379,-6.1883,-6.1883,-6.2859,-6.4284,-6.4166,-6.2806,-6.1084,-6.1426,-6.0167,-5.8477,-5.8907,-5.7979,-5.6491,-5.4995,-5.3649,-5.2474,-5.1693,-5.1955,-5.2672,-5.3778,-5.4389,-5.473,-5.5089,-5.5179,-5.5179,-5.5179,-5.5179,-5.4857,-5.3934,-5.1724,-4.9442,-4.7671,-4.5928,-4.4722,-4.4722,-4.4722,-4.4744,-4.4642,-4.4668,-4.4652,-4.4535,-4.4586,-4.4468,-4.4432,-4.4467,-4.4377,-4.4354,-4.4079,-4.3927,-4.3778,-4.3428,-4.3075,-4.2822,-4.257,-4.2466,-4.2339,-4.2339,-4.2339,-4.2339,-4.2339,-4.1142,-3.9363,-4.0722,-4.2636,-3.6968,-3.8749,-4.078,-3.6728,-3.5788,-3.5741,-3.5507,-3.4769,0.0,0.0,0.0,-3.0382,-3.0146,0.0,-3.3378,-2.7456,-3.5812,-4.2516,-4.2471,-4.4402,-4.8769,-5.6484,-5.4684,-5.6653,-6.5293,-5.8686,-5.8148,-6.7036,-6.8661,-6.9512,-6.9976,-7.0595,-7.0943,-7.0943,-6.9536,-6.8313,-6.7286,-6.5831,-6.4277,-6.2642,-6.226,-6.1579,-6.0693,-6.002,-5.9715,-5.9681,-5.9664,-6.0492,-6.1806,-6.2069,-6.3008,-6.4284,-6.4284,-6.2896,-6.1084,-6.1533,-6.0333,-5.8623,-5.8908,-5.829,-5.7046,-5.5102,-5.379,-5.2695,-5.1647,-5.1506,-5.2002,-5.3308,-5.3922,-5.4341,-5.482,-5.5059,-5.5048,-5.4637,-5.4476,-5.3963,-5.2236,-5.0436,-4.8931,-4.7643,-4.5928,-4.4666,-4.4713,-4.4629,-4.4616,-4.4622,-4.4585,-4.4561,-4.4536,-4.4469,-4.4457,-4.4426,-4.4354,-4.4281,-4.4175,-4.3826,-4.3553,-4.313,-4.2925,-4.2696,-4.2696,-4.2466,-4.2362,-4.2385,-4.2362,-4.2362,-4.2385,-4.2362,-4.1142,-4.507,-4.2039,-4.0985,-3.5903,-3.4775,-3.5072,-3.5648,-3.5788,-3.5546,-3.473,-3.3915,-3.3103,-3.231,-3.0721,-2.929,-2.8506,-2.7795,0.0,0.0,-2.6169,-2.6429,-2.6422,-3.3107,-4.0742,-4.8516,-4.2422,-4.3537,-5.697,-5.0748,-5.2554,-6.6727,-6.7539,-6.8313,-6.9938,-7.0015,-7.0054,-7.0054,-6.9226,-6.8354,-6.7501,-6.6709,-6.5702,-6.4517,-6.3758,-6.2821,-6.1697,-6.0484,-5.9962,-5.9912,-6.0376,-6.1055,-6.1881,-6.2745,-6.3571,-6.4284,-6.4284,-6.2896,-6.1084,-6.1533,-6.0509,-5.8978,-5.9012,-5.9012,-5.8393,-5.5414,-5.4599,-5.4189,-5.1359,-5.1267,-5.2001,-5.2162,-5.3234,-5.4221,-5.4251,-5.473,-5.4798,-5.307,-5.2719,-5.2207,-5.0408,-4.8664,-4.7482,-4.7376,-4.5928,-4.4713,-4.4591,-4.4556,-4.4648,-4.4493,-4.4568,-4.4419,-4.4396,-4.4446,-4.4329,-4.4275,-4.4323,-4.4199,-4.3826,-4.3451,-4.32,-4.2822,-4.2822,-4.2696,-4.2339,-4.2339,-4.2512,-4.2754,-4.2512,-4.2535,-4.2754,-4.2385,-4.1142,-4.8938,-5.1145,-5.2266,-4.2776,-4.3749,-4.5067,-3.751,-3.5779,-3.5546,-3.4692,-3.3874,-3.3023,-3.2201,-3.0645,-2.9218,-2.8359,-2.7532,-2.6702,0.0,-2.5693,-2.5691,-2.5689,-3.2576,-3.832,-4.0976,-4.2889,-4.7759,-5.6894,-5.4543,-5.6753,-6.6147,-6.7191,-6.7771,-6.8313,-6.8893,-6.9203,-6.9203,-6.8372,-6.7792,-6.7501,-6.6651,-6.578,-6.483,-6.4436,-6.3731,-6.2791,-6.218,-6.1781,-6.1571,-6.1675,-6.2107,-6.267,-6.297,-6.3571,-6.4284,-6.4284,-6.2896,-6.0856,-5.987,-5.9289,-5.9012,-5.9012,-5.9012,-5.86,-5.6342,-5.5256,-5.4398,-5.2313,-5.1533,-5.1364,-5.2012,-5.2546,-5.3114,-5.4012,-5.4371,-5.4161,-5.2851,-5.2587,-5.1724,-4.8797,-4.7831,-4.7055,-4.5752,-4.507,-4.46,-4.4556,-4.4548,-4.4518,-4.4482,-4.4438,-4.4421,-4.4378,-4.4304,-4.4253,-4.4323,-4.4075,-4.3826,-4.3451,-4.3177,-4.2799,-4.2466,-4.2466,-4.2466,-4.2339,-4.2339,-4.2512,-4.2754,-4.2512,-4.2616,-4.3145,-4.2669,-4.0957,-5.3668,-5.6252,-5.7371,-4.8314,-4.9057,-4.966,-4.0533,-3.82,-3.7162,-3.4193,-3.3145,-3.2448,-3.1304,-3.0437,-2.9565,-2.8393,-2.7772,-2.7052,0.0,-2.5687,-2.5693,-2.57,-3.0117,-3.4129,-3.6547,-3.8546,-4.3514,-5.2768,-5.2879,-5.5436,-6.224,-6.5412,-6.7191,-6.7501,-6.8042,-6.8352,-6.8352,-6.7771,-6.7346,-6.7036,-6.6456,-6.5935,-6.5412,-6.4964,-6.4436,-6.3956,-6.332,-6.2853,-6.2497,-6.2677,-6.2858,-6.312,-6.3421,-6.3794,-6.4125,-6.4125,-6.2854,-6.0901,-5.9479,-5.9001,-5.9012,-5.9012,-5.9012,-5.8634,-5.679,-5.562,-5.4453,-5.2513,-5.1502,-5.109,-5.1443,-5.1858,-5.2426,-5.3294,-5.3862,-5.3644,-5.1699,-5.1552,-5.0654,-4.711,-4.6408,-4.6024,-4.4812,-4.4586,-4.4483,-4.4483,-4.4552,-4.4388,-4.4354,-4.4427,-4.4329,-4.4299,-4.4347,-4.4223,-4.4075,-4.3701,-4.3302,-4.3177,-4.2799,-4.257,-4.2339,-4.2339,-4.2201,-4.2028,-4.2178,-4.2362,-4.2558,-4.2486,-4.2696,-4.3326,-4.2775,-4.0848]}]]